[[{"header":{"parameterUnit":"m.s-1","parameterCategory":1,"la1":30.6,"la2":29.2853,"lo1":-89.7004,"lo2":-87.6739,"dy":0.0162,"dx":0.0183,"nx":112,"ny":82,"refTime":"2024-09-13T00:00:00:Z","depth":0,"parameterNumber":2,"parameterNumberName":"U-component_of_WINDS"},"data":[0.0,0.0,0.0,0.0,0.0,0.0,0.0,0.0,0.0,0.0,0.0,0.0,0.0,0.0,0.0,0.0,0.0,0.0,0.0,0.0,0.0,0.0,0.0,0.0,0.0,0.0,0.0,0.0,0.0,0.0,0.0,0.0,0.0,0.0,0.0,0.0,0.0,0.0,0.0,0.0,0.0,0.0,0.0,0.0,0.0,0.0,0.0,0.0,0.0,0.0,0.0,0.0,0.0,0.0,0.0,0.0,0.0,0.0,0.0,0.0,0.0,0.0,0.0,0.0,0.0,0.0,0.0,0.0,0.0,0.0,0.0,0.0,0.0,0.0,0.0,0.0,0.0,0.0,0.0,0.0,0.0,0.0,0.0,0.0,0.0,0.0,0.0,0.0,0.0,0.0,0.0,1.3105,1.4941,1.6221,1.6602,1.582,1.4463,1.2461,0.0,0.0,0.0,0.0,0.0,0.0,0.0,0.0,0.0,0.0,0.0,0.0,0.0,0.0,0.0,0.0,0.0,0.0,0.0,0.0,0.0,0.0,0.0,0.0,0.0,0.0,0.0,0.0,0.0,0.0,0.0,0.0,0.0,0.0,0.0,0.0,0.0,0.0,0.0,0.0,0.0,0.0,0.0,0.0,0.0,0.0,0.0,0.0,0.0,0.0,0.0,0.0,0.0,0.0,0.0,0.0,0.0,0.0,0.0,0.0,0.0,0.0,0.0,0.0,0.0,0.0,0.0,0.0,0.0,0.0,0.0,0.0,0.0,0.0,0.0,0.0,0.0,0.0,0.0,0.0,0.0,0.0,0.0,0.0,0.0,0.0,0.0,0.0,0.0,0.0,0.0,0.0,0.0,0.0,0.0,0.0,0.0,0.0,0.0,0.0,0.0,0.0,0.0,0.0,1.1963,1.4736,1.5644,1.6154,1.6223,1.5371,1.4277,1.2871,0.0,0.0,0.0,0.0,0.0,0.0,0.0,0.0,0.0,0.0,0.0,0.0,0.0,0.0,0.0,0.0,0.0,0.0,0.0,0.0,0.0,0.0,0.0,0.0,0.0,0.0,0.0,0.0,0.0,0.0,0.0,0.0,0.0,0.0,0.0,0.0,0.0,0.0,0.0,0.0,0.0,0.0,0.0,0.0,0.0,0.0,0.0,0.0,0.0,0.0,0.0,0.0,0.0,0.0,0.0,0.0,0.0,0.0,0.0,0.0,0.0,0.0,0.0,0.0,0.0,0.0,0.0,0.0,0.0,0.0,0.0,0.0,0.0,0.0,0.0,0.0,0.0,0.0,0.0,0.0,0.0,0.0,0.0,0.0,0.0,0.0,0.0,0.0,0.0,0.0,0.0,0.0,0.0,0.0,0.0,0.0,0.0,0.0,0.0,0.0,0.0,0.0,0.0,1.1494,1.2949,1.5498,1.5947,1.6125,1.6125,1.5273,1.4238,1.2959,1.0811,0.0,0.0,0.0,0.0,0.0,0.0,0.0,0.0,0.0,0.0,0.0,0.0,0.0,0.0,0.0,0.0,0.0,0.0,0.0,0.0,0.0,0.0,0.0,0.0,0.0,0.0,0.0,0.0,0.0,0.0,0.0,0.0,0.0,0.0,0.0,0.0,0.0,0.0,0.0,0.0,0.0,0.0,0.0,0.0,0.0,0.0,0.0,0.0,0.0,0.0,0.0,0.0,0.0,0.0,0.0,0.0,0.0,0.0,0.0,0.0,0.0,0.0,0.0,0.0,0.0,0.0,0.0,0.0,0.0,0.0,0.0,0.0,0.0,0.0,0.0,0.0,0.0,0.0,0.0,0.0,0.0,0.0,0.0,0.0,0.0,0.0,0.0,0.0,0.0,0.0,0.0,0.0,0.0,0.0,0.0,0.0,0.0,0.0,0.0,0.0,0.0,0.0,1.293,1.3877,1.5713,1.5908,1.5908,1.5908,1.4941,1.3877,1.2793,1.0195,0.0,0.0,0.0,0.0,0.0,0.0,0.0,0.0,0.0,0.0,0.0,0.0,0.0,0.0,0.0,0.0,0.0,0.0,0.0,0.0,0.0,0.0,0.0,0.0,0.0,0.0,0.0,0.0,0.0,0.0,0.0,0.0,0.0,0.0,0.0,0.0,0.0,0.0,0.0,0.0,0.0,0.0,0.0,0.0,0.0,0.0,0.0,0.0,0.0,0.0,0.0,0.0,0.0,0.0,0.0,0.0,0.0,0.0,0.0,0.0,0.0,0.0,0.0,0.0,0.0,0.0,0.0,0.0,0.0,0.0,0.0,0.0,0.0,0.0,0.0,0.0,0.0,0.0,0.0,0.0,0.0,0.0,0.0,0.0,0.0,0.0,0.0,0.0,0.0,0.0,0.0,0.0,0.0,0.0,0.0,0.0,0.0,0.0,0.0,0.0,0.0,0.0,1.3057,1.435,1.5352,1.5459,1.5459,1.5459,1.3955,1.2803,1.2258,0.9437,0.0,0.0,0.0,0.0,0.0,0.0,0.0,0.0,0.0,0.0,0.0,0.0,0.0,0.0,0.0,0.0,0.0,0.0,0.0,0.0,0.0,0.0,0.0,0.0,0.0,0.0,0.0,0.0,0.0,0.0,0.0,0.0,0.0,0.0,0.0,0.0,0.0,0.0,0.0,0.0,0.0,0.0,0.0,0.0,0.0,0.0,0.0,0.0,0.0,0.0,0.0,0.0,0.0,0.0,0.0,0.0,0.0,0.0,0.0,0.0,0.0,0.0,0.0,0.0,0.0,0.0,0.0,0.0,0.0,0.0,0.0,0.0,0.0,0.0,0.0,0.0,0.0,0.0,0.0,0.0,0.0,0.0,0.0,0.0,0.0,0.0,0.0,0.0,0.0,0.0,0.0,0.0,0.0,0.0,0.0,0.0,0.0,0.0,0.0,0.0,0.0,0.0,1.2607,1.3887,0.0,1.541,1.541,1.541,1.4336,1.3252,1.2239,0.0,0.0,0.0,0.0,0.0,0.0,0.0,0.0,0.0,0.0,0.0,0.0,0.0,0.0,0.0,0.0,0.0,0.0,0.0,0.0,0.0,0.0,0.0,0.0,0.0,0.0,0.0,0.0,0.0,0.0,0.0,0.0,0.0,0.0,0.0,0.0,0.0,0.0,0.0,0.0,0.0,0.0,0.0,0.0,0.0,0.0,0.0,0.0,0.0,0.0,0.0,0.0,0.0,0.0,0.0,0.0,0.0,0.0,0.0,0.0,0.0,0.0,0.0,0.0,0.0,0.0,0.0,0.0,0.0,0.0,0.0,0.0,0.0,0.0,0.0,0.0,0.0,0.0,0.0,0.0,0.0,0.0,0.0,0.0,0.0,0.0,0.0,0.0,0.0,0.0,0.0,0.0,0.0,0.0,0.0,0.0,0.0,0.0,0.0,0.0,0.0,0.0,1.1302,1.2559,1.3828,0.0,1.541,1.541,1.541,1.4385,1.3242,1.209,0.0,0.0,0.0,0.0,0.0,0.0,0.0,0.0,0.0,0.0,0.0,0.0,0.0,0.0,0.0,0.0,0.0,0.0,0.0,0.0,0.0,0.0,0.0,0.0,0.0,0.0,0.0,0.0,0.0,0.0,0.0,0.0,0.0,0.0,0.0,0.0,0.0,0.0,0.0,0.0,0.0,0.0,0.0,0.0,0.0,0.0,0.0,0.0,0.0,0.0,0.0,0.0,0.0,0.0,0.0,0.0,0.0,0.0,0.0,0.0,0.0,0.0,0.0,0.0,0.0,0.0,0.0,0.0,0.0,0.0,0.0,0.0,0.0,0.0,0.0,0.0,0.0,0.0,0.0,0.0,0.0,0.0,0.0,0.0,0.0,0.0,0.0,0.0,0.0,0.0,0.0,0.0,0.0,0.0,0.0,0.0,0.0,0.0,0.0,0.0,0.0,0.0,1.1381,1.3066,1.4408,1.5322,1.541,1.541,1.54,1.3867,1.2557,0.0,0.0,0.0,0.0,0.0,0.0,0.0,0.0,0.0,0.0,0.0,0.0,0.0,0.0,0.0,0.0,0.0,0.0,0.0,0.0,0.0,0.0,0.0,0.0,0.0,0.0,0.0,0.0,0.0,0.0,0.0,0.0,0.0,0.0,0.0,0.0,0.0,0.0,0.0,0.0,0.0,0.0,0.0,0.0,0.0,0.0,0.0,0.0,0.0,0.0,0.0,0.0,0.0,0.0,0.0,0.0,0.0,0.0,0.0,0.0,0.0,0.0,0.0,0.0,0.0,0.0,0.0,0.0,0.0,0.0,0.0,0.0,0.0,0.0,0.0,0.0,0.0,0.0,0.0,0.0,0.0,0.0,0.0,0.0,0.0,0.0,0.0,0.0,0.0,0.0,0.0,0.0,0.0,0.0,0.0,0.0,0.0,0.0,0.0,0.0,0.0,0.0,0.0,1.1381,1.3066,1.4408,1.5322,1.541,1.5293,1.5,1.4228,1.3008,1.1211,0.0,0.0,0.0,0.0,0.0,0.0,0.0,0.0,0.0,0.0,0.0,0.0,0.0,0.0,0.0,0.0,0.0,0.0,0.0,0.0,0.0,0.0,0.0,0.0,0.0,0.0,0.0,0.0,0.0,0.0,0.0,0.0,0.0,0.0,0.0,0.0,0.0,0.0,0.0,0.0,0.0,0.0,0.0,0.0,0.0,0.0,0.0,0.0,0.0,0.0,0.0,0.0,0.0,0.0,0.0,0.0,0.0,0.0,0.0,0.0,0.0,0.0,0.0,0.0,0.0,0.0,0.0,0.0,0.0,0.0,0.0,0.0,0.0,0.0,0.0,0.0,0.0,0.0,0.0,0.0,0.0,0.0,0.0,0.0,0.0,0.0,0.0,0.0,0.0,0.0,0.0,0.0,0.0,0.0,0.0,0.0,0.0,0.0,0.0,0.0,0.0,0.0,1.1582,1.3174,1.4408,1.5322,1.541,1.5312,1.5059,1.4482,1.3309,1.1553,0.0,0.0,0.0,0.0,0.0,0.0,0.0,0.0,0.0,0.0,0.0,0.0,0.0,0.0,0.0,0.0,0.0,0.0,0.0,0.0,0.0,0.0,0.0,0.0,0.0,0.0,0.0,0.0,0.0,0.0,0.0,0.0,0.0,0.0,0.0,0.0,0.0,0.0,0.0,0.0,0.0,0.0,0.0,0.0,0.0,0.0,0.0,0.0,0.0,0.0,0.0,0.0,0.0,0.0,0.0,0.0,0.0,0.0,0.0,0.0,0.0,0.0,0.0,0.0,0.0,0.0,0.0,0.0,0.0,0.0,0.0,0.0,0.0,0.0,0.0,0.0,0.0,0.0,0.0,0.0,0.0,0.0,0.0,0.0,0.0,0.0,0.0,0.0,0.0,0.0,0.0,0.0,0.0,0.0,0.0,0.0,0.0,0.0,0.0,0.0,0.0,0.0,1.1908,1.3289,1.4408,1.5322,1.541,1.5391,1.5352,1.4609,1.3542,1.2268,0.0,0.0,0.0,0.0,0.0,0.0,0.0,0.0,0.0,0.0,0.0,0.0,0.0,0.0,0.0,0.0,0.0,0.0,0.0,0.0,0.0,0.0,0.0,0.0,0.0,0.0,0.0,0.0,0.0,0.0,0.0,0.0,0.0,0.0,0.0,0.0,0.0,0.0,0.0,0.0,0.0,0.0,0.0,0.0,0.0,0.0,0.0,0.0,0.0,0.0,0.0,0.0,0.0,0.0,0.0,0.0,0.0,0.0,0.0,0.0,1.3178,0.0,0.0,0.0,0.0,0.0,0.0,0.0,0.0,0.0,0.0,0.0,0.0,0.0,0.0,0.0,0.0,0.0,0.0,0.0,0.0,0.0,0.0,0.0,0.0,0.0,0.0,0.0,0.0,0.0,0.0,0.0,0.0,0.0,0.0,0.0,0.0,0.0,0.0,0.0,0.0,0.0,1.1908,1.3289,1.4408,1.5322,1.541,1.5283,1.4941,1.4434,1.3542,1.2268,1.084,0.0,0.0,0.0,0.0,0.0,0.0,0.0,0.0,0.0,0.0,0.0,0.0,0.0,0.0,0.0,0.0,0.0,0.0,0.0,0.0,0.0,0.0,0.0,0.0,0.0,0.0,0.0,0.0,0.0,0.0,0.0,0.0,0.0,0.0,0.0,0.0,0.0,0.0,0.0,0.0,0.0,0.0,0.0,0.0,0.0,0.0,0.0,0.0,0.0,0.0,0.0,0.0,0.0,0.0,0.0,0.0,0.0,0.0,0.0,0.0,1.4592,0.0,0.0,0.0,0.0,0.0,0.0,0.0,0.0,0.0,0.0,0.0,0.0,0.0,0.0,0.0,0.0,0.0,0.0,0.0,0.0,0.0,0.0,0.0,0.0,0.0,0.0,0.0,0.0,0.0,0.0,0.0,0.0,0.0,0.0,0.0,0.0,0.0,0.0,0.0,0.0,1.2539,1.3542,1.4408,1.5322,1.541,1.5322,1.5107,1.4502,1.3717,1.29,1.1426,0.0,0.0,0.0,0.0,0.0,0.0,0.0,0.0,0.0,0.0,0.0,0.0,0.0,0.0,0.0,0.0,0.0,0.0,0.0,0.0,0.0,0.0,0.0,0.0,0.0,0.0,0.0,0.0,0.0,0.0,0.0,0.0,0.0,0.0,0.0,0.0,0.0,0.0,0.0,0.0,0.0,0.0,0.0,0.0,0.0,0.0,0.0,0.0,0.0,0.0,0.0,0.0,0.0,1.9745,2.0333,2.1126,2.067,2.0781,2.1259,1.9419,1.7973,1.6851,1.5663,0.0,0.0,0.0,0.0,0.0,0.0,0.0,0.0,0.0,0.0,0.0,0.0,0.0,0.0,0.0,0.0,0.0,0.0,0.0,0.0,0.0,0.0,0.0,0.0,1.333,1.3135,1.0566,0.0,0.0,0.0,0.0,0.0,0.0,0.0,0.0,0.0,0.0,0.0,1.3193,1.3945,1.4551,1.5332,1.541,1.541,1.541,1.4697,1.4072,1.3643,1.2129,1.1064,0.0,0.0,0.0,0.0,0.0,0.0,0.0,0.0,0.0,0.0,0.0,0.0,0.0,0.0,0.0,0.0,0.0,0.0,0.0,0.0,0.0,0.0,0.0,0.0,0.0,0.0,0.0,0.0,0.0,0.0,0.0,0.0,1.2375,1.3305,0.0,0.0,0.0,0.0,0.0,0.0,0.0,0.0,0.0,0.0,0.0,0.0,0.0,1.9111,1.935,2.1547,2.1958,2.0701,2.3391,2.4447,2.4015,2.3902,2.3611,2.3165,2.2226,0.0,1.86,1.7416,0.0,0.0,0.0,0.0,0.0,0.0,0.0,0.0,0.0,0.0,0.0,0.0,0.0,0.0,0.0,0.0,0.0,0.0,0.0,0.0,0.0,0.0,1.4912,1.498,1.5078,1.4951,0.0,1.2295,1.0586,1.0049,0.9395,0.0,0.0,0.0,0.0,0.0,0.0,0.0,1.3271,1.4209,1.4883,1.5361,1.541,1.541,1.541,1.4971,1.4512,1.4029,1.3154,1.2422,1.1992,1.0771,0.0,0.0,0.0,0.0,0.0,0.0,0.0,0.0,0.0,0.0,0.0,0.0,0.0,0.0,0.0,0.0,0.0,0.0,0.0,0.0,0.0,0.0,0.0,0.0,0.0,0.0,0.0,0.0,0.0,1.265,1.4498,1.5319,1.5945,1.5718,0.0,0.0,0.0,0.0,0.0,0.0,0.0,0.0,0.0,2.0468,2.1769,2.2461,2.2511,2.3577,2.4057,2.395,2.4924,2.5588,2.5948,2.5508,2.5127,2.4855,2.3755,2.2534,2.1192,1.9402,1.8122,1.7099,0.0,0.0,0.0,0.0,1.6241,1.6566,1.7521,1.7811,1.7697,1.6961,0.0,0.0,0.0,0.0,0.0,0.0,0.0,0.0,0.0,0.0,1.584,1.6094,1.6152,1.6103,1.5918,1.4785,1.3398,0.0,1.1631,1.1016,0.9365,0.0,0.0,0.0,0.0,1.2275,1.4004,1.4551,1.4941,1.5371,1.541,1.541,1.541,1.5029,1.46,1.4107,1.3564,1.3037,1.2617,1.1807,1.1055,0.0,0.0,0.0,0.0,0.0,0.0,0.0,0.0,0.0,0.0,0.0,0.0,0.0,0.0,0.0,0.0,0.0,0.0,0.0,0.0,0.0,0.0,0.0,0.0,0.0,0.0,0.0,0.0,1.4578,1.6589,1.7499,1.8577,1.8563,0.0,0.0,0.0,0.0,0.0,0.0,2.0333,2.141,2.2488,2.364,2.4956,2.5625,2.5568,2.5531,2.5812,2.6493,2.5924,2.6109,2.6973,2.6262,2.5906,2.5831,2.4721,2.3966,2.3389,2.1154,1.9924,1.9397,1.8832,1.8618,1.8668,1.9083,1.9321,1.956,2.0388,2.0718,2.0567,1.956,1.8909,1.8141,1.6089,0.0,0.0,0.0,0.0,1.5203,1.6239,1.6457,1.6514,1.6953,1.7061,1.7031,1.6924,1.6631,1.5859,0.0,1.3769,1.3184,1.1091,0.0,0.0,0.0,0.0,1.3223,1.4609,1.4873,1.5068,1.5381,1.541,1.541,1.541,1.5127,1.4717,1.4116,1.3838,1.3437,1.29,1.2568,1.2031,1.126,0.0,0.0,0.0,0.0,0.0,0.0,0.0,0.0,0.0,0.0,0.0,0.0,0.0,0.0,0.0,0.0,0.0,0.0,0.0,0.0,0.0,0.0,0.0,0.0,0.0,0.0,0.0,0.0,0.0,1.9971,2.0729,0.0,0.0,0.0,0.0,1.948,2.0677,2.1724,2.2529,2.4328,2.5674,2.6378,2.7694,2.8335,2.8206,2.8166,2.7811,2.7169,2.701,2.6919,2.6973,2.6262,2.5906,2.5844,2.5078,2.4757,2.4556,2.2334,2.1079,2.0526,1.9949,1.9723,1.9723,1.9748,2.0112,2.0643,2.0706,2.0718,2.0869,2.1794,2.0851,1.9313,1.9183,1.742,0.0,0.0,1.6495,1.6204,1.7115,1.736,1.7422,1.7842,1.7949,1.7842,1.7441,1.7334,1.7041,0.0,1.5264,1.4551,1.3951,0.0,1.3379,1.3379,1.376,1.4219,1.4717,1.5127,1.5391,1.541,1.541,1.541,1.541,1.5391,1.5019,1.4136,1.4058,1.374,1.291,1.2861,1.2627,1.2122,1.0373,0.0,0.0,0.0,0.0,0.0,0.0,0.0,0.0,0.0,0.0,0.0,0.0,0.0,0.0,0.0,0.0,0.0,0.0,0.0,0.0,0.0,0.0,0.0,0.0,0.0,0.0,0.0,0.0,2.2222,2.362,0.0,2.2237,2.2189,2.2562,2.343,2.3939,2.4881,2.6408,2.7156,2.7829,2.8487,2.8981,2.8916,2.8368,2.7852,2.7327,2.6899,2.6345,2.6298,2.6674,2.6424,2.6291,2.6279,2.5605,2.5322,2.5234,2.4104,2.3514,2.3314,2.3113,2.3037,2.3037,2.3037,2.3163,2.3288,2.2937,2.2811,2.2761,2.2422,2.1198,1.9885,1.9885,1.8874,1.7707,1.7945,1.7812,1.765,1.776,1.7793,1.7822,1.7978,1.8008,1.7969,1.7822,1.7793,1.7695,1.7373,1.6621,1.5811,1.5078,1.5068,1.5059,1.4775,1.5098,1.543,1.5645,1.5742,1.5723,1.5439,1.541,1.541,1.541,1.5156,1.4756,1.4116,1.3877,1.3477,1.29,1.2881,1.2812,1.2646,1.1036,0.9925,0.0,0.0,0.0,0.0,0.0,0.0,0.0,0.0,0.0,0.0,0.0,0.0,0.0,0.0,0.0,0.0,0.0,0.0,0.0,0.0,0.0,0.0,0.0,0.0,0.0,0.0,2.3358,2.3934,2.5425,2.5889,2.4637,2.4972,2.5659,2.6557,2.6826,2.753,2.8861,2.9131,2.9445,2.9879,3.0118,2.9817,2.8958,2.8176,2.7577,2.7,2.6263,2.6088,2.6533,2.6533,2.6533,2.6508,2.605,2.5887,2.5862,2.5523,2.5372,2.5335,2.4971,2.482,2.482,2.482,2.482,2.477,2.4406,2.428,2.4117,2.3188,2.2065,2.0925,2.0449,1.9727,1.893,1.8441,1.8338,1.8289,1.8065,1.8008,1.8008,1.8008,1.8008,1.8008,1.8008,1.8008,1.8008,1.8008,1.7432,1.6768,1.6172,1.6191,1.6191,1.5898,1.6103,1.6289,1.6289,1.6152,1.5947,1.5664,1.5498,1.541,1.541,1.5029,1.4479,1.3828,1.3584,1.321,1.2578,1.2774,1.2881,1.2881,1.1398,0.9958,0.8711,0.0,0.0,0.0,0.0,0.0,0.0,0.0,0.0,0.0,0.0,0.0,0.0,0.0,0.0,0.0,0.0,0.0,0.0,0.0,0.0,0.0,0.0,0.0,2.0486,2.2251,2.4014,2.5153,2.6164,2.6663,2.6428,2.7735,2.8637,2.8667,2.925,2.9624,2.9639,3.0208,3.0537,3.0537,3.1123,3.1087,3.0269,2.938,2.8492,2.767,2.6837,2.6533,2.6533,2.6533,2.6533,2.6533,2.6533,2.6533,2.6533,2.6533,2.6533,2.642,2.5285,2.487,2.487,2.487,2.4858,2.4845,2.4845,2.4833,2.4732,2.4192,2.3413,2.245,2.1039,1.9987,1.9152,1.8309,1.8037,1.8027,1.8027,1.8018,1.8008,1.8008,1.8008,1.8008,1.8008,1.8008,1.8008,1.8008,1.7686,1.7402,1.7402,1.7051,1.6704,1.6704,1.6704,0.0,1.6694,1.6305,1.6094,1.6125,1.5684,1.543,1.5352,1.4953,1.4248,1.3168,1.3294,1.2969,1.1882,1.251,1.2832,1.2774,1.1352,0.9393,0.7054,0.0,0.0,0.0,0.0,0.0,0.0,0.0,0.0,0.0,0.0,0.0,0.0,0.0,0.0,0.0,0.0,0.0,0.0,0.0,0.0,0.0,2.2887,2.4629,2.3298,2.5621,2.7464,2.7498,2.8662,2.9256,2.8746,2.9087,2.9505,2.9939,3.0148,3.0462,3.0971,3.115,3.1255,3.1255,3.0867,3.0208,2.938,2.8492,2.767,2.685,2.6589,2.6533,2.6533,2.6533,2.6533,2.6533,2.6533,2.6533,2.6533,2.6533,2.6533,2.6496,2.6126,2.6013,2.6013,2.6013,2.5749,2.5385,2.5385,2.5146,2.4795,2.4644,2.3496,2.2094,2.1745,2.0562,1.9282,1.9007,1.8711,1.8467,1.8467,1.8242,1.8008,1.8008,1.8008,1.8008,1.8008,1.8008,1.8008,1.8008,1.792,1.7842,1.7842,1.7734,1.7446,1.6735,1.6668,0.0,1.6186,1.6048,1.6019,1.6062,1.5957,1.5513,1.4597,1.3931,1.3369,1.2986,1.2529,1.2358,1.2618,1.2295,1.1633,1.0685,1.0064,0.9104,0.0,0.0,0.0,0.0,0.0,0.0,0.0,0.0,0.0,0.0,0.0,0.0,0.0,0.0,0.0,0.0,0.0,0.0,0.0,0.0,0.0,0.0,2.6302,2.7894,2.731,2.8598,2.9515,2.9319,3.0001,3.0357,3.0023,3.0223,3.0552,3.0911,3.0941,3.1106,3.1452,3.1482,3.1482,3.1482,3.0718,2.9889,2.9002,2.8117,2.7284,2.6533,2.6533,2.6533,2.6533,2.6533,2.6533,2.6533,2.6533,2.6533,2.6533,2.6533,2.6533,0.0,0.0,0.0,0.0,0.0,2.6251,2.5963,2.5963,2.5762,2.5473,2.5222,2.4104,2.2811,2.2172,2.1005,1.9775,1.9433,1.9102,1.8906,1.8906,1.8594,1.8271,1.8271,1.8135,1.8008,1.8008,1.8008,1.8008,1.8008,1.8008,0.0,1.8008,1.7647,1.7217,1.6706,1.6289,1.5922,1.5627,1.5453,1.5331,1.5242,1.5086,1.4637,1.3761,1.3119,0.0,0.0,0.0,1.2419,1.2736,1.1983,0.0,0.0,0.0,0.0,0.0,0.0,0.0,0.0,0.8659,0.8779,0.0,0.0,0.0,0.0,0.0,0.0,0.0,0.0,0.0,0.0,0.0,0.0,0.0,0.0,0.0,0.0,2.9431,3.074,3.1543,3.1121,3.0735,3.0639,3.0646,3.0612,3.0612,3.118,3.1482,3.1482,3.1482,3.1482,3.1482,0.0,0.0,0.0,0.0,2.9893,2.9196,2.8238,2.7424,2.6653,2.6653,2.6615,2.6622,2.6622,2.6584,2.6533,2.6533,2.6533,2.6533,2.6533,2.6533,2.6533,2.6533,2.6533,2.6533,2.6533,2.6533,2.6533,2.6533,0.0,0.0,2.5715,2.4864,2.3874,2.2408,2.1306,2.0411,1.9644,1.9394,1.9355,1.9355,1.9043,1.8701,1.8582,1.835,1.8066,1.8018,1.8008,1.8008,1.8008,1.8008,1.8008,1.8008,1.7207,1.6567,1.6498,1.5658,1.5021,1.5021,1.4673,1.434,1.4181,0.0,0.0,1.2915,1.2525,1.2364,1.2539,1.2811,1.277,1.2422,1.1646,1.091,1.0317,1.0541,1.0514,1.0214,1.0481,1.0705,1.0745,0.9599,0.9639,0.0,0.0,0.0,0.0,0.0,0.0,0.0,0.0,0.0,0.0,0.0,0.0,0.0,0.0,0.0,2.9347,3.141,3.2841,3.3086,3.3016,3.2577,3.1529,3.1344,3.1345,3.1345,3.1392,3.1482,3.1482,3.1482,3.1482,3.1482,3.1482,3.1779,3.2302,3.0768,3.0086,3.0452,2.8856,2.7915,2.7783,0.0,0.0,2.713,2.713,2.6879,2.6533,2.6533,2.6533,2.6533,2.6533,2.6533,2.6533,2.6533,2.6533,2.6533,2.6533,2.6533,2.6533,2.6533,2.6533,2.6371,2.539,2.4412,2.343,2.2305,2.1336,0.0,2.0389,2.0068,1.9795,1.9795,1.9482,1.9072,1.8721,1.8574,1.8418,1.8086,1.8008,1.8008,1.8008,1.8008,1.8008,1.8008,1.7207,1.6349,1.5587,1.4665,1.3954,1.3954,1.3901,1.401,1.4348,1.4131,1.3502,1.2439,1.1859,1.1752,1.2422,1.2746,1.2604,1.2016,1.1249,1.0594,1.0171,1.0173,1.0411,1.0828,1.0882,1.1156,1.1673,1.1136,1.0915,0.0,0.0,0.0,0.0,0.0,0.0,0.0,0.0,0.0,0.0,0.0,2.4628,2.6877,0.0,3.0125,3.2002,3.3237,3.4115,3.4509,3.4266,3.3607,3.2282,3.1754,3.1482,3.1482,3.1482,3.1482,3.1482,3.1839,3.2018,3.2018,3.2332,3.2662,3.2991,3.1219,3.0427,3.0798,2.8983,2.8109,2.8109,2.8109,2.7959,2.7695,2.7695,2.7544,2.7268,2.6992,2.6866,2.6854,2.6647,2.6533,2.6533,2.6533,2.6164,2.5734,2.5734,2.5429,2.4981,2.4981,2.4981,2.4909,2.4409,2.3588,2.2627,2.2178,2.1375,2.0566,2.0566,2.041,2.0244,2.0244,1.9922,1.9551,1.9326,1.9121,1.8848,1.8418,1.832,1.8114,1.7401,1.7285,1.7139,1.6655,1.5799,1.5155,1.5163,1.3947,1.3025,1.3025,1.3025,1.3049,1.3212,1.3102,1.2667,1.1878,1.1794,1.1882,1.2085,1.2268,1.2214,1.1862,1.1202,1.0767,1.0555,1.0701,1.0989,1.143,1.143,1.1657,1.2084,1.2084,1.2011,0.0,0.0,0.0,0.0,0.0,0.0,0.0,0.0,2.3274,2.6116,2.7266,2.8518,3.0954,3.1647,3.2408,3.4201,3.4624,3.4928,3.5537,3.5005,3.4186,3.3145,3.2216,3.1682,3.1682,3.1582,3.1526,3.1661,3.2213,3.2572,3.2706,3.3215,3.3559,3.3679,3.1923,3.1033,3.1157,2.932,2.8436,2.8436,2.8436,2.8373,2.826,2.826,2.821,2.8084,2.7632,2.7444,2.7406,2.6967,2.6716,2.6684,2.6684,2.5889,2.4707,2.4933,2.4337,2.3514,2.3514,2.3514,2.3441,2.3294,2.2627,2.1952,2.1811,2.1231,2.0566,2.0566,2.0566,2.0566,2.0566,2.0303,2.0019,1.9932,1.9658,1.9268,1.875,1.8562,1.8216,1.6857,1.6636,1.628,1.5376,1.4386,1.3954,1.4807,1.3448,1.2305,1.2305,1.2305,1.2211,1.1977,1.1904,1.175,1.145,1.1924,1.2178,1.1981,1.1966,1.1966,1.1966,1.1393,1.1102,1.1162,1.139,1.1657,1.1951,1.1951,1.2104,1.2392,1.2398,1.2433,1.9647,1.963,2.0281,2.2965,2.2767,2.3308,0.0,0.0,2.774,3.0091,3.114,3.1805,3.2087,3.3237,3.4201,3.4455,3.5064,3.552,3.5605,3.5005,3.4528,3.4382,3.3235,3.2492,3.2492,3.191,3.1779,3.2362,3.2482,3.2766,3.3365,3.3455,3.3769,3.4352,3.2496,3.1792,3.2386,3.0514,2.9603,2.9603,2.9603,2.9327,2.8837,2.8837,2.8561,2.8109,2.8047,2.8009,2.8009,2.7946,2.7632,2.7193,2.7193,2.5768,2.3745,2.4636,2.4337,2.3514,2.3514,2.3514,2.3368,2.2478,2.2103,2.1811,2.1011,2.0712,2.0566,2.0566,2.0566,2.0566,2.0566,2.0527,2.0391,2.001,1.9883,1.9629,1.8809,1.8562,1.8216,1.6857,1.6636,1.628,1.5376,1.4386,1.3745,1.3818,1.2952,1.2305,1.2305,1.2305,1.2291,1.2258,1.2024,1.175,1.145,1.2137,1.2647,1.261,1.2602,1.2602,1.2602,1.1831,1.1503,1.1764,1.1804,1.1964,1.2258,1.2258,1.2405,1.2699,1.171,1.1177,2.2919,2.3579,2.4323,0.0,2.664,2.7621,3.0531,3.0463,3.0412,3.2645,3.3355,3.3694,3.4134,3.4726,3.5148,0.0,3.5419,3.5622,3.5622,3.5362,3.504,3.4605,3.3744,3.3039,3.2641,3.1951,3.1809,3.2467,3.2871,3.3365,3.4038,3.4442,3.4786,3.507,3.3218,3.2345,3.2593,3.0709,2.9792,2.9792,2.9792,2.9666,2.9428,2.9428,2.9126,2.8586,2.8586,2.8398,2.8109,2.8109,2.7971,2.7758,2.7758,2.6202,2.3981,2.4077,2.3147,2.1821,2.1821,2.1821,2.1745,2.1298,2.1155,2.1078,2.0712,2.0566,2.0566,2.0566,2.0566,2.0566,2.0566,2.0566,2.0518,2.0332,2.0293,2.0059,1.9199,1.9014,1.8514,1.6903,1.614,1.5438,1.453,1.352,1.2879,1.2879,1.2519,1.2305,1.2305,1.2305,1.2305,1.2305,1.2191,1.2004,1.171,1.2033,1.2165,1.1983,1.2137,1.2242,1.2242,1.2056,1.1991,1.2118,1.2124,1.2178,1.2305,1.2305,1.2146,1.1729,1.1414,1.0599,2.5118,0.0,0.0,2.8467,2.9736,3.0954,3.1901,3.2104,3.2611,3.4438,3.4793,3.4979,3.552,3.5622,3.5622,3.5622,3.5622,3.5622,3.5622,3.5436,3.5182,3.4844,3.3907,3.3185,3.2917,3.2064,3.1884,3.2721,3.323,3.3858,3.4711,3.5235,3.5504,3.5504,3.3616,3.2593,3.2593,3.0709,2.9792,2.9792,2.9792,2.9792,2.9792,2.9792,2.9566,2.9164,2.9164,2.8938,2.8574,2.8574,2.8313,2.7854,2.7854,2.6198,2.383,2.3403,2.2153,2.0566,2.0566,2.0566,2.0566,2.0566,2.0566,2.0566,2.0566,2.0566,2.0566,2.0566,2.0566,2.0566,2.0566,2.0566,2.0566,2.0566,2.0566,2.0361,1.9619,1.9365,1.8764,1.7085,1.6158,1.5163,1.3882,1.3171,1.2592,1.2372,1.2305,1.2305,1.2305,1.2305,1.2305,1.2305,1.2305,1.2218,1.2004,1.1991,1.1897,1.1683,1.187,1.1991,1.1991,1.2191,1.2305,1.2305,1.2305,1.2305,1.2305,1.2385,1.1961,1.1132,1.1146,1.0243,0.0,0.0,2.8315,3.0531,3.1664,3.2594,3.4066,3.4387,3.4624,3.5419,3.5588,3.5588,3.5622,3.5622,3.5622,3.5622,3.5622,3.5622,3.5622,3.4979,3.4793,3.5504,3.3776,3.2812,3.3518,3.2296,3.2078,3.3365,3.3484,3.4083,3.54,3.5489,3.5504,3.5504,3.3616,3.2593,3.2593,3.0709,2.9792,2.9792,2.9792,2.9792,2.9792,2.9792,2.9779,2.9767,2.9767,2.9754,2.9741,2.9741,2.875,2.7287,2.7287,2.5483,2.273,2.2709,2.1829,2.0566,2.0566,2.0566,2.0566,2.0566,2.0566,2.0566,2.0566,2.0566,2.0566,2.0566,2.0566,2.0566,2.0566,2.0566,2.0566,2.0566,2.0566,2.0439,1.999,1.957,1.8851,1.746,1.6865,1.5956,1.4027,1.3673,1.3382,1.2445,1.2305,1.2305,1.2305,1.2305,1.2305,1.2305,1.2305,1.2298,1.2291,1.2285,1.2285,1.2278,1.2285,1.2285,1.2285,1.2298,1.2305,1.2305,1.2305,1.2305,1.2305,1.2667,1.2331,1.1478,1.0661,0.9715,2.7368,0.0,3.048,3.2222,3.3203,3.4015,3.5013,3.5233,3.5165,3.4928,3.4489,3.3998,3.3491,3.3406,3.3558,3.4066,3.4979,3.5622,3.5622,3.6282,3.6299,3.5013,3.4717,0.0,0.0,0.0,0.0,3.2781,3.3245,3.3888,3.4771,3.525,3.5504,3.5504,3.4192,3.3241,3.2593,3.1328,3.0419,2.9792,2.9792,2.9792,2.9792,2.9792,2.9792,2.9792,2.9792,2.9792,2.9714,2.8937,2.8318,2.7755,2.7025,2.5488,2.3693,2.3377,2.2288,2.0967,2.0674,2.0566,2.0566,2.0566,2.0566,2.0566,2.0566,2.0566,2.0566,2.0566,2.0566,2.0566,2.0566,2.0566,2.0566,2.0566,2.0566,2.0449,2.001,1.9805,1.9187,1.7533,1.656,1.5588,1.3992,1.3164,1.2659,1.2378,1.2305,1.2305,1.2305,1.2305,1.2305,1.2305,1.2305,1.2305,1.2305,1.2305,1.2305,1.2305,1.2305,1.2305,1.2305,1.2305,1.2305,1.2305,1.2305,1.2398,1.2599,1.1916,1.1242,1.0584,0.9498,0.8537,2.9161,3.0666,3.2002,3.3761,3.4539,3.503,3.5504,3.5419,3.5013,3.4252,3.3305,3.2459,3.1985,3.1461,3.1596,3.3152,3.4218,3.5115,3.591,3.6891,3.706,3.5859,3.5688,3.5267,0.0,0.0,0.0,3.2497,3.3335,3.4038,3.4457,3.513,3.5504,3.5504,3.4543,3.3518,3.2593,3.1669,3.0771,2.9792,2.9792,2.9792,2.9792,2.9792,2.9792,2.9792,2.9792,2.9534,2.9118,2.8426,2.7591,2.6849,2.613,2.4933,2.3504,2.3125,2.2221,2.1172,2.0723,2.0566,2.0566,2.0566,2.0566,2.0566,2.0566,2.0566,2.0566,2.0566,2.0566,2.0566,2.0566,2.0566,2.0566,2.0566,2.0566,2.0401,1.9736,1.9478,1.8901,1.7314,1.6427,1.5519,1.4275,1.3191,1.2425,1.2318,1.2305,1.2305,1.2305,1.2305,1.2305,1.2305,1.2305,1.2305,1.2305,1.2305,1.2305,1.2305,1.2305,1.2305,1.2305,1.2305,1.2305,1.2305,1.2405,1.2395,1.2197,1.16,1.073,0.9531,0.8845,0.8084,3.07,3.1867,3.2966,3.5098,3.5622,3.5605,3.5571,3.4979,3.4201,3.3406,3.2053,3.1004,3.092,0.0,2.9871,3.2763,3.3389,3.4286,3.6468,3.6874,3.7195,0.0,0.0,0.0,0.0,0.0,0.0,3.2721,0.0,3.4472,3.4472,3.513,3.5504,3.5504,3.4543,3.3602,3.2593,3.1609,3.0696,2.9792,2.9792,2.9792,2.9792,2.9792,2.9792,2.9792,2.9792,2.9118,2.8096,2.8004,2.6778,2.4787,2.4713,2.3795,2.249,2.2051,2.1621,2.1201,2.0732,2.0566,2.0566,2.0566,2.0566,2.0566,2.0566,2.0566,2.0566,2.0566,2.0566,2.0566,2.0566,2.0566,2.0566,2.0566,2.0566,2.0323,1.9283,1.8737,1.8062,1.6938,1.6244,1.5541,1.4647,1.3558,1.2741,1.2371,1.2325,1.2318,1.2305,1.2305,1.2305,1.2305,1.2305,1.2305,1.2305,1.2305,1.2305,1.2305,1.2305,1.2305,1.2305,1.2318,1.2325,1.2325,1.2619,1.2145,1.1062,1.1462,1.0622,0.8462,0.8723,0.8193,3.2374,3.3795,3.4895,3.547,3.5622,3.547,3.4912,3.4201,3.3169,3.1326,2.9736,2.8349,2.7232,2.7621,0.0,3.0649,3.3271,0.0,3.662,3.8193,0.0,3.8024,0.0,3.7819,3.6885,3.693,0.0,0.0,3.4364,3.4472,3.4472,3.513,3.5504,3.5504,3.5279,3.4327,3.2593,3.0983,3.0075,2.9792,2.9792,2.9792,2.9792,2.9792,2.9792,2.9792,2.9792,2.9118,2.8016,2.7209,2.6047,2.4702,2.3887,2.3317,2.2891,2.2158,2.1816,2.1611,2.083,2.0566,2.0566,2.0566,2.0566,2.0566,2.0566,2.0566,2.0566,2.0566,2.0566,2.0566,2.0566,2.0566,2.0566,2.0566,2.0566,2.0566,2.0245,2.0081,1.9425,1.7293,1.5255,1.3817,1.3588,1.3297,1.2986,1.2755,1.2708,1.2552,1.2331,1.2305,1.2305,1.2305,1.2305,1.2305,1.2305,1.2305,1.2305,1.2305,1.2305,1.2305,1.2305,1.2518,1.2708,1.2708,1.2129,1.1804,1.1671,1.006,0.9105,0.8731,0.7906,0.7401,3.4066,3.5233,3.6129,3.6129,3.5622,3.4844,3.3778,3.2713,3.1224,2.8653,2.7182,0.0,2.4425,2.5101,0.0,0.0,0.0,0.0,3.6485,3.8413,3.9411,0.0,3.9225,0.0,3.8338,3.8295,3.7649,0.0,3.5675,3.5182,3.455,3.513,3.5504,3.5504,3.5504,3.4558,3.2593,3.0709,2.9792,2.9792,2.9792,2.9792,2.9792,2.9792,2.9792,2.9792,0.0,2.9118,2.8016,2.7452,2.6284,2.4702,2.4135,2.3551,2.3037,2.2197,2.1885,2.1758,2.0869,2.0566,2.0566,2.0566,2.0566,2.0566,2.0566,2.0566,2.0566,2.0566,2.0566,2.0566,2.0566,2.0566,2.0566,2.0566,2.0566,2.0323,1.9353,1.9186,1.8479,1.6098,1.4579,1.3554,1.3427,1.34,1.33,1.2999,1.2909,1.2761,1.2518,1.2385,1.2305,1.2305,1.2305,1.2305,1.2305,1.2305,1.2305,1.2305,1.2305,1.2365,1.2492,1.2735,1.2645,1.222,1.1846,1.1226,1.0361,0.9199,0.8442,0.8105,0.7404,0.7139,3.5491,3.6158,3.662,3.662,3.5487,3.3964,3.2476,3.0852,2.8822,2.5913,0.0,2.3676,2.2395,2.2835,2.4374,2.7299,0.0,3.2459,3.6113,3.7905,3.9123,3.9851,4.002,4.007,4.007,3.9489,3.869,3.7863,3.7144,3.6138,3.47,3.5175,3.5504,3.5504,3.5359,3.4409,3.2593,3.0846,2.9934,2.9792,2.9792,2.9792,2.9792,2.9792,2.9792,2.9792,2.9792,2.9118,2.8096,2.8096,2.6767,2.4777,2.4724,2.4043,2.2959,2.2109,2.1797,2.168,2.085,2.0566,2.0566,2.0566,2.0566,2.0566,2.0566,2.0566,2.0566,2.0566,2.0566,2.0566,2.0566,2.0566,2.0566,2.0566,2.0566,2.0079,1.8141,1.7496,1.669,1.4741,1.4166,1.4008,1.3748,1.3701,1.3607,1.3313,1.3006,1.2869,1.2829,1.2485,1.2305,1.2305,1.2305,1.2305,1.2305,1.2305,1.2305,1.2305,1.2183,1.2247,1.2579,1.2505,1.2107,1.137,1.1453,1.049,0.8479,0.864,0.8101,0.7139,0.7139,0.7139,3.5933,3.6044,3.5825,3.5825,3.4692,3.3203,3.1715,2.9262,0.0,0.0,2.2699,2.1695,2.1431,2.2479,2.4374,2.7299,0.0,0.0,0.0,0.0,3.8362,0.0,0.0,0.0,0.0,0.0,0.0,0.0,0.0,3.6948,3.5389,3.5444,3.5504,3.5504,3.4691,3.3754,3.2593,3.1536,3.0558,2.9792,2.9792,2.9792,2.9792,2.9792,2.9792,2.9792,2.9792,0.0,2.8096,2.8096,2.6767,2.4756,2.4461,2.3584,2.2519,2.166,2.1348,2.1269,2.0742,2.0566,2.0566,2.0566,2.0566,2.0566,2.0566,2.0566,2.0566,2.0566,2.0566,2.0566,2.0566,2.0566,2.0566,2.0566,2.0566,2.0479,2.0079,1.8621,1.6935,1.5703,1.4734,1.4075,1.4021,1.4008,1.3908,1.3614,1.332,1.3033,1.2856,1.2485,1.2305,1.2305,1.2305,1.2305,1.2305,1.2305,1.2305,1.2305,1.1608,1.1284,1.1331,1.0864,1.06,1.0388,0.9767,0.9187,0.8844,0.7914,0.7316,0.7139,0.7139,0.7139,3.7108,3.7005,3.6593,3.6593,3.4687,3.2324,3.0463,0.0,0.0,0.0,2.1075,2.0348,1.957,0.0,0.0,0.0,0.0,0.0,0.0,0.0,0.0,0.0,0.0,0.0,0.0,0.0,0.0,0.0,0.0,3.7131,3.5554,3.5504,3.5504,3.5504,3.4543,3.3518,3.2593,3.1669,3.0771,2.9792,2.9792,2.9792,2.9792,2.9792,2.9792,2.9792,2.9792,2.9456,2.8937,2.8937,2.8016,2.6476,2.5981,2.5157,2.3918,2.2541,2.1987,2.1847,2.0947,2.0566,2.0566,2.0566,2.0566,2.0566,2.0566,2.0566,2.0566,2.0566,2.0566,2.0566,2.0566,2.0566,2.0479,1.9923,1.8868,1.8052,1.8052,1.6764,1.547,1.4977,1.4489,1.4088,1.4088,1.4088,1.4041,1.3895,1.3621,1.3327,1.3026,1.2719,1.2472,1.2318,1.1842,1.1527,1.1595,1.1141,1.0894,1.095,1.0521,1.0402,1.0606,1.0331,1.0001,0.9519,0.91,0.8627,0.7929,0.7404,0.7139,0.7139,0.7139,0.7139,3.7709,3.7694,3.7398,3.72,3.4691,3.1623,2.9411,2.6384,0.0,0.0,1.9748,1.9208,1.8234,0.0,2.1786,0.0,0.0,0.0,0.0,0.0,0.0,0.0,0.0,0.0,0.0,0.0,0.0,0.0,0.0,3.6784,3.5554,3.5504,3.5504,3.5504,3.4758,3.3891,3.289,3.2177,3.1267,3.0075,3.0075,2.9998,2.9792,2.9792,2.9792,2.9792,2.9792,2.9792,2.9779,2.9654,2.8934,2.7858,2.7228,2.6271,2.5059,2.3268,2.2583,2.2376,2.1053,2.0566,2.0566,2.0566,2.0566,2.0566,2.0566,2.0566,2.0566,2.0566,2.0566,2.0566,2.0566,2.0566,2.0323,1.9283,1.7649,1.6273,1.5779,1.5054,1.4412,1.4173,1.4088,1.4088,1.4088,1.4088,1.4088,1.4088,1.3834,1.3561,1.3333,1.3033,1.2759,1.2518,1.1746,1.128,1.148,1.079,1.0322,1.0423,1.0238,1.0182,1.0193,0.9991,0.9501,0.854,0.854,0.8017,0.7139,0.7139,0.7139,0.7139,0.7139,0.7139,3.6518,3.7041,3.7026,3.6247,3.3981,3.134,2.907,0.0,0.0,2.0339,1.892,1.8183,1.8691,1.9029,2.0111,2.2852,2.4069,2.5998,0.0,0.0,0.0,0.0,0.0,0.0,0.0,0.0,0.0,0.0,0.0,3.5619,3.5504,3.5504,3.5504,3.5504,3.5424,3.4905,3.3876,3.3808,3.282,3.1031,3.1031,3.062,2.9792,2.9792,2.9792,2.9792,2.9792,2.9792,0.0,2.9227,2.8356,2.7287,2.6277,2.5292,2.4104,2.2583,2.209,2.1939,2.0944,2.0566,2.0566,2.0566,2.0566,2.0566,2.0566,2.0566,2.0566,2.0566,2.0566,2.0566,2.0566,2.0566,2.0323,1.9283,1.8877,1.8141,1.6101,1.5621,1.5296,1.425,1.4088,1.4088,1.4088,1.4088,1.4088,1.4088,1.3834,1.3552,1.3607,1.3347,1.316,1.3133,1.2795,1.2749,1.2982,1.2923,1.2857,1.2883,1.2119,1.1261,1.0282,0.9456,0.8436,0.7316,0.7228,0.7228,0.7139,0.7139,0.7139,0.7139,0.7139,0.7139,3.5915,3.6427,3.6321,3.6058,3.351,3.0473,2.8176,0.0,2.1638,1.9934,1.8756,1.8078,1.8206,1.8606,1.9435,2.1092,2.2006,2.3646,2.6928,0.0,0.0,0.0,0.0,0.0,0.0,0.0,0.0,0.0,3.6753,3.5943,3.5504,3.5504,3.5504,3.5504,3.5504,3.4986,3.4027,3.4027,3.3031,3.118,3.118,3.0696,2.9779,2.9428,2.9277,2.9252,2.8925,2.8775,0.0,2.8536,2.8188,2.7717,2.6955,2.6444,2.5864,2.4365,2.3818,2.3599,2.1962,2.1441,2.1375,2.0789,2.0566,2.0566,2.0566,2.0566,2.0566,2.0566,2.0566,2.0566,2.0566,1.9599,1.855,1.8069,1.7009,1.5794,1.4901,1.4734,1.4566,1.4166,1.4088,1.4088,1.4088,1.4088,1.4088,1.4088,1.3988,1.3848,1.3667,1.354,1.3467,1.3467,1.2632,1.2172,1.2438,1.1881,1.1535,1.1606,1.1281,1.09,1.0479,0.9452,0.8715,0.8193,0.7492,0.7139,0.7139,0.7139,0.7139,0.7139,0.7139,0.7139,3.4596,3.5416,3.5576,3.5395,3.2976,2.9942,0.0,2.4313,2.1502,1.9782,1.8833,1.8229,1.7971,1.8353,1.8971,1.9858,2.0686,2.2226,2.5186,2.6894,0.0,0.0,0.0,0.0,0.0,0.0,0.0,0.0,3.7024,3.6275,3.5569,3.531,3.5295,3.5489,3.5504,3.5133,3.4461,3.4461,3.3602,3.2033,3.2033,3.1402,3.019,2.9616,2.9212,2.89,2.8348,2.8109,0.0,2.7934,2.7858,2.7808,2.7256,2.703,2.6922,2.5503,2.5004,2.4779,2.3073,2.2478,2.2253,2.1298,2.1001,2.0934,2.0712,2.0566,2.0566,2.0566,2.0566,2.0566,2.0566,1.9195,1.7738,1.7415,1.5876,1.4496,1.4173,1.4088,1.4088,1.4088,1.4088,1.4088,1.4088,1.4088,1.4088,1.4088,1.4088,1.4015,1.3801,1.3774,1.3774,1.3774,1.2921,1.2462,1.2557,1.1896,1.1376,1.1117,1.1123,1.0783,1.0096,0.9318,0.8715,0.8364,0.7489,0.7139,0.7139,0.7139,0.7139,0.7139,0.7139,0.7139,3.221,3.3798,3.4825,3.4,3.2329,3.0071,0.0,2.3991,2.1569,2.0015,1.9096,1.8508,1.8249,1.8187,1.8598,1.9798,2.0686,2.2226,2.5186,2.6894,0.0,0.0,0.0,0.0,0.0,0.0,0.0,3.7863,3.7024,0.0,3.5569,3.4861,3.4801,3.5489,3.5504,3.5504,3.5504,3.5504,3.4986,3.3959,3.3959,3.2961,3.1167,3.0613,2.9865,2.89,2.8348,2.8109,0.0,2.7519,2.7293,2.7231,2.6747,2.6533,2.6396,2.537,2.5004,2.4862,2.3818,2.3514,2.3294,2.2328,2.1952,2.1811,2.0857,2.0566,2.0566,2.0566,2.0566,2.0566,2.0566,1.9766,1.8718,1.7577,1.6437,1.5372,1.4334,1.4088,1.4088,1.4088,1.4088,1.4088,1.4088,1.4088,1.4088,1.4088,1.4088,1.4088,1.4082,1.4082,1.4082,1.4082,1.4082,1.4082,1.4082,1.4082,1.3555,1.2328,1.2242,1.1295,0.8978,0.889,0.8364,0.7139,0.7139,0.7139,0.7139,0.7139,0.7139,0.7139,0.7139,0.7139,2.8209,2.9405,3.0179,2.9409,2.8312,2.672,2.41,2.2646,2.1351,1.9596,1.904,1.8789,1.8528,1.8469,1.921,2.1489,2.2056,2.3021,0.0,0.0,0.0,0.0,0.0,0.0,0.0,0.0,0.0,3.8635,3.7848,3.7126,3.635,3.5164,3.4607,3.4786,3.4367,3.4128,3.4128,3.4128,3.3642,3.2665,3.2665,3.1718,2.9979,2.9954,2.9217,2.777,2.7811,2.7498,2.6967,2.6791,2.6716,2.6703,2.6596,2.6533,2.6452,2.6164,2.6025,2.5873,2.485,2.4047,2.3294,2.2328,2.1593,2.1011,2.0722,2.0566,2.0566,2.0566,2.0566,2.0566,2.0566,1.9766,1.8718,1.7577,1.6519,1.5379,1.4328,1.4088,1.4088,1.4088,1.4088,1.4088,1.4088,1.4088,1.4088,1.4088,1.4088,1.4088,1.4088,1.4088,1.4088,1.4088,1.4088,1.4088,1.4088,1.3379,1.2681,1.2322,1.1558,1.0783,1.0096,0.9323,0.8715,0.8364,0.7492,0.7139,0.7139,0.7139,0.7139,0.7139,0.7139,0.7139,2.4777,2.618,2.7031,2.6566,2.5819,2.4635,2.2576,2.1698,2.0889,1.9406,1.9101,1.9034,1.8807,1.8678,1.9356,2.1651,2.1823,2.2654,0.0,0.0,0.0,0.0,0.0,0.0,0.0,0.0,3.8908,3.8154,3.7636,3.7057,3.6294,3.4898,3.4109,3.4091,3.3743,3.3499,3.3499,3.3499,3.3223,3.2616,3.2616,3.1868,3.0446,3.0359,2.936,2.7767,2.7732,2.7229,0.0,2.6533,2.6533,2.6533,2.6533,2.6533,2.6533,2.6533,2.6533,2.6383,2.5804,2.5146,2.4397,2.2988,2.1669,2.0566,2.0566,2.0566,2.0566,2.0566,2.0566,2.0489,2.0079,1.9195,1.8069,1.6927,1.5869,1.4894,1.425,1.4088,1.4088,1.4088,1.4088,1.4088,1.4088,1.4088,1.4088,1.4088,1.4088,1.4088,1.4088,1.4088,1.4088,1.4088,1.4088,1.4088,1.4088,1.3027,1.1895,1.1037,1.0351,0.9749,0.9314,0.8623,0.8189,0.8189,0.7489,0.7139,0.7139,0.7139,0.7139,0.7139,0.7139,0.7139,0.0,2.3657,2.487,2.4815,2.4281,2.3364,2.1821,2.0868,0.0,1.9289,1.9161,1.9191,1.9106,1.8896,1.928,2.0983,2.0795,0.0,0.0,0.0,0.0,0.0,0.0,0.0,0.0,0.0,3.7565,3.6818,3.6717,3.6427,3.57,3.436,3.3581,3.3581,3.3513,3.3472,3.335,3.3365,3.3365,3.3365,3.3365,3.2874,3.1918,3.144,3.0241,0.0,2.808,2.7417,2.6658,2.6589,2.6589,2.6589,2.6521,2.6533,2.6533,2.6533,2.6533,2.6533,2.6533,2.6452,2.6082,2.4024,2.2124,2.0566,2.0566,2.0566,2.0566,2.0566,2.0566,2.0245,1.9283,1.8149,1.7009,1.5944,1.4977,1.4166,1.4088,1.4088,1.4088,1.4088,1.4088,1.4088,1.4088,1.4088,1.4088,1.4088,1.4088,1.4088,1.4088,1.4088,1.4088,1.4088,1.4088,1.4088,1.3997,1.2942,1.1381,0.9148,0.8978,0.8364,0.7139,0.7139,0.7139,0.7139,0.7139,0.7139,0.7139,0.7139,0.7139,0.7139,0.7139,0.7139,1.7224,0.0,1.9675,1.9051,1.9234,1.9271,0.0,1.8357,1.8445,1.7624,0.0,1.8742,1.9925,2.0094,2.1079,2.4221,2.4617,2.5409,0.0,0.0,0.0,0.0,0.0,0.0,0.0,0.0,3.7841,3.7631,3.7093,3.6709,3.6517,3.5136,3.4364,3.4364,3.3825,3.3036,3.1988,3.2003,3.2003,3.2003,3.2003,3.1545,3.0762,3.119,3.047,2.894,2.9435,2.9192,2.8363,2.767,2.7417,2.7351,2.6714,2.6533,2.6533,2.6533,2.6533,2.6533,2.6533,2.6025,2.5004,2.2999,2.1527,2.0566,2.0566,2.0566,2.0566,2.0566,2.0001,1.9362,1.9045,1.8149,1.7009,1.5944,1.5538,1.5137,1.425,1.4088,1.4088,1.4088,1.4088,1.4088,1.4088,1.4088,1.4088,1.4088,1.4088,1.4088,1.4088,1.4088,1.4088,1.4088,1.4088,1.373,1.2766,1.2498,1.1724,1.0265,0.941,0.8364,0.7139,0.7139,0.7139,0.7139,0.7139,0.7139,0.7139,0.7139,0.7139,0.7139,0.7139,0.7139,1.5251,1.6901,1.8555,1.8115,1.8335,1.8629,1.8559,1.832,0.0,0.0,0.0,1.9032,2.0264,2.0418,0.0,2.4599,2.5211,0.0,0.0,0.0,0.0,0.0,0.0,0.0,0.0,0.0,3.6857,3.6857,3.6468,3.6248,3.6248,3.5221,3.4576,3.4576,3.3937,3.3077,3.2007,3.2007,3.1853,3.1482,3.1482,3.1278,3.0896,3.1278,3.0777,2.9628,3.0072,2.9827,2.8939,2.8492,2.8051,2.767,2.767,2.7162,2.6521,2.6905,2.685,2.6533,2.6533,2.5569,2.412,2.3073,2.1745,2.0566,2.0566,2.0245,2.0001,2.0479,1.9844,1.8877,1.839,1.7415,1.6281,1.522,1.4977,1.4817,1.425,1.4088,1.4088,1.4088,1.4088,1.4088,1.4088,1.4088,1.4088,1.4088,1.4088,1.4088,1.4088,1.4088,1.4088,1.4088,1.4088,1.3822,1.3203,1.3118,1.2425,1.0697,1.0009,0.9405,0.8703,0.8703,0.8444,0.7925,0.7404,0.7139,0.7139,0.7139,0.7139,0.7139,0.7139,0.7139,1.5056,1.7207,1.9287,1.886,1.8941,1.9289,1.9971,0.0,0.0,0.0,0.0,0.0,0.0,0.0,0.0,0.0,0.0,0.0,0.0,0.0,0.0,0.0,0.0,0.0,3.6416,3.5985,3.5694,3.5622,3.5622,3.5622,3.5622,3.5052,3.4736,3.4736,3.4186,3.3598,3.2895,3.2788,3.2382,3.1697,3.1697,3.1582,3.1482,3.1482,3.1146,3.0464,0.0,0.0,2.938,2.9254,2.8748,2.8182,2.8748,2.8117,2.6973,2.7484,2.7297,2.6658,2.6521,2.5276,2.3661,2.3526,2.2264,2.0789,2.0644,2.0001,1.9362,2.0167,1.9432,1.8301,1.7334,1.6234,1.5141,1.426,1.3981,1.3955,1.3955,1.3988,1.4021,1.4021,1.4055,1.4068,1.3853,1.3762,1.3762,1.3762,1.3762,1.3866,1.4082,1.4088,1.4088,1.4088,1.3913,1.3822,1.3822,1.3822,1.2954,1.0956,1.0864,1.0783,1.0611,1.0438,0.9923,0.889,0.7753,0.7139,0.7139,0.7139,0.7139,0.7139,0.7139,0.7139,1.6612,1.8335,1.9151,1.6829,1.727,1.8317,1.8445,0.0,0.0,0.0,0.0,0.0,0.0,0.0,0.0,0.0,0.0,0.0,0.0,0.0,0.0,0.0,0.0,3.6921,3.6457,3.635,3.6097,3.5605,3.5622,3.5622,3.5622,3.5515,3.547,3.547,3.5362,3.4958,3.4284,3.3735,3.3093,3.2437,3.2437,3.212,3.1482,3.1482,3.1409,3.1351,0.0,3.1219,3.1087,3.0389,3.0011,2.9827,2.9254,2.8812,2.8556,2.792,2.7604,2.7417,2.6714,2.5734,2.4636,2.3745,2.2702,2.1669,2.0867,2.0489,2.0167,1.9441,1.7811,1.6191,1.6026,1.4936,1.3865,1.3707,1.352,1.3347,1.3347,1.354,1.3707,1.3707,1.3915,1.3749,1.2569,1.2444,1.2444,1.2444,1.2444,1.2785,1.3964,1.4088,1.4088,1.4088,1.3203,1.2589,1.2589,1.2589,1.2419,1.2066,1.2072,1.1638,1.0611,0.9666,0.9065,0.889,0.7753,0.7139,0.7139,0.7139,0.7139,0.7139,0.7139,0.7139,1.5247,1.7236,1.8802,1.7573,1.884,2.0484,2.0914,0.0,0.0,0.0,0.0,0.0,0.0,0.0,0.0,0.0,0.0,0.0,0.0,0.0,0.0,0.0,0.0,3.747,3.723,3.6981,3.6724,3.6481,3.6481,3.6333,3.6054,3.6011,3.5898,3.5622,3.5622,3.547,3.5144,3.4847,3.4153,3.3145,3.3145,3.2986,3.261,3.261,3.261,3.261,0.0,3.212,3.2048,3.1248,3.0703,3.0329,3.0329,2.9827,2.8876,2.8051,2.7417,2.6973,2.6658,2.5499,2.4108,2.3672,2.2489,2.1155,2.0712,1.9674,1.8536,1.7987,1.7108,1.6228,1.5597,1.4413,1.3407,1.3407,1.3307,1.3048,1.2479,1.2493,1.2581,1.2581,1.2688,1.2814,1.2687,1.2668,1.25,1.2002,1.1921,1.2131,1.2757,1.2901,1.3246,1.3765,1.3464,1.3288,1.3288,1.2681,1.2589,1.3203,1.3288,1.2772,1.1558,1.0438,0.9492,0.889,0.7753,0.7139,0.7139,0.7139,0.7139,0.7139,0.7139,0.7139,1.4545,1.6472,1.8467,1.9114,2.0611,2.2324,2.3779,0.0,0.0,0.0,0.0,0.0,0.0,0.0,0.0,0.0,0.0,0.0,0.0,0.0,0.0,0.0,3.835,3.8032,3.7893,3.7578,3.7323,3.7228,3.719,3.702,3.662,3.658,3.6416,3.5968,3.5854,3.5783,3.5783,3.565,3.5005,3.3836,3.3836,3.3735,3.3582,3.3582,3.3582,3.3582,3.3039,3.2841,3.2788,3.2201,3.1522,3.0911,3.1495,3.0748,2.9192,2.8556,2.767,2.6782,2.6782,2.5627,2.4097,2.3661,2.2414,2.108,2.0564,1.9075,1.7347,1.6874,1.666,1.6387,1.5162,1.3936,1.3106,1.3106,1.3046,1.2759,1.2035,1.1927,1.1891,1.1647,1.1621,1.1804,1.1988,1.222,1.2134,1.1329,1.1408,1.1597,1.1656,1.1915,1.231,1.3136,1.3246,1.3315,1.3639,1.2851,1.2851,1.3997,1.3822,1.3294,1.2328,1.0956,0.9753,0.889,0.7753,0.7139,0.7139,0.7139,0.7139,0.7139,0.7139,0.7139,1.6785,1.7586,1.8328,2.0691,2.1104,0.0,2.5154,2.5084,0.0,0.0,0.0,0.0,0.0,0.0,0.0,0.0,0.0,0.0,0.0,0.0,0.0,0.0,3.8676,3.8465,3.7946,3.7859,3.7685,3.721,3.719,3.7173,3.7135,3.7135,3.7097,3.7114,3.6603,3.6333,3.6333,3.5854,3.5253,3.4528,3.4528,3.4186,3.3582,3.3582,3.3582,3.3582,3.3547,3.3547,3.3531,3.3479,3.3024,3.2422,3.2477,3.1549,3.0208,3.0133,2.9066,2.7604,2.7604,2.7027,2.5943,2.4108,2.3139,2.2424,2.0541,1.9584,1.872,1.6791,1.6096,1.5476,1.3775,1.3084,1.2856,1.2856,1.2565,1.2365,1.2291,1.251,1.2466,1.1456,1.1496,1.1021,0.8895,0.9335,0.9964,0.9886,1.0673,1.139,1.1632,1.176,1.1861,1.2188,1.13,1.1142,1.231,1.2328,1.2851,1.3997,1.3027,1.2413,1.2328,1.0183,0.8978,0.889,0.7753,0.7139,0.7139,0.7139,0.7139,0.7139,0.7139,0.7139,1.4181,1.6105,1.8196,2.0235,2.1339,0.0,0.0,0.0,0.0,0.0,0.0,0.0,0.0,0.0,0.0,0.0,0.0,0.0,0.0,0.0,3.7377,3.7232,3.7202,3.7124,3.6936,3.6906,3.6825,3.6649,3.6649,3.6501,3.6163,3.6145,3.6006,3.5667,3.5445,3.5314,3.5314,3.5649,3.5659,3.5421,3.5284,3.5098,3.4864,3.4864,3.4864,3.48,3.4382,3.4235,3.4186,3.3786,3.3443,3.3235,3.3235,3.2275,3.0896,3.0896,2.9318,2.7195,2.7195,2.6034,2.4357,2.3582,2.2484,2.1353,2.0576,1.8797,1.694,1.6186,1.4825,1.3482,1.307,1.2699,1.2315,1.1696,1.1465,1.1013,0.9739,0.9585,0.9724,0.9959,0.9643,0.9364,0.9729,1.0095,1.0177,0.9571,1.0334,1.0977,1.1153,1.0762,1.0739,1.147,1.1519,1.1405,1.1153,1.2505,1.3294,1.3027,1.2589,1.198,1.1295,0.9749,0.854,0.7753,0.7316,0.7139,0.7139,0.7139,0.7139,0.7139,0.7139,0.7139,1.3258,1.5547,1.8119,0.0,0.0,0.0,0.0,0.0,0.0,0.0,0.0,0.0,0.0,0.0,0.0,0.0,0.0,0.0,0.0,0.0,3.6758,3.657,3.6562,3.6562,3.6562,3.6562,3.6562,3.6562,3.6562,3.6362,3.5903,3.5872,3.567,3.5198,3.5044,3.4941,3.4941,3.5332,3.5507,3.5525,3.5394,3.5369,3.5496,3.5352,3.5249,3.5112,3.4776,3.4538,3.4409,3.3961,3.355,3.3192,3.2976,3.2264,3.1326,3.1122,2.9624,2.7577,2.7139,2.5716,2.4047,2.3478,2.2354,2.1138,2.0593,1.8762,1.6795,1.624,1.4696,1.3214,1.3145,1.2675,1.215,1.1465,1.1013,1.0409,0.9059,0.8461,0.8466,0.915,0.877,0.8613,0.9658,1.011,0.9965,0.8993,0.9965,1.0714,1.034,1.0188,1.0319,1.1105,1.1662,1.1676,1.0919,1.2337,1.2868,1.1752,1.1657,1.1475,1.1123,0.9666,0.854,0.7665,0.7316,0.7139,0.7139,0.7139,0.7139,0.7139,0.7139,0.7139,1.4939,1.6426,1.8119,0.0,0.0,0.0,0.0,0.0,0.0,0.0,0.0,0.0,0.0,0.0,0.0,0.0,0.0,0.0,0.0,3.6575,3.7081,3.7081,3.7081,3.7081,3.7081,3.7081,3.7081,3.7081,3.7081,3.6967,3.6689,3.6689,3.6552,3.6295,3.5768,3.5479,3.5479,3.4958,3.4694,3.4694,3.4694,3.4916,3.526,3.4863,3.4493,3.4125,3.453,3.4456,3.4125,3.4125,3.3447,3.2331,3.1693,3.1406,3.1357,3.0729,2.9946,2.9015,2.768,2.6627,2.5569,2.3838,2.3066,2.2315,2.0504,1.9588,1.889,1.7111,1.593,1.495,1.3954,1.3025,1.2305,1.2298,1.1539,1.0783,1.0783,0.997,0.9296,0.9296,0.9296,0.8993,0.8012,0.8618,0.8917,0.7936,0.9513,1.0415,0.9448,1.019,1.0889,1.1159,1.1502,1.1662,1.1662,1.1662,1.1255,1.0282,1.0243,1.0795,1.2225,1.0091,0.889,0.889,0.7753,0.7139,0.7139,0.7139,0.7139,0.7139,0.7139,0.7139,1.4228,1.6401,0.0,0.0,0.0,0.0,0.0,0.0,0.0,0.0,0.0,0.0,0.0,0.0,0.0,0.0,0.0,0.0,3.5379,3.5533,3.5609,3.543,3.5409,3.5409,3.5409,3.5409,3.5409,3.5409,3.5409,3.5367,3.5302,3.5281,3.5277,3.5188,3.4779,3.471,3.4931,3.5161,3.5366,3.5539,3.5539,3.5301,3.4883,3.4746,3.464,3.453,3.4658,3.4622,3.453,3.453,3.4154,3.3571,3.3371,3.2817,3.2039,3.1438,3.0138,2.8524,2.7677,2.6224,2.4675,2.4172,2.3158,2.1914,2.0738,1.9417,1.7948,1.6131,1.4879,1.3954,1.2952,1.2519,1.215,1.1391,1.1013,1.0634,0.9895,0.8993,0.8466,0.915,0.8161,0.7557,0.8694,0.8542,0.8389,0.877,0.9372,0.9669,0.9372,0.9593,0.9771,0.9845,1.0767,1.139,1.139,1.1556,1.1582,1.1255,1.0589,1.0068,0.9776,0.9247,0.854,0.7665,0.8101,0.7929,0.7139,0.7139,0.7139,0.7139,0.7139,0.7139,1.5651,0.0,0.0,0.0,0.0,0.0,0.0,0.0,0.0,0.0,0.0,0.0,0.0,0.0,0.0,0.0,0.0,0.0,3.5289,3.5273,3.5207,3.5053,3.5016,3.5016,3.5016,3.5016,3.5016,3.5016,3.5016,3.4963,3.4851,3.487,3.4793,3.4694,3.4508,3.4508,3.4694,3.5033,3.5259,3.5409,3.5409,3.5179,3.4702,3.457,3.4416,3.4275,3.4166,3.4084,3.4084,3.3915,3.3688,3.3452,3.3452,3.2926,3.2102,3.1479,3.024,2.8664,2.7795,2.6446,2.5063,2.4509,2.3433,2.2139,2.0962,1.9575,1.8093,1.6271,1.5021,1.4099,1.3091,1.2592,1.215,1.1539,1.1087,1.064,1.0045,0.914,0.8542,0.9145,0.8313,0.7783,0.8542,0.8237,0.8012,0.8613,0.9069,0.9448,0.982,0.9523,0.9296,0.9296,0.9953,1.0423,1.0423,1.1022,1.1187,1.0802,1.057,1.0038,0.9032,0.8891,0.8517,0.774,0.8066,0.7841,0.7139,0.7139,0.7139,0.7139,0.7139,0.7139,1.8157,0.0,0.0,0.0,0.0,0.0,0.0,0.0,0.0,0.0,0.0,0.0,0.0,0.0,0.0,0.0,0.0,0.0,3.5493,3.5493,3.5493,3.5493,3.5526,3.5526,3.5526,3.5526,3.5526,3.5526,3.5526,3.5403,3.5157,3.5157,3.5035,3.4774,3.4734,3.4734,3.4774,3.4734,3.4734,3.4774,3.4774,3.4774,3.4754,3.4401,3.4043,3.3684,3.3431,3.3314,3.3255,3.2822,3.2631,3.255,3.255,3.223,3.1735,3.1108,3.0286,2.93,2.8003,2.7187,2.6414,2.4937,2.3923,2.2855,2.1129,2.0074,1.9023,1.7111,1.593,1.495,1.3954,1.3025,1.2305,1.2305,1.162,1.0932,1.0932,1.0115,0.9448,0.9448,0.9372,0.8998,0.8084,0.7859,0.7783,0.7783,0.8618,0.9593,1.064,0.9895,0.9296,0.9448,0.9372,0.9372,0.9448,1.019,1.034,0.9523,1.0324,1.0445,0.9506,0.9037,0.875,0.8666,0.7718,0.7193,0.7122,0.7122,0.7129,0.7139,0.7139,0.7139,0.0,1.9342,0.0,0.0,0.0,0.0,0.0,0.0,0.0,0.0,0.0,0.0,0.0,0.0,0.0,0.0,0.0,3.5493,3.5493,3.5493,3.5493,3.5493,3.5565,3.5584,3.5584,3.5641,3.5661,3.5661,3.5661,3.5608,3.5508,3.5475,3.5441,3.532,3.5122,3.5122,3.5339,3.5122,3.5122,3.5339,3.5339,3.5339,3.5304,3.4813,3.4551,3.4449,3.4383,3.4223,3.3981,3.3887,3.3524,3.3045,3.3045,3.2533,3.1735,3.1108,3.0549,2.9978,2.9239,2.8529,2.7682,2.6309,2.5342,2.4182,2.1471,2.0462,1.9792,1.7307,1.593,1.495,1.3954,1.3025,1.2305,1.2305,1.215,1.1996,1.1996,1.1168,1.049,1.049,0.982,0.9221,0.8998,0.8313,0.7783,0.7783,0.8012,0.8761,1.0559,0.9895,0.9593,1.0415,0.9744,0.9593,1.0415,0.9965,0.9895,1.0415,0.9943,0.9596,0.9367,0.9542,0.9201,0.8304,0.8176,0.7766,0.6973,0.6973,0.7031,0.7139,0.7139,0.7139,0.0,0.0,0.0,0.0,0.0,0.0,0.0,0.0,0.0,0.0,0.0,0.0,0.0,0.0,0.0,0.0,0.0,3.4408,3.4408,3.4408,3.4408,3.4408,3.4428,3.4437,3.4447,3.4476,3.4496,3.4496,3.4496,3.4496,3.4457,3.4841,3.507,3.5018,3.5273,3.5445,3.5603,3.5465,3.5465,3.5603,3.5603,3.5603,3.557,3.5107,3.4813,3.4694,3.4529,3.4357,3.4176,3.4068,3.3787,3.3494,3.3494,3.3057,3.2415,3.2108,3.1524,3.0836,3.0344,2.9512,2.8467,2.722,2.5856,2.4309,2.2372,2.1192,2.0117,1.7842,1.6876,1.6175,1.4799,1.3665,1.2952,1.2952,1.2666,1.2305,1.2305,1.1922,1.1391,1.0864,1.0415,0.9895,0.9372,0.8846,0.8389,0.7859,0.7783,0.8161,0.921,0.8912,0.8765,0.9286,0.9291,0.9523,1.004,0.9593,0.9523,1.004,0.9593,0.9296,0.9296,0.9514,0.9365,0.8832,0.8923,0.8781,0.8225,0.8225,0.8066,0.7722,0.7722,0.7505,0.0,0.0,0.0,0.0,0.0,0.0,0.0,0.0,0.0,0.0,0.0,0.0,0.0,0.0,0.0,0.0,3.3192,3.3192,3.3192,3.3192,3.3192,3.3192,3.3217,3.3217,3.3214,3.3226,3.3223,3.3223,3.3223,3.3223,3.3223,3.3896,3.4291,3.4289,3.4918,3.5335,3.5489,3.5489,3.556,3.5695,3.5695,3.5695,3.5682,3.536,3.5081,3.4832,3.4553,3.4405,3.4338,3.4117,3.4005,3.3954,3.3954,3.3707,3.3317,3.3296,3.2666,3.176,3.1298,3.0449,2.9339,2.8008,2.6318,2.4622,2.3377,2.2091,2.0621,1.8706,1.8016,1.7523,1.5843,1.4665,1.3882,1.3745,1.3091,1.2445,1.2144,1.207,1.1768,1.0938,1.064,1.0265,0.9448,0.8998,0.8618,0.8161,0.7936,0.7859,0.8012,0.7936,0.7859,0.8012,0.8613,0.9145,0.9518,0.9593,0.9593,0.9593,0.9593,0.9448,0.9296,0.9296,0.9377,0.9476,0.9582,0.9616,0.9651,0.9651,0.9192,0.8396,0.8429,0.7928,0.0,0.0,0.0,0.0,0.0,0.0,0.0,0.0,0.0,0.0,0.0,0.0,0.0,0.0,0.0,0.0,3.3188,3.3188,3.3188,3.3188,3.3188,3.3188,3.3249,3.33,3.3295,3.334,3.3376,3.3376,3.3376,3.3356,3.3298,3.3392,3.3434,3.3378,3.3487,3.3895,3.4649,3.4668,3.5018,3.5706,3.5706,3.5706,3.5706,3.5632,3.557,3.5479,3.5445,3.5245,3.4981,3.4944,3.4793,3.4591,3.4591,3.4304,3.3864,3.364,3.3201,3.2621,3.1934,3.1591,3.1053,2.8912,2.7992,2.713,2.3953,2.288,2.2201,1.9781,1.8506,1.7658,1.6688,1.572,1.4807,1.3882,1.36,1.3084,1.1378,1.1013,1.0938,1.0858,1.0115,0.9448,0.9296,0.7859,0.7253,0.8846,0.8389,0.8089,0.8993,0.8313,0.8161,0.8993,0.8466,0.8685,1.0484,1.0565,1.0565,1.0565,1.0565,1.019,0.9372,0.9296,0.9311,0.9342,0.9367,0.9396,0.9498,0.9498,0.9058,0.8205,0.8367,0.7866,0.0,0.0,0.0,0.0,0.0,0.0,0.0,0.0,0.0,0.0,0.0,0.0,0.0,0.0,0.0,0.0,0.0,3.1903,3.1903,3.1903,3.1903,3.1903,3.1938,3.1948,3.1948,3.1973,3.1992,3.1992,3.1992,3.194,3.1858,3.2383,3.2634,3.2531,3.3038,3.3506,3.388,3.388,3.4056,3.4426,3.4909,3.5139,3.5159,3.5645,3.5795,3.565,3.5451,3.5297,3.5136,3.4961,3.4812,3.4694,3.4694,3.4555,3.437,3.4048,3.3813,3.3542,3.2831,3.2194,3.147,3.0195,2.9093,2.788,2.5544,2.4536,2.3748,2.142,2.0106,1.9236,1.8325,1.7033,1.5799,1.5163,1.4386,1.3302,1.1909,1.1236,1.064,1.004,0.9593,0.9145,0.8542,0.8161,0.8084,0.8389,0.8542,0.8618,0.8466,0.8542,0.8618,0.8466,0.8084,0.8161,0.9059,0.9135,0.9135,0.9135,0.9664,0.9744,0.9296,0.9296,0.9296,0.9296,0.982,0.9868,0.9361,0.9964,0.9461,0.8091,0.8175,0.7698,0.0,0.0,0.0,0.0,0.0,0.0,0.0,0.0,0.0,0.0,0.0,0.0,0.0,0.0,0.0,0.0,0.0,3.0897,3.0855,3.0849,3.0836,3.0831,3.0813,3.0813,3.0813,3.0813,3.0813,3.0813,3.0813,3.0782,3.0675,3.1396,3.1755,3.1653,3.2316,3.2785,3.3019,3.3261,3.3379,3.3418,3.4066,3.4374,3.4394,3.5042,3.5256,3.5115,3.5066,3.4894,3.462,3.4367,3.4263,3.4244,3.4244,3.4244,3.4226,3.4139,3.4042,3.3943,3.347,3.2715,3.1899,3.1268,3.0112,2.8714,2.7364,2.6275,2.5025,2.3022,2.1682,2.0655,1.9552,1.8277,1.7042,1.6088,1.495,1.3665,1.2211,1.1093,1.0115,0.9145,0.8917,0.8694,0.7936,0.8237,0.8389,0.7859,0.8237,0.8389,0.7859,0.8466,0.8841,0.8613,0.8313,0.8313,0.8537,0.8533,0.8461,0.8161,0.9145,0.9593,0.9296,0.9296,0.9296,0.9296,1.0265,1.034,0.9296,1.004,0.9596,0.7981,0.8023,0.7488,0.0,0.0,0.0,0.0,0.0,0.0,0.0,0.0,0.0,0.0,0.0,0.0,0.0,0.0,0.0,0.0,0.0,3.0855,3.0723,3.0706,3.0695,3.0619,3.0617,3.0617,3.0617,3.0617,3.0617,3.0617,3.0617,3.0611,3.0613,3.0656,3.0675,3.067,3.0714,3.1143,3.1966,3.286,3.334,3.3398,3.3457,3.3476,3.3476,3.3515,3.3535,3.3554,3.4315,3.4052,3.3115,3.3108,3.305,3.3,3.3,3.3,3.305,3.3627,3.3656,3.344,3.3555,3.3367,3.2947,3.1899,3.123,3.0603,2.921,2.7567,2.5895,2.4276,2.2852,2.1428,1.9748,1.9233,1.8469,1.5852,1.5163,1.4363,1.152,1.0115,0.9069,0.8089,0.7859,0.7859,0.7783,0.7022,0.6795,0.7629,0.7022,0.6795,0.7706,0.7859,0.8613,1.0484,0.982,0.9593,1.0559,1.0634,1.0265,0.9296,1.019,1.0265,0.9372,0.9296,0.9296,0.9296,1.0265,1.034,0.9296,0.9372,0.8846,0.7799,0.7969,0.7501,0.0,0.0,0.0,0.0,0.0,0.0,0.0,0.0,0.0,0.0,0.0,0.0,0.0,0.0,0.0,0.0,0.0,0.0,2.9045,2.9033,2.9011,2.8994,2.9496,2.9825,2.9825,3.0298,3.0598,3.0598,3.0598,3.0579,3.054,3.0582,3.0571,3.054,3.0579,3.0753,3.1052,3.1396,3.1574,3.1613,3.2159,3.2461,3.2519,3.3086,3.3086,3.2636,3.2839,3.3041,3.32,3.3149,3.3103,3.3083,3.3083,3.3038,3.2968,3.3018,3.2936,3.2785,3.2683,3.2637,3.2556,3.2162,3.2016,3.1578,2.9522,2.8448,2.744,2.4901,2.3416,2.236,2.1279,2.0139,1.8613,1.5852,1.4879,1.4027,1.2204,1.0496,0.8993,0.8012,0.7783,0.7629,0.6949,0.7099,0.7403,0.7783,0.8012,0.8084,0.7859,0.8389,0.8765,0.8836,0.9145,0.9448,0.982,1.0415,1.034,0.9372,1.0265,1.0634,1.0265,0.9674,0.9593,1.0265,0.9965,0.9669,0.9296,0.9965,0.9739,0.877,0.8154,0.7647,1.2363,0.0,0.0,0.0,0.0,0.0,0.0,0.0,0.0,0.0,0.0,0.0,0.0,0.0,0.0,0.0,0.0,0.0,2.8074,2.8057,2.8055,2.8035,2.8533,2.8906,2.8906,2.9379,2.9813,3.0083,3.0102,0.0,3.0448,3.0506,3.0506,3.0467,3.0506,3.0544,3.0564,3.0568,3.0587,3.0607,3.1196,3.1482,3.1551,3.2126,3.2143,3.1699,3.1579,3.1857,3.2396,3.2341,3.2298,3.231,3.2318,3.2269,3.2211,3.2324,3.2269,3.2148,3.2241,3.2237,3.2218,3.2218,3.2208,3.1857,3.0135,2.9118,2.8083,2.5741,2.4137,2.2924,2.2127,2.0422,1.8305,1.6096,1.4791,1.3745,1.2519,1.095,0.9593,0.8912,0.8537,0.8012,0.6945,0.7326,0.7706,0.7326,0.7859,0.8161,0.7859,0.8694,0.9145,0.8836,0.9442,0.982,0.982,1.0415,1.049,0.982,1.0714,1.1316,1.1316,1.0645,1.0496,1.0783,1.0496,0.9976,0.9296,0.997,0.9965,0.9296,0.8618,0.8161,0.0,0.0,0.0,0.0,0.0,0.0,0.0,0.0,0.0,0.0,0.0,0.0,0.0,0.0,0.0,0.0,0.0,0.0,0.0,2.7911,2.7911,2.7832,2.7852,2.7852,2.7852,2.7871,2.8217,2.9006,2.9063,2.9429,3.0263,3.034,3.0359,3.0398,3.0398,3.0417,3.0506,3.0506,3.0525,3.0583,3.0583,3.0602,3.0595,3.0595,3.063,3.0682,3.0637,3.0594,3.0611,3.0593,3.0562,3.0517,3.0575,3.0592,3.0697,3.1545,3.165,3.1484,3.2269,3.2333,3.2091,3.2091,3.1817,3.1477,3.1164,2.9619,2.7768,2.6945,2.5029,2.3067,2.2166,1.999,1.7687,1.6629,1.5018,1.3528,1.2519,1.1539,1.0858,1.0783,1.004,0.8993,0.8008,0.7859,0.748,0.649,0.6338,0.6721,0.7629,0.8618,0.9593,1.0634,1.0708,1.0783,1.0783,1.0783,1.0783,1.0783,1.1694,1.2224,1.2224,1.2224,1.1842,1.0858,1.1768,1.1323,0.9372,0.9372,0.9372,0.9372,0.9301,0.877,1.0469,0.0,0.0,0.0,0.0,0.0,0.0,0.0,0.0,0.0,0.0,0.0,0.0,0.0,0.0,0.0,0.0,0.0,0.0,2.6043,2.6043,2.6024,2.6582,2.6967,2.6967,2.7525,2.7986,0.0,2.8107,2.8122,2.8352,2.8925,2.959,3.0379,3.0398,3.0398,3.0417,3.0417,3.0448,3.0467,3.0467,3.0487,3.0525,3.0527,3.0569,3.0623,3.0559,3.053,3.053,3.0586,3.0581,3.0576,3.0644,3.0605,3.0564,3.0901,3.091,3.0788,3.1069,3.1367,3.1651,3.1613,3.1778,3.1845,3.0991,3.0197,2.9187,2.7415,2.57,2.3879,2.1369,2.0426,1.9378,1.6476,1.5773,1.5018,1.2792,1.2077,1.1694,1.0932,1.0559,1.004,0.9069,0.8917,0.8542,0.7557,0.7403,0.7249,0.6795,0.7557,0.8309,0.8609,0.9291,1.004,1.0708,1.0783,1.0783,1.0783,1.1087,1.1236,1.1236,1.1236,1.1465,1.1848,1.215,1.2003,1.1477,1.0714,1.0415,1.034,0.9669,0.8389,0.0,0.0,0.0,0.0,0.0,0.0,0.0,1.6849,0.0,0.0,0.0,0.0,0.0,0.0,0.0,0.0,0.0,0.0,0.0,0.0,0.0,2.5303,2.5755,2.6063,2.6063,2.6433,2.6853,2.7206,2.7052,2.7091,2.7452,2.7923,2.8613,2.9574,2.9612,2.9765,3.0095,3.0182,3.0182,3.0114,3.0182,3.0241,3.0279,3.0279,3.0394,3.0544,3.0487,3.0467,3.0506,3.0506,3.0528,3.0552,3.0625,3.0604,3.0546,3.0624,3.0582,3.0503,3.0544,3.0788,3.1086,3.1047,3.1256,3.139,3.0659,3.0219,2.9563,2.7676,2.5751,2.3722,2.1654,2.0685,1.9553,1.7096,1.606,1.5083,1.3028,1.243,1.215,1.1539,1.1465,1.1093,1.0121,0.9895,0.9593,0.8542,0.8389,0.8237,0.7633,0.8084,0.8389,0.8389,0.8917,0.9523,1.0115,1.0565,1.0783,1.0783,1.1168,1.1465,1.1465,1.1465,1.1465,1.1694,1.2077,1.2077,1.1694,1.1539,1.1236,1.0783,0.9367,0.8008,0.0,0.0,0.0,0.0,0.0,0.0,1.6356,1.6061,1.5734,0.0,0.0,0.0,0.0,0.0,0.0,0.0,0.0,0.0,0.0,0.0,0.0,0.0,2.5303,2.5284,2.5264,2.5099,2.5323,2.6092,2.5953,2.6223,2.7069,2.7126,2.75,2.8331,2.8369,2.8749,2.9563,2.9725,2.9782,2.9713,2.9877,2.9969,2.9969,2.9969,3.0142,3.0432,3.0362,3.0362,3.0432,3.0362,3.0393,3.0506,3.0564,3.0579,3.0574,3.0586,3.0557,3.0507,3.0507,3.0517,3.0509,3.0498,3.0542,3.0557,3.0323,2.996,2.9341,2.7802,2.555,2.3412,2.2752,2.0983,1.9073,1.8044,1.6222,1.4492,1.3453,1.2849,1.2471,1.2291,1.2298,1.1996,1.0932,1.0864,1.064,0.9599,0.9448,0.9448,0.9301,0.9296,0.9296,0.9296,0.9296,0.9296,0.9296,1.0115,1.0708,1.0783,1.162,1.215,1.2305,1.2305,1.1848,1.1013,1.1842,1.1848,1.0938,1.1768,1.162,1.0559,0.8912,0.8084,0.0,0.0,0.0,0.0,0.0,0.0,1.395,1.3926,1.4497,0.0,0.0,0.0,0.0,0.0,0.0,0.0,0.0,0.0,0.0,0.0,0.0,0.0,0.0,2.5243,2.5057,2.5022,2.5025,2.5102,2.4914,2.5138,2.5957,2.5995,2.6472,2.7497,2.7535,2.7932,2.8747,2.8761,2.9085,2.9696,2.9748,2.9746,2.9746,2.9746,2.9877,3.0095,2.9912,2.9927,3.008,2.9912,3.0071,3.0417,3.0487,3.0483,3.0449,3.0568,3.0552,3.0519,3.0558,3.0588,3.056,3.0517,3.0547,3.0579,3.0468,3.0264,2.9674,2.7707,2.6316,2.5127,2.3943,2.2264,2.0479,1.8794,1.729,1.5845,1.4544,1.4125,1.3683,1.249,1.2278,1.1996,1.0932,1.1465,1.1694,1.064,1.049,1.019,0.9372,0.9296,0.9296,0.9296,0.9296,0.9296,0.9296,0.9448,0.997,1.0783,1.1013,1.1465,1.2305,1.2305,1.2224,1.1996,1.2224,1.2224,1.1996,1.1391,1.0565,0.9593,1.004,0.9814,0.0,0.0,0.0,1.6599,0.0,0.0,0.0,1.4522,1.4382,1.6099,1.542,0.0,0.0,0.0,0.0,0.0,0.0,0.0,0.0,0.0,0.0,0.0,0.0,2.4629,2.4419,2.4696,2.478,2.4528,2.441,2.4542,2.493,2.4949,2.5301,2.6079,2.6265,2.6656,2.7303,2.7568,2.7847,2.8165,2.8259,2.8313,2.8332,2.8708,2.9038,2.9254,2.9576,2.9765,2.9845,2.9729,2.9832,3.0052,3.0207,3.0318,3.0398,3.0487,3.0487,3.0448,3.0487,3.0525,3.054,3.0498,3.0554,3.0594,3.0523,3.0214,2.9653,2.8462,2.723,2.6007,2.5029,2.2977,2.0801,1.9364,1.756,1.5894,1.4815,1.4564,1.3816,1.1605,1.2573,1.3142,1.1156,1.162,1.215,1.162,1.1545,1.1391,1.0875,1.0346,1.004,1.004,0.9593,0.9296,0.9296,0.9744,1.0265,1.0783,1.1236,1.1768,1.2305,1.2305,1.207,1.1545,1.1545,1.1545,1.1545,1.1545,1.1019,1.004,1.004,0.9518,0.0,0.0,0.0,0.0,0.0,1.6503,0.0,0.0,0.0,1.6407,0.0,0.0,0.0,0.0,0.0,0.0,0.0,0.0,0.0,0.0,0.0,0.0,0.0,2.3745,2.3491,2.3766,2.4038,2.4191,2.3768,2.3694,2.4171,2.4151,2.4267,2.4671,2.4881,2.5223,2.5775,2.6268,2.6519,2.6508,2.6725,2.6842,2.686,2.7511,2.7961,2.8228,2.8836,2.9118,2.9172,2.9288,2.9362,2.9416,2.9785,3.0061,3.0273,3.0311,3.0323,3.0323,3.0323,3.0362,3.0388,3.0363,3.0439,3.0516,3.0458,3.0146,2.9748,2.9474,2.8314,2.6987,2.639,2.3803,2.1153,2.0241,1.7938,1.5809,1.5265,1.4707,1.3522,1.0883,1.2813,1.3833,1.0765,1.1539,1.2445,1.207,1.215,1.2305,1.2305,1.162,1.1087,1.1087,1.0346,0.9825,0.9599,1.034,1.0783,1.0783,1.1545,1.2077,1.2298,1.2305,1.1848,1.0783,1.0783,1.0708,1.049,1.1323,1.1391,1.0783,0.997,0.9069,0.0,0.0,0.0,0.0,1.9888,0.0,0.0,0.0,1.5657,1.3662,0.0,0.0,0.0,0.0,0.0,0.0,0.0,0.0,0.0,0.0,0.0,0.0,0.0,2.2736,2.2239,2.1479,2.1874,2.4025,2.2171,2.1896,2.408,2.3917,2.3789,2.3819,2.3562,2.3839,2.4597,2.4946,2.5484,2.6168,2.6472,2.6636,2.6636,2.6728,2.6873,2.7083,2.6984,2.706,2.7252,2.7798,2.8116,2.8372,2.9359,2.9765,2.9799,2.9969,3.0061,3.0061,3.0061,3.0061,3.0032,2.9848,2.9994,3.0232,3.0242,3.0356,3.0431,3.0152,2.9551,2.8918,2.8596,2.5564,2.2562,2.245,1.9346,1.6498,1.6853,1.5241,1.3235,1.1673,1.2606,1.2459,0.8793,1.1143,1.2938,1.1236,1.1694,1.2305,1.2305,1.2224,1.215,1.215,1.2003,1.162,1.0714,1.0708,1.0783,1.0783,1.0938,1.1391,1.2224,1.2305,1.1848,1.0783,1.0783,1.034,0.9448,0.9599,1.0045,1.0783,1.0708,1.0115,0.0,0.0,0.0,0.0,0.0,0.0,1.6715,0.0,1.5715,0.0,0.0,0.0,0.0,0.0,0.0,0.0,1.4472,0.0,0.0,0.0,0.0,0.0,0.0,0.0,2.1195,2.0384,2.0629,2.2648,2.1224,2.1134,2.3115,2.3354,2.3323,2.3117,2.3165,2.3276,2.3395,2.375,2.4185,2.4707,2.4835,2.502,2.5217,2.5695,2.5959,2.604,2.6415,2.6638,2.674,2.6985,2.7135,2.7315,2.8233,2.9045,2.9713,2.9796,2.9829,2.9829,2.9829,2.9829,2.9813,2.9731,2.9794,2.9937,3.0147,3.0275,3.0314,3.0038,2.9932,2.9672,2.8827,2.6813,2.4625,2.3132,2.0738,1.8555,1.7656,1.6512,1.5038,1.2821,1.3739,1.3262,0.8388,1.0954,1.3004,1.1081,1.1162,1.162,1.2224,1.1774,1.162,1.2224,1.2305,1.215,1.1694,1.1694,1.1694,1.1694,1.1694,1.1848,1.2298,1.1768,1.1242,1.0783,1.0783,1.0559,1.019,1.0795,1.0651,0.9895,0.9895,0.9367,2.1216,0.0,0.0,0.0,0.0,0.0,0.0,0.0,0.0,0.0,0.0,0.0,0.0,0.0,0.0,0.0,0.0,1.4049,0.0,0.0,0.0,0.0,0.0,0.0,0.0,1.8828,1.8941,2.1272,0.0,1.9867,2.2373,2.2678,2.2744,2.2703,2.2865,2.2832,2.2599,2.2898,2.3189,2.3414,2.3522,2.3692,2.3935,2.4538,2.4793,2.4829,2.5494,2.581,2.5829,2.6151,2.6264,2.6355,2.7163,2.8042,2.8914,2.9438,2.9626,2.9626,2.9626,2.9495,2.9361,2.9457,2.9476,2.9495,2.9725,2.9875,2.9915,2.9713,2.9843,2.987,2.9031,2.7847,2.6342,2.4321,2.2279,2.037,1.8737,1.7129,1.5393,1.3368,1.3834,1.3112,0.8389,1.0749,1.2551,1.0329,1.0703,1.123,1.1471,1.131,1.123,1.1471,1.1694,1.1922,1.1922,1.215,1.2305,1.2305,1.207,1.1996,1.2298,1.162,1.1087,1.0783,1.0783,1.064,1.0415,1.1093,1.0726,0.9296,0.9296,0.8613,0.0,0.0,0.0,1.965,0.0,0.0,0.0,0.0,1.7407,0.0,0.0,0.0,0.0,0.0,1.533,1.3766,1.3428,0.0,0.0,0.0,0.0,0.0,0.0,0.0,0.0,1.6164,1.6285,0.0,1.7379,1.7527,2.2265,2.196,2.1975,2.2678,2.2463,2.2321,2.2293,2.259,2.2721,2.2746,2.3069,2.3212,2.3212,2.3271,2.3271,2.3271,2.3638,2.3786,2.388,2.497,2.5439,2.5531,2.6319,2.6649,2.6933,2.8736,2.9412,2.9412,2.9412,2.8975,2.8522,2.8887,2.8929,2.8819,2.8842,2.9068,2.9344,2.9314,2.938,2.9492,2.9784,2.8718,2.7387,2.665,2.3928,2.1299,2.0565,1.6449,1.2962,1.3,1.2082,1.0625,0.8718,1.0485,1.1267,0.8304,1.0306,1.1495,0.9669,1.0989,1.1428,0.9593,1.0265,1.0864,1.0864,1.1768,1.2305,1.2305,1.1391,1.1316,1.2224,1.2305,1.1768,1.0783,1.0783,1.034,0.9372,0.9372,0.9372,0.9296,0.9296,0.8237,0.0,0.0,2.2851,2.0299,0.0,0.0,0.0,0.0,0.0,0.0,0.0,0.0,0.0,0.0,1.5518,1.4349,1.3227,1.2021,0.0,0.0,0.0,0.0,0.0,0.0,0.0,0.0,0.0,0.0,1.6594,0.0,2.023,2.0994,2.1455,2.1685,2.2078,2.231,2.231,2.2388,2.251,2.2695,2.2822,2.2996,2.3189,2.3189,2.3189,2.3212,2.3323,2.3369,2.341,2.4024,2.4133,2.4055,2.5314,2.5664,2.5645,2.7022,2.7883,2.8396,2.8649,2.8453,2.8075,2.8228,2.8219,2.8236,2.8359,2.8476,2.8562,2.8566,2.8951,2.932,2.9251,2.9029,2.8523,2.7518,2.5837,2.3998,2.2262,1.9371,1.6787,1.5515,1.4319,1.2693,1.0317,1.0779,1.1018,0.9699,1.0518,1.1075,1.0415,1.026,1.0034,0.9372,0.9593,0.982,0.982,1.0121,1.0276,1.0276,0.997,0.997,1.0276,1.0944,1.0864,0.982,1.1093,1.1316,1.0265,1.0944,1.0944,1.0265,1.0265,0.9593,2.3076,2.3366,0.0,2.0933,2.035,0.0,1.7355,0.0,0.0,0.0,0.0,0.0,0.0,0.0,1.6372,1.5129,1.3581,1.204,0.0,1.048,0.0,0.0,0.0,0.0,0.0,0.0,1.4045,1.6059,1.5609,0.0,0.0,2.0123,2.0889,2.1204,2.1921,2.231,2.231,2.231,2.2388,2.2563,2.2563,2.2652,2.2883,2.2883,2.2883,2.2883,2.2972,2.3021,2.3045,2.3392,2.3392,2.3289,2.4252,2.449,2.4487,2.6045,2.7024,2.7619,2.7774,2.7761,2.7707,2.7869,2.7794,2.7718,2.784,2.7887,2.7887,2.7887,2.8314,2.8773,2.8883,2.9041,2.9022,2.8388,2.73,2.5802,2.3659,2.1377,1.9135,1.717,1.5518,1.3925,1.2201,1.1913,1.1438,0.993,1.039,1.0749,1.0188,1.0125,0.9936,0.9362,0.9296,0.9296,0.9296,0.9296,0.9266,0.926,0.8876,0.8767,0.9132,0.971,0.9778,0.9127,1.0373,1.0731,1.007,1.0731,1.0931,1.0728,1.0728,1.0633]},{"header":{"parameterUnit":"m.s-1","parameterCategory":1,"la1":30.6,"la2":29.2853,"lo1":-89.7004,"lo2":-87.6739,"dy":0.0162,"dx":0.0183,"nx":112,"ny":82,"refTime":"2024-09-13T00:00:00:Z","depth":0,"parameterNumber":3,"parameterNumberName":"V-component_of_WINDS"},"data":[0.0,0.0,0.0,0.0,0.0,0.0,0.0,0.0,0.0,0.0,0.0,0.0,0.0,0.0,0.0,0.0,0.0,0.0,0.0,0.0,0.0,0.0,0.0,0.0,0.0,0.0,0.0,0.0,0.0,0.0,0.0,0.0,0.0,0.0,0.0,0.0,0.0,0.0,0.0,0.0,0.0,0.0,0.0,0.0,0.0,0.0,0.0,0.0,0.0,0.0,0.0,0.0,0.0,0.0,0.0,0.0,0.0,0.0,0.0,0.0,0.0,0.0,0.0,0.0,0.0,0.0,0.0,0.0,0.0,0.0,0.0,0.0,0.0,0.0,0.0,0.0,0.0,0.0,0.0,0.0,0.0,0.0,0.0,0.0,0.0,0.0,0.0,0.0,0.0,0.0,0.0,2.2699,2.5879,2.8095,2.8755,2.7402,2.505,2.1583,0.0,0.0,0.0,0.0,0.0,0.0,0.0,0.0,0.0,0.0,0.0,0.0,0.0,0.0,0.0,0.0,0.0,0.0,0.0,0.0,0.0,0.0,0.0,0.0,0.0,0.0,0.0,0.0,0.0,0.0,0.0,0.0,0.0,0.0,0.0,0.0,0.0,0.0,0.0,0.0,0.0,0.0,0.0,0.0,0.0,0.0,0.0,0.0,0.0,0.0,0.0,0.0,0.0,0.0,0.0,0.0,0.0,0.0,0.0,0.0,0.0,0.0,0.0,0.0,0.0,0.0,0.0,0.0,0.0,0.0,0.0,0.0,0.0,0.0,0.0,0.0,0.0,0.0,0.0,0.0,0.0,0.0,0.0,0.0,0.0,0.0,0.0,0.0,0.0,0.0,0.0,0.0,0.0,0.0,0.0,0.0,0.0,0.0,0.0,0.0,0.0,0.0,0.0,0.0,2.072,2.5524,2.7097,2.784,2.7958,2.6623,2.4729,2.2293,0.0,0.0,0.0,0.0,0.0,0.0,0.0,0.0,0.0,0.0,0.0,0.0,0.0,0.0,0.0,0.0,0.0,0.0,0.0,0.0,0.0,0.0,0.0,0.0,0.0,0.0,0.0,0.0,0.0,0.0,0.0,0.0,0.0,0.0,0.0,0.0,0.0,0.0,0.0,0.0,0.0,0.0,0.0,0.0,0.0,0.0,0.0,0.0,0.0,0.0,0.0,0.0,0.0,0.0,0.0,0.0,0.0,0.0,0.0,0.0,0.0,0.0,0.0,0.0,0.0,0.0,0.0,0.0,0.0,0.0,0.0,0.0,0.0,0.0,0.0,0.0,0.0,0.0,0.0,0.0,0.0,0.0,0.0,0.0,0.0,0.0,0.0,0.0,0.0,0.0,0.0,0.0,0.0,0.0,0.0,0.0,0.0,0.0,0.0,0.0,0.0,0.0,0.0,1.9908,2.2429,2.6843,2.7621,2.7789,2.7789,2.6454,2.4661,2.2446,1.8724,0.0,0.0,0.0,0.0,0.0,0.0,0.0,0.0,0.0,0.0,0.0,0.0,0.0,0.0,0.0,0.0,0.0,0.0,0.0,0.0,0.0,0.0,0.0,0.0,0.0,0.0,0.0,0.0,0.0,0.0,0.0,0.0,0.0,0.0,0.0,0.0,0.0,0.0,0.0,0.0,0.0,0.0,0.0,0.0,0.0,0.0,0.0,0.0,0.0,0.0,0.0,0.0,0.0,0.0,0.0,0.0,0.0,0.0,0.0,0.0,0.0,0.0,0.0,0.0,0.0,0.0,0.0,0.0,0.0,0.0,0.0,0.0,0.0,0.0,0.0,0.0,0.0,0.0,0.0,0.0,0.0,0.0,0.0,0.0,0.0,0.0,0.0,0.0,0.0,0.0,0.0,0.0,0.0,0.0,0.0,0.0,0.0,0.0,0.0,0.0,0.0,0.0,2.2395,2.4036,2.7215,2.7554,2.7554,2.7554,2.5879,2.4036,2.2158,1.7659,0.0,0.0,0.0,0.0,0.0,0.0,0.0,0.0,0.0,0.0,0.0,0.0,0.0,0.0,0.0,0.0,0.0,0.0,0.0,0.0,0.0,0.0,0.0,0.0,0.0,0.0,0.0,0.0,0.0,0.0,0.0,0.0,0.0,0.0,0.0,0.0,0.0,0.0,0.0,0.0,0.0,0.0,0.0,0.0,0.0,0.0,0.0,0.0,0.0,0.0,0.0,0.0,0.0,0.0,0.0,0.0,0.0,0.0,0.0,0.0,0.0,0.0,0.0,0.0,0.0,0.0,0.0,0.0,0.0,0.0,0.0,0.0,0.0,0.0,0.0,0.0,0.0,0.0,0.0,0.0,0.0,0.0,0.0,0.0,0.0,0.0,0.0,0.0,0.0,0.0,0.0,0.0,0.0,0.0,0.0,0.0,0.0,0.0,0.0,0.0,0.0,0.0,2.2615,2.498,2.659,2.6776,2.6776,2.6776,2.4171,2.2175,2.1339,1.6428,0.0,0.0,0.0,0.0,0.0,0.0,0.0,0.0,0.0,0.0,0.0,0.0,0.0,0.0,0.0,0.0,0.0,0.0,0.0,0.0,0.0,0.0,0.0,0.0,0.0,0.0,0.0,0.0,0.0,0.0,0.0,0.0,0.0,0.0,0.0,0.0,0.0,0.0,0.0,0.0,0.0,0.0,0.0,0.0,0.0,0.0,0.0,0.0,0.0,0.0,0.0,0.0,0.0,0.0,0.0,0.0,0.0,0.0,0.0,0.0,0.0,0.0,0.0,0.0,0.0,0.0,0.0,0.0,0.0,0.0,0.0,0.0,0.0,0.0,0.0,0.0,0.0,0.0,0.0,0.0,0.0,0.0,0.0,0.0,0.0,0.0,0.0,0.0,0.0,0.0,0.0,0.0,0.0,0.0,0.0,0.0,0.0,0.0,0.0,0.0,0.0,0.0,2.1837,2.4052,0.0,2.6691,2.6691,2.6691,2.4831,2.2953,2.1305,0.0,0.0,0.0,0.0,0.0,0.0,0.0,0.0,0.0,0.0,0.0,0.0,0.0,0.0,0.0,0.0,0.0,0.0,0.0,0.0,0.0,0.0,0.0,0.0,0.0,0.0,0.0,0.0,0.0,0.0,0.0,0.0,0.0,0.0,0.0,0.0,0.0,0.0,0.0,0.0,0.0,0.0,0.0,0.0,0.0,0.0,0.0,0.0,0.0,0.0,0.0,0.0,0.0,0.0,0.0,0.0,0.0,0.0,0.0,0.0,0.0,0.0,0.0,0.0,0.0,0.0,0.0,0.0,0.0,0.0,0.0,0.0,0.0,0.0,0.0,0.0,0.0,0.0,0.0,0.0,0.0,0.0,0.0,0.0,0.0,0.0,0.0,0.0,0.0,0.0,0.0,0.0,0.0,0.0,0.0,0.0,0.0,0.0,0.0,0.0,0.0,0.0,1.9478,2.1752,2.3951,0.0,2.6691,2.6691,2.6691,2.4915,2.2936,2.094,0.0,0.0,0.0,0.0,0.0,0.0,0.0,0.0,0.0,0.0,0.0,0.0,0.0,0.0,0.0,0.0,0.0,0.0,0.0,0.0,0.0,0.0,0.0,0.0,0.0,0.0,0.0,0.0,0.0,0.0,0.0,0.0,0.0,0.0,0.0,0.0,0.0,0.0,0.0,0.0,0.0,0.0,0.0,0.0,0.0,0.0,0.0,0.0,0.0,0.0,0.0,0.0,0.0,0.0,0.0,0.0,0.0,0.0,0.0,0.0,0.0,0.0,0.0,0.0,0.0,0.0,0.0,0.0,0.0,0.0,0.0,0.0,0.0,0.0,0.0,0.0,0.0,0.0,0.0,0.0,0.0,0.0,0.0,0.0,0.0,0.0,0.0,0.0,0.0,0.0,0.0,0.0,0.0,0.0,0.0,0.0,0.0,0.0,0.0,0.0,0.0,0.0,1.9613,2.2632,2.5082,2.6539,2.6691,2.6691,2.6674,2.4019,2.164,0.0,0.0,0.0,0.0,0.0,0.0,0.0,0.0,0.0,0.0,0.0,0.0,0.0,0.0,0.0,0.0,0.0,0.0,0.0,0.0,0.0,0.0,0.0,0.0,0.0,0.0,0.0,0.0,0.0,0.0,0.0,0.0,0.0,0.0,0.0,0.0,0.0,0.0,0.0,0.0,0.0,0.0,0.0,0.0,0.0,0.0,0.0,0.0,0.0,0.0,0.0,0.0,0.0,0.0,0.0,0.0,0.0,0.0,0.0,0.0,0.0,0.0,0.0,0.0,0.0,0.0,0.0,0.0,0.0,0.0,0.0,0.0,0.0,0.0,0.0,0.0,0.0,0.0,0.0,0.0,0.0,0.0,0.0,0.0,0.0,0.0,0.0,0.0,0.0,0.0,0.0,0.0,0.0,0.0,0.0,0.0,0.0,0.0,0.0,0.0,0.0,0.0,0.0,1.9613,2.2632,2.5082,2.6539,2.6691,2.6488,2.5981,2.4644,2.253,1.9418,0.0,0.0,0.0,0.0,0.0,0.0,0.0,0.0,0.0,0.0,0.0,0.0,0.0,0.0,0.0,0.0,0.0,0.0,0.0,0.0,0.0,0.0,0.0,0.0,0.0,0.0,0.0,0.0,0.0,0.0,0.0,0.0,0.0,0.0,0.0,0.0,0.0,0.0,0.0,0.0,0.0,0.0,0.0,0.0,0.0,0.0,0.0,0.0,0.0,0.0,0.0,0.0,0.0,0.0,0.0,0.0,0.0,0.0,0.0,0.0,0.0,0.0,0.0,0.0,0.0,0.0,0.0,0.0,0.0,0.0,0.0,0.0,0.0,0.0,0.0,0.0,0.0,0.0,0.0,0.0,0.0,0.0,0.0,0.0,0.0,0.0,0.0,0.0,0.0,0.0,0.0,0.0,0.0,0.0,0.0,0.0,0.0,0.0,0.0,0.0,0.0,0.0,2.0061,2.2818,2.5082,2.6539,2.6691,2.6522,2.6082,2.5084,2.3168,2.001,0.0,0.0,0.0,0.0,0.0,0.0,0.0,0.0,0.0,0.0,0.0,0.0,0.0,0.0,0.0,0.0,0.0,0.0,0.0,0.0,0.0,0.0,0.0,0.0,0.0,0.0,0.0,0.0,0.0,0.0,0.0,0.0,0.0,0.0,0.0,0.0,0.0,0.0,0.0,0.0,0.0,0.0,0.0,0.0,0.0,0.0,0.0,0.0,0.0,0.0,0.0,0.0,0.0,0.0,0.0,0.0,0.0,0.0,0.0,0.0,0.0,0.0,0.0,0.0,0.0,0.0,0.0,0.0,0.0,0.0,0.0,0.0,0.0,0.0,0.0,0.0,0.0,0.0,0.0,0.0,0.0,0.0,0.0,0.0,0.0,0.0,0.0,0.0,0.0,0.0,0.0,0.0,0.0,0.0,0.0,0.0,0.0,0.0,0.0,0.0,0.0,0.0,2.0729,2.3134,2.5082,2.6539,2.6691,2.6657,2.659,2.5304,2.3575,2.1356,0.0,0.0,0.0,0.0,0.0,0.0,0.0,0.0,0.0,0.0,0.0,0.0,0.0,0.0,0.0,0.0,0.0,0.0,0.0,0.0,0.0,0.0,0.0,0.0,0.0,0.0,0.0,0.0,0.0,0.0,0.0,0.0,0.0,0.0,0.0,0.0,0.0,0.0,0.0,0.0,0.0,0.0,0.0,0.0,0.0,0.0,0.0,0.0,0.0,0.0,0.0,0.0,0.0,0.0,0.0,0.0,0.0,0.0,0.0,0.0,1.2129,0.0,0.0,0.0,0.0,0.0,0.0,0.0,0.0,0.0,0.0,0.0,0.0,0.0,0.0,0.0,0.0,0.0,0.0,0.0,0.0,0.0,0.0,0.0,0.0,0.0,0.0,0.0,0.0,0.0,0.0,0.0,0.0,0.0,0.0,0.0,0.0,0.0,0.0,0.0,0.0,0.0,2.0729,2.3134,2.5082,2.6539,2.6691,2.6471,2.5879,2.5,2.3575,2.1356,1.8775,0.0,0.0,0.0,0.0,0.0,0.0,0.0,0.0,0.0,0.0,0.0,0.0,0.0,0.0,0.0,0.0,0.0,0.0,0.0,0.0,0.0,0.0,0.0,0.0,0.0,0.0,0.0,0.0,0.0,0.0,0.0,0.0,0.0,0.0,0.0,0.0,0.0,0.0,0.0,0.0,0.0,0.0,0.0,0.0,0.0,0.0,0.0,0.0,0.0,0.0,0.0,0.0,0.0,0.0,0.0,0.0,0.0,0.0,0.0,0.0,1.4215,0.0,0.0,0.0,0.0,0.0,0.0,0.0,0.0,0.0,0.0,0.0,0.0,0.0,0.0,0.0,0.0,0.0,0.0,0.0,0.0,0.0,0.0,0.0,0.0,0.0,0.0,0.0,0.0,0.0,0.0,0.0,0.0,0.0,0.0,0.0,0.0,0.0,0.0,0.0,0.0,2.1718,2.3575,2.5082,2.6539,2.6691,2.6539,2.6167,2.5118,2.3879,2.2344,1.979,0.0,0.0,0.0,0.0,0.0,0.0,0.0,0.0,0.0,0.0,0.0,0.0,0.0,0.0,0.0,0.0,0.0,0.0,0.0,0.0,0.0,0.0,0.0,0.0,0.0,0.0,0.0,0.0,0.0,0.0,0.0,0.0,0.0,0.0,0.0,0.0,0.0,0.0,0.0,0.0,0.0,0.0,0.0,0.0,0.0,0.0,0.0,0.0,0.0,0.0,0.0,0.0,0.0,1.7089,1.7753,1.9701,1.936,1.998,2.1167,1.9,1.821,1.8309,1.7093,0.0,0.0,0.0,0.0,0.0,0.0,0.0,0.0,0.0,0.0,0.0,0.0,0.0,0.0,0.0,0.0,0.0,0.0,0.0,0.0,0.0,0.0,0.0,0.0,2.3088,2.275,1.8302,0.0,0.0,0.0,0.0,0.0,0.0,0.0,0.0,0.0,0.0,0.0,2.2852,2.4154,2.5203,2.6556,2.6691,2.6691,2.6691,2.5456,2.4374,2.363,2.1008,1.9164,0.0,0.0,0.0,0.0,0.0,0.0,0.0,0.0,0.0,0.0,0.0,0.0,0.0,0.0,0.0,0.0,0.0,0.0,0.0,0.0,0.0,0.0,0.0,0.0,0.0,0.0,0.0,0.0,0.0,0.0,0.0,0.0,0.941,1.1065,0.0,0.0,0.0,0.0,0.0,0.0,0.0,0.0,0.0,0.0,0.0,0.0,0.0,1.6983,1.9015,1.9063,1.9512,2.0343,2.0604,2.0696,2.0601,2.1616,2.2504,2.3266,2.3524,0.0,2.0388,1.9089,0.0,0.0,0.0,0.0,0.0,0.0,0.0,0.0,0.0,0.0,0.0,0.0,0.0,0.0,0.0,0.0,0.0,0.0,0.0,0.0,0.0,0.0,2.5828,2.5947,2.6116,2.5896,0.0,2.1295,1.8335,1.7405,1.6272,0.0,0.0,0.0,0.0,0.0,0.0,0.0,2.2987,2.4611,2.5778,2.6607,2.6691,2.6691,2.6691,2.593,2.5135,2.4421,2.2784,2.1515,2.0771,1.8657,0.0,0.0,0.0,0.0,0.0,0.0,0.0,0.0,0.0,0.0,0.0,0.0,0.0,0.0,0.0,0.0,0.0,0.0,0.0,0.0,0.0,0.0,0.0,0.0,0.0,0.0,0.0,0.0,0.0,0.9663,1.0975,1.2797,1.2457,1.1952,0.0,0.0,0.0,0.0,0.0,0.0,0.0,0.0,0.0,1.7174,1.8267,1.9353,2.0358,2.1043,2.1852,2.2827,2.3446,2.3966,2.441,2.5397,2.602,2.6307,2.6732,2.6037,2.4486,2.2418,2.1124,2.0378,0.0,0.0,0.0,0.0,1.9441,1.9831,2.0789,2.1132,2.0998,2.0213,0.0,0.0,0.0,0.0,0.0,0.0,0.0,0.0,0.0,0.0,2.7435,2.7875,2.7977,2.7892,2.7571,2.5609,2.3207,0.0,2.0145,1.908,1.6221,0.0,0.0,0.0,0.0,2.1262,2.4255,2.5203,2.5879,2.6623,2.6691,2.6691,2.6691,2.6031,2.5287,2.4557,2.3494,2.2581,2.1854,2.045,1.9147,0.0,0.0,0.0,0.0,0.0,0.0,0.0,0.0,0.0,0.0,0.0,0.0,0.0,0.0,0.0,0.0,0.0,0.0,0.0,0.0,0.0,0.0,0.0,0.0,0.0,0.0,0.0,0.0,1.1288,1.2614,1.4298,1.4449,1.4244,0.0,0.0,0.0,0.0,0.0,0.0,1.7061,1.7965,1.8869,1.9836,2.0941,2.1693,2.2031,2.2988,2.407,2.5141,2.5699,2.6453,2.7329,2.804,2.8396,2.8438,2.869,2.8562,2.7874,2.5211,2.3744,2.3116,2.2443,2.2188,2.2248,2.2742,2.3026,2.331,2.4298,2.4582,2.4403,2.331,2.2836,2.2203,1.9693,0.0,0.0,0.0,0.0,2.4448,2.663,2.7799,2.8602,2.9364,2.955,2.9499,2.9313,2.8805,2.7469,0.0,2.3849,2.2835,1.9307,0.0,0.0,0.0,0.0,2.2902,2.5304,2.5761,2.6099,2.664,2.6691,2.6691,2.6691,2.6201,2.549,2.4574,2.3968,2.3274,2.2344,2.1769,2.0839,1.9502,0.0,0.0,0.0,0.0,0.0,0.0,0.0,0.0,0.0,0.0,0.0,0.0,0.0,0.0,0.0,0.0,0.0,0.0,0.0,0.0,0.0,0.0,0.0,0.0,0.0,0.0,0.0,0.0,0.0,1.5393,1.5978,0.0,0.0,0.0,0.0,1.6346,1.735,1.8229,1.882,2.0413,2.1543,2.2133,2.3238,2.4415,2.5621,2.581,2.6277,2.7051,2.7128,2.7273,2.7329,2.804,2.8396,2.8452,2.9233,2.9505,2.9265,2.6617,2.5121,2.4462,2.3774,2.3505,2.3505,2.3535,2.3969,2.4492,2.4567,2.4582,2.4761,2.5974,2.5864,2.5284,2.5113,2.4878,0.0,0.0,2.7183,2.7924,2.9495,2.9918,3.0176,3.0903,3.1089,3.0903,3.0209,3.0023,2.9516,0.0,2.6437,2.5203,2.4286,0.0,2.3173,2.3173,2.3833,2.4628,2.549,2.6201,2.6657,2.6691,2.6691,2.6691,2.6691,2.6657,2.6015,2.4608,2.4472,2.3799,2.2361,2.2276,2.187,2.1102,1.9104,0.0,0.0,0.0,0.0,0.0,0.0,0.0,0.0,0.0,0.0,0.0,0.0,0.0,0.0,0.0,0.0,0.0,0.0,0.0,0.0,0.0,0.0,0.0,0.0,0.0,0.0,0.0,0.0,1.6822,1.7398,0.0,1.8007,1.8373,1.8932,1.966,2.0087,2.0878,2.2159,2.2786,2.3351,2.3904,2.4318,2.5026,2.5994,2.6546,2.7446,2.8594,2.9131,2.9594,3.0017,3.0263,3.0378,3.0364,3.0246,3.0178,3.0073,2.8727,2.8023,2.7784,2.7545,2.7455,2.7455,2.7455,2.7604,2.7754,2.7335,2.7186,2.7126,2.6722,2.6412,2.615,2.615,2.6338,2.6879,2.8168,2.8644,2.9087,3.0454,3.0818,3.0869,3.114,3.119,3.1123,3.0869,3.0818,3.0649,3.0091,2.8789,2.7385,2.6116,2.6099,2.6082,2.5592,2.615,2.6725,2.6962,2.7266,2.7232,2.6742,2.6691,2.6691,2.6691,2.6251,2.5558,2.4574,2.4036,2.3342,2.2344,2.231,2.2192,2.1904,2.0433,1.8569,0.0,0.0,0.0,0.0,0.0,0.0,0.0,0.0,0.0,0.0,0.0,0.0,0.0,0.0,0.0,0.0,0.0,0.0,0.0,0.0,0.0,0.0,0.0,0.0,0.0,0.0,1.5979,1.763,1.8899,1.9776,2.004,2.0769,2.1531,2.2284,2.251,2.31,2.4217,2.4443,2.4707,2.5071,2.5272,2.5806,2.6651,2.7448,2.8432,2.9724,3.048,3.1091,3.1482,3.1482,3.1482,3.1452,3.1046,3.0851,3.0821,3.0417,3.0238,3.0193,2.9759,2.9579,2.9579,2.9579,2.9579,2.952,2.9086,2.8936,2.8742,2.7634,2.737,2.7518,2.7509,2.7912,2.86,2.9656,2.9926,3.0139,3.0977,3.119,3.119,3.119,3.119,3.119,3.119,3.119,3.119,3.119,3.0192,2.9042,2.801,2.8044,2.8044,2.7537,2.7892,2.8213,2.8213,2.7977,2.7621,2.7131,2.6843,2.6691,2.6691,2.6031,2.5334,2.4692,2.3888,2.3112,2.246,2.2349,2.231,2.231,2.1103,1.9543,1.7568,0.0,0.0,0.0,0.0,0.0,0.0,0.0,0.0,0.0,0.0,0.0,0.0,0.0,0.0,0.0,0.0,0.0,0.0,0.0,0.0,0.0,0.0,0.0,1.3495,1.6093,1.7851,1.7776,2.0442,2.1882,2.0834,2.2761,2.4029,2.4054,2.4544,2.4858,2.487,2.5347,2.5624,2.5624,2.6231,2.6905,2.7736,2.862,2.9504,3.0329,3.1146,3.1482,3.1482,3.1482,3.1482,3.1482,3.1482,3.1482,3.1482,3.1482,3.1482,3.1347,3.0133,2.9639,2.9639,2.9639,2.9624,2.9609,2.9609,2.9594,2.9475,2.8831,2.9042,2.9524,2.9496,2.9913,3.0501,3.1083,3.1241,3.1224,3.1224,3.1207,3.119,3.119,3.119,3.119,3.119,3.119,3.119,3.119,3.0632,3.0142,3.0142,2.9533,2.9079,2.9079,2.9079,0.0,2.9062,2.8384,2.7875,2.7789,2.7165,2.6725,2.6725,2.603,2.5442,2.5029,2.3984,2.3159,2.2704,2.2453,2.2338,2.2349,2.1128,2.0144,1.9381,0.0,0.0,0.0,0.0,0.0,0.0,0.0,0.0,0.0,0.0,0.0,0.0,0.0,0.0,0.0,0.0,0.0,0.0,0.0,0.0,0.0,1.3481,1.4945,1.5789,1.7445,1.9141,2.0627,2.2193,2.3271,2.3591,2.4191,2.4757,2.5121,2.5297,2.5561,2.5988,2.6138,2.6226,2.6226,2.695,2.7802,2.862,2.9504,3.0329,3.1161,3.1409,3.1482,3.1482,3.1482,3.1482,3.1482,3.1482,3.1482,3.1482,3.1482,3.1482,3.1437,3.1135,3.1001,3.1001,3.1001,3.0687,3.0253,3.0253,2.9968,2.9549,2.937,3.0074,3.0974,3.0911,3.1663,3.2572,3.2756,3.2408,3.1985,3.1985,3.1596,3.119,3.119,3.119,3.119,3.119,3.119,3.119,3.119,3.1038,3.0903,3.0903,3.0717,3.0679,3.0984,3.102,0.0,3.0282,3.0023,2.935,2.7961,2.7638,2.742,2.7166,2.5928,2.5143,2.5079,2.3688,2.276,2.2415,2.2527,2.2832,2.3312,2.1706,2.0938,0.0,0.0,0.0,0.0,0.0,0.0,0.0,0.0,0.0,0.0,0.0,0.0,0.0,0.0,0.0,0.0,0.0,0.0,0.0,0.0,0.0,0.0,1.5186,1.6678,1.7905,1.9109,2.0571,2.2396,2.3651,2.4583,2.5081,2.536,2.5636,2.5937,2.5963,2.6101,2.6508,2.6533,2.6533,2.6533,2.7297,2.8117,2.9002,2.9889,3.0703,3.1482,3.1482,3.1482,3.1482,3.1482,3.1482,3.1482,3.1482,3.1482,3.1482,3.1482,3.1482,0.0,0.0,0.0,0.0,0.0,3.1285,3.0941,3.0941,3.0702,3.0357,3.0058,3.0714,3.1541,3.1518,3.2191,3.3074,3.3322,3.3085,3.2747,3.2747,3.2205,3.1647,3.1647,3.141,3.119,3.119,3.119,3.119,3.119,3.119,0.0,3.119,3.1351,3.1545,3.1752,3.1968,3.1934,3.1514,3.1164,3.0417,2.8969,2.8522,2.8117,2.76,2.6457,0.0,0.0,0.0,2.348,2.2976,2.3267,0.0,0.0,0.0,0.0,0.0,0.0,0.0,0.0,2.3161,2.3637,0.0,0.0,0.0,0.0,0.0,0.0,0.0,0.0,0.0,0.0,0.0,0.0,0.0,0.0,0.0,0.0,1.6992,1.8198,1.9806,2.0992,2.2126,2.3404,2.4816,2.5686,2.5686,2.6163,2.6533,2.6533,2.6533,2.6533,2.6533,0.0,0.0,0.0,0.0,2.8368,2.9196,3.015,3.0997,3.1764,3.1764,3.1719,3.1586,3.1586,3.1541,3.1482,3.1482,3.1482,3.1482,3.1482,3.1482,3.1482,3.1482,3.1482,3.1482,3.1482,3.1482,3.1482,3.1482,0.0,0.0,3.0919,3.1258,3.1826,3.1853,3.2343,3.2984,3.3515,3.3592,3.3525,3.3525,3.2983,3.2391,3.2347,3.1782,3.1292,3.1207,3.119,3.119,3.119,3.119,3.119,3.119,3.1528,3.1825,3.1861,3.2282,3.2583,3.2583,3.2012,3.1284,3.0411,0.0,0.0,2.8177,2.7325,2.6819,2.6737,2.5694,2.4795,2.4118,2.4416,2.4796,2.5217,2.5927,2.6863,2.8062,2.8796,2.9214,2.9324,2.6374,2.6484,0.0,0.0,0.0,0.0,0.0,0.0,0.0,0.0,0.0,0.0,0.0,0.0,0.0,0.0,0.0,1.6943,1.8135,1.9441,2.0876,2.2269,2.3345,2.3975,2.5382,2.6302,2.6302,2.6458,2.6533,2.6533,2.6533,2.6533,2.6533,2.6533,2.6666,2.7105,2.8692,2.9824,3.0452,3.2048,3.2974,3.311,0.0,0.0,3.2332,3.2332,3.2033,3.1482,3.1482,3.1482,3.1482,3.1482,3.1482,3.1482,3.1482,3.1482,3.1482,3.1482,3.1482,3.1482,3.1482,3.1482,3.1567,3.2063,3.2692,3.3307,3.386,3.4479,0.0,3.5138,3.4759,3.4286,3.4286,3.3744,3.3034,3.2425,3.2171,3.1901,3.1326,3.119,3.119,3.119,3.119,3.119,3.119,3.1528,3.1915,3.2316,3.2745,3.3075,3.3075,3.2949,3.2414,3.1302,3.0477,2.9799,2.9305,2.7939,2.7028,2.6792,2.5705,2.5143,2.5191,2.5564,2.6222,2.7204,2.7391,2.8219,2.9751,2.9898,3.065,3.1854,3.0595,2.9989,0.0,0.0,0.0,0.0,0.0,0.0,0.0,0.0,0.0,0.0,0.0,1.4219,1.5518,0.0,1.7393,1.8477,1.9189,1.9895,2.0838,2.204,2.3205,2.4437,2.5714,2.6533,2.6533,2.6533,2.6533,2.6533,2.6716,2.6866,2.6866,2.713,2.7406,2.7682,2.9496,3.056,3.0798,3.2616,3.3499,3.3499,3.3499,3.332,3.3006,3.3006,3.2826,3.2497,3.2168,3.2018,3.2003,3.1616,3.1482,3.1482,3.1482,3.1739,3.2064,3.2064,3.2256,3.2555,3.2555,3.2555,3.261,3.2986,3.3531,3.4186,3.4479,3.5052,3.5622,3.5622,3.5351,3.5064,3.5064,3.4506,3.3863,3.3474,3.3119,3.2645,3.1901,3.1732,3.1693,3.1555,3.1507,3.1565,3.1823,3.2213,3.25,3.2517,3.3057,3.3494,3.3494,3.3494,3.3128,3.2094,3.1632,3.1156,3.0545,2.9192,2.8162,2.7629,2.7077,2.6801,2.6959,2.7725,2.8419,2.8998,2.9402,3.0191,3.1403,3.1403,3.2027,3.3201,3.3201,3.2999,0.0,0.0,0.0,0.0,0.0,0.0,0.0,0.0,1.3437,1.5078,1.5742,1.6465,1.7871,1.8271,1.8711,1.9746,1.999,2.0166,2.0518,2.1451,2.2627,2.4192,2.5511,2.6233,2.6233,2.6383,2.6571,2.6684,2.703,2.7331,2.7444,2.7871,2.816,2.826,3.003,3.1033,3.1157,3.2995,3.3888,3.3888,3.3888,3.3814,3.3679,3.3679,3.3619,3.3469,3.2931,3.2706,3.2662,3.2138,3.1839,3.1661,3.1661,3.2114,3.2788,3.2641,3.3039,3.3582,3.3582,3.3582,3.3633,3.3735,3.4186,3.4624,3.4736,3.5161,3.5622,3.5622,3.5622,3.5622,3.5622,3.5165,3.4675,3.4523,3.4049,3.3372,3.2476,3.2313,3.2196,3.1871,3.1789,3.1951,3.2417,3.289,3.3075,3.2681,3.3284,3.3807,3.3807,3.3807,3.355,3.2908,3.2706,3.2284,3.1458,3.0464,2.9583,2.8925,2.8889,2.8889,2.8889,2.9874,3.0503,3.0668,3.1292,3.2027,3.2834,3.2834,3.3256,3.4045,3.477,3.511,1.14,1.139,1.1709,1.3192,1.3145,1.3457,0.0,0.0,1.6016,1.7373,1.7978,1.827,1.8525,1.9189,1.9746,1.9893,2.0244,2.0508,2.0557,2.1451,2.2103,2.2328,2.4036,2.5158,2.5158,2.5955,2.6666,2.7155,2.7256,2.7494,2.7996,2.8072,2.8335,2.8825,3.0703,3.1931,3.2386,3.4339,3.528,3.528,3.528,3.4951,3.4367,3.4367,3.4038,3.3499,3.3425,3.338,3.338,3.3305,3.2931,3.2407,3.2407,3.2834,3.3443,3.2841,3.3039,3.3582,3.3582,3.3582,3.3684,3.4284,3.4528,3.4736,3.5316,3.5515,3.5622,3.5622,3.5622,3.5622,3.5622,3.5554,3.5318,3.4658,3.4438,3.3998,3.2577,3.2313,3.2196,3.1871,3.1789,3.1951,3.2417,3.289,3.3184,3.3154,3.3522,3.3807,3.3807,3.3807,3.377,3.3678,3.3036,3.2284,3.1458,3.101,3.0721,3.0631,3.0613,3.0613,3.0613,3.1024,3.1604,3.232,3.243,3.2871,3.3678,3.3678,3.4082,3.489,3.5254,3.5448,1.3232,1.3613,1.4043,0.0,1.5381,1.5947,1.7627,1.7588,1.7559,1.8848,1.9258,1.9453,1.9707,2.0049,2.0293,0.0,2.0449,2.0566,2.0566,2.0934,2.1054,2.0793,2.2761,2.4337,2.4933,2.5873,2.6691,2.7243,2.7582,2.7996,2.8561,2.89,2.9189,2.9428,3.1248,3.2345,3.2593,3.4558,3.5504,3.5504,3.5504,3.5355,3.507,3.507,3.4711,3.4068,3.4068,3.3844,3.3499,3.3499,3.3335,3.308,3.308,3.3537,3.409,3.3446,3.3836,3.4752,3.4752,3.4752,3.48,3.5098,3.5207,3.5253,3.5515,3.5622,3.5622,3.5622,3.5622,3.5622,3.5622,3.5622,3.5537,3.5216,3.5148,3.4742,3.3254,3.2933,3.2723,3.1958,3.2022,3.2366,3.2827,3.3255,3.355,3.355,3.3707,3.3807,3.3807,3.3807,3.3807,3.3807,3.3495,3.2981,3.2173,3.1971,3.1691,3.1217,3.1618,3.1891,3.1891,3.2462,3.2944,3.3293,3.3311,3.3458,3.3807,3.3807,3.43,3.531,3.5926,3.6663,1.4502,0.0,0.0,1.6436,1.7168,1.7871,1.8418,1.8535,1.8828,1.9883,2.0088,2.0195,2.0508,2.0566,2.0566,2.0566,2.0566,2.0566,2.0566,2.0459,2.0312,2.0117,2.202,2.367,2.4469,2.5734,2.6753,2.7457,2.7883,2.8411,2.9126,2.9566,2.9792,2.9792,3.1623,3.2593,3.2593,3.4558,3.5504,3.5504,3.5504,3.5504,3.5504,3.5504,3.5235,3.4756,3.4756,3.4487,3.4053,3.4053,3.4042,3.4091,3.4091,3.4452,3.4836,3.4371,3.4773,3.5622,3.5622,3.5622,3.5622,3.5622,3.5622,3.5622,3.5622,3.5622,3.5622,3.5622,3.5622,3.5622,3.5622,3.5622,3.5622,3.5622,3.5622,3.5267,3.3981,3.3541,3.3165,3.2303,3.2231,3.2517,3.3105,3.3437,3.368,3.3762,3.3807,3.3807,3.3807,3.3807,3.3807,3.3807,3.3807,3.3568,3.2981,3.2944,3.2687,3.21,3.2614,3.2944,3.2944,3.3495,3.3807,3.3807,3.3807,3.3807,3.3807,3.4027,3.4737,3.585,3.6745,3.7898,0.0,0.0,1.6348,1.7627,1.8281,1.8818,1.9668,1.9853,1.999,2.0449,2.0547,2.0547,2.0566,2.0566,2.0566,2.0566,2.0566,2.0566,2.0566,2.0195,2.0088,2.0498,2.1934,2.3082,2.347,2.5346,2.6917,2.7996,2.8097,2.8599,2.9704,2.9779,2.9792,2.9792,3.1623,3.2593,3.2593,3.4558,3.5504,3.5504,3.5504,3.5504,3.5504,3.5504,3.5489,3.5474,3.5474,3.5459,3.5444,3.5444,3.5503,3.5561,3.5561,3.5562,3.5679,3.5646,3.5621,3.5622,3.5622,3.5622,3.5622,3.5622,3.5622,3.5622,3.5622,3.5622,3.5622,3.5622,3.5622,3.5622,3.5622,3.5622,3.5622,3.5622,3.5622,3.5402,3.4624,3.3897,3.3318,3.3011,3.2397,3.2179,3.3045,3.3214,3.3332,3.3734,3.3807,3.3807,3.3807,3.3807,3.3807,3.3807,3.3807,3.3788,3.377,3.3752,3.3752,3.3733,3.3752,3.3752,3.3752,3.3788,3.3807,3.3807,3.3807,3.3807,3.3807,3.4568,3.5559,3.6684,3.7803,3.8963,1.5801,0.0,1.7598,1.8603,1.917,1.9639,2.0215,2.0342,2.0303,2.0166,1.9912,1.9629,1.9336,1.9287,1.9375,1.9668,2.0195,2.0566,2.0566,2.0947,2.0957,2.0215,2.1694,0.0,0.0,0.0,0.0,2.7507,2.7896,2.8436,2.9176,2.9578,2.9792,2.9792,3.1057,3.196,3.2593,3.3891,3.4839,3.5504,3.5504,3.5504,3.5504,3.5504,3.5504,3.5504,3.5504,3.5504,3.5569,3.6054,3.6245,3.6335,3.6857,3.7086,3.7011,3.6518,3.637,3.6315,3.5808,3.5622,3.5622,3.5622,3.5622,3.5622,3.5622,3.5622,3.5622,3.5622,3.5622,3.5622,3.5622,3.5622,3.5622,3.5622,3.5622,3.5419,3.4658,3.4303,3.3913,3.3149,3.3034,3.3051,3.3165,3.3419,3.3634,3.378,3.3807,3.3807,3.3807,3.3807,3.3807,3.3807,3.3807,3.3807,3.3807,3.3807,3.3807,3.3807,3.3807,3.3807,3.3807,3.3807,3.3807,3.3807,3.3807,3.4064,3.4614,3.5103,3.6205,3.7845,3.8454,3.9318,1.6836,1.7705,1.8477,1.9492,1.9941,2.0225,2.0498,2.0449,2.0215,1.9775,1.9228,1.874,1.8467,1.8164,1.8242,1.9141,1.9756,2.0273,2.0732,2.1299,2.1396,2.0703,2.1869,2.2794,0.0,0.0,0.0,2.7268,2.7971,2.8561,2.8913,2.9478,2.9792,2.9792,3.0696,3.1669,3.2593,3.3518,3.4476,3.5504,3.5504,3.5504,3.5504,3.5504,3.5504,3.5504,3.5504,3.5668,3.5958,3.6384,3.6948,3.7467,3.8019,3.821,3.8168,3.7369,3.6982,3.6671,3.5893,3.5622,3.5622,3.5622,3.5622,3.5622,3.5622,3.5622,3.5622,3.5622,3.5622,3.5622,3.5622,3.5622,3.5622,3.5622,3.5622,3.5514,3.5241,3.4959,3.4631,3.4164,3.4058,3.4052,3.4042,3.4142,3.4137,3.3844,3.3807,3.3807,3.3807,3.3807,3.3807,3.3807,3.3807,3.3807,3.3807,3.3807,3.3807,3.3807,3.3807,3.3807,3.3807,3.3807,3.3807,3.3807,3.4082,3.4522,3.5172,3.5969,3.7113,3.8586,3.909,3.9733,1.7725,1.8398,1.9033,2.0264,2.0566,2.0557,2.0537,2.0195,1.9746,1.9287,1.8506,1.79,1.7852,0.0,1.7246,1.8916,1.9277,1.9795,2.1055,2.1289,2.1475,0.0,0.0,0.0,0.0,0.0,0.0,2.7214,0.0,2.8925,2.8925,2.9478,2.9792,2.9792,3.0696,3.1609,3.2593,3.3602,3.4543,3.5504,3.5504,3.5504,3.5504,3.5504,3.5504,3.5504,3.5504,3.5958,3.6615,3.6661,3.7541,3.8908,3.8978,3.902,3.8954,3.8193,3.7449,3.6721,3.591,3.5622,3.5622,3.5622,3.5622,3.5622,3.5622,3.5622,3.5622,3.5622,3.5622,3.5622,3.5622,3.5622,3.5622,3.5622,3.5622,3.5739,3.6266,3.5803,3.5449,3.5913,3.5439,3.5113,3.558,3.5319,3.477,3.399,3.3862,3.3844,3.3807,3.3807,3.3807,3.3807,3.3807,3.3807,3.3807,3.3807,3.3807,3.3807,3.3807,3.3807,3.3807,3.3844,3.3862,3.3862,3.4669,3.5272,3.5627,3.72,3.83,3.8975,3.9757,4.0269,1.8691,1.9512,2.0146,2.0478,2.0566,2.0478,2.0156,1.9746,1.915,1.8086,1.7168,1.6367,1.5723,1.5947,0.0,1.7695,1.9209,0.0,2.1143,2.2051,0.0,2.1953,0.0,2.2724,2.3273,2.4213,0.0,0.0,2.8076,2.8925,2.8925,2.9478,2.9792,2.9792,2.9998,3.0908,3.2593,3.4259,3.5213,3.5504,3.5504,3.5504,3.5504,3.5504,3.5504,3.5504,3.5504,3.5958,3.6676,3.7279,3.8076,3.8962,3.9558,3.9783,3.9648,3.8379,3.7787,3.7432,3.6079,3.5622,3.5622,3.5622,3.5622,3.5622,3.5622,3.5622,3.5622,3.5622,3.5622,3.5622,3.5622,3.5622,3.5622,3.5622,3.5622,3.5622,3.5783,3.5674,3.5591,3.5852,3.5939,3.5994,3.6102,3.6043,3.5679,3.4807,3.4679,3.4486,3.388,3.3807,3.3807,3.3807,3.3807,3.3807,3.3807,3.3807,3.3807,3.3807,3.3807,3.3807,3.3807,3.4394,3.4679,3.4679,3.5732,3.6601,3.7299,3.821,3.905,3.9795,4.0206,4.0422,1.9668,2.0342,2.0859,2.0859,2.0566,2.0117,1.9502,1.8887,1.8027,1.6543,1.5693,0.0,1.4102,1.4492,0.0,0.0,0.0,0.0,2.1064,2.2178,2.2754,0.0,2.2646,0.0,2.315,2.3929,2.5038,0.0,2.7747,2.8617,2.8863,2.9478,2.9792,2.9792,2.9792,3.0709,3.2593,3.4558,3.5504,3.5504,3.5504,3.5504,3.5504,3.5504,3.5504,3.5504,0.0,3.5958,3.6676,3.71,3.7889,3.8962,3.9385,3.9782,3.9901,3.8447,3.7905,3.7686,3.6146,3.5622,3.5622,3.5622,3.5622,3.5622,3.5622,3.5622,3.5622,3.5622,3.5622,3.5622,3.5622,3.5622,3.5622,3.5622,3.5622,3.5739,3.6207,3.6274,3.6464,3.7023,3.7249,3.7239,3.689,3.6817,3.6541,3.5716,3.5229,3.4825,3.4394,3.4027,3.3807,3.3807,3.3807,3.3807,3.3807,3.3807,3.3807,3.3807,3.3807,3.3972,3.4321,3.4752,3.522,3.5742,3.6731,3.7598,3.8331,3.9068,3.9718,4.0286,4.0441,4.0489,2.0285,2.0771,2.1143,2.1143,2.0488,1.9609,1.875,1.7812,1.6641,1.4961,0.0,1.3601,1.293,1.3184,1.4072,1.5841,0.0,1.874,2.085,2.1885,2.2588,2.3008,2.3105,2.3135,2.3135,2.3963,2.5126,2.6389,2.736,2.8234,2.8988,2.9515,2.9792,2.9792,2.9934,3.0846,3.2593,3.4409,3.5359,3.5504,3.5504,3.5504,3.5504,3.5504,3.5504,3.5504,3.5504,3.5958,3.6615,3.6615,3.7526,3.8891,3.8809,3.9235,3.9766,3.8294,3.7753,3.755,3.6113,3.5622,3.5622,3.5622,3.5622,3.5622,3.5622,3.5622,3.5622,3.5622,3.5622,3.5622,3.5622,3.5622,3.5622,3.5622,3.5622,3.5854,3.6786,3.7097,3.7487,3.8401,3.8658,3.8487,3.7771,3.7643,3.7386,3.6578,3.5734,3.5119,3.5009,3.4302,3.3807,3.3807,3.3807,3.3807,3.3807,3.3807,3.3807,3.3807,3.3934,3.4347,3.5037,3.5312,3.5925,3.6901,3.7754,3.8478,3.9051,3.9795,4.0267,4.0489,4.0489,4.0489,1.9409,1.9979,2.0684,2.0684,2.0029,1.917,1.8311,1.6894,0.0,0.0,1.3105,1.2462,1.2373,1.2978,1.4072,1.5841,0.0,0.0,0.0,0.0,2.2148,0.0,0.0,0.0,0.0,0.0,0.0,0.0,0.0,2.7591,2.9564,2.9741,2.9792,2.9792,3.0558,3.1476,3.2593,3.3671,3.4691,3.5504,3.5504,3.5504,3.5504,3.5504,3.5504,3.5504,3.5504,0.0,3.6615,3.6615,3.7526,3.8859,3.8212,3.8485,3.9005,3.7516,3.6975,3.684,3.5926,3.5622,3.5622,3.5622,3.5622,3.5622,3.5622,3.5622,3.5622,3.5622,3.5622,3.5622,3.5622,3.5622,3.5622,3.5622,3.5622,3.565,3.5854,3.6545,3.7377,3.7911,3.8382,3.867,3.8524,3.8487,3.8212,3.7404,3.6597,3.5807,3.5082,3.4302,3.3807,3.3807,3.3807,3.3807,3.3807,3.3807,3.3807,3.3807,3.4692,3.525,3.5399,3.6972,3.7901,3.8101,3.9172,3.9793,3.9891,4.0245,4.0457,4.0489,4.0489,4.0489,1.8501,1.9264,2.0076,2.0076,1.9525,1.8662,1.7588,0.0,0.0,0.0,1.2168,1.1748,1.1299,0.0,0.0,0.0,0.0,0.0,0.0,0.0,0.0,0.0,0.0,0.0,0.0,0.0,0.0,0.0,0.0,2.7476,2.9702,2.9792,2.9792,2.9792,3.0696,3.1669,3.2593,3.3518,3.4476,3.5504,3.5504,3.5504,3.5504,3.5504,3.5504,3.5504,3.5504,3.5733,3.6054,3.6054,3.6676,3.7636,3.6933,3.7122,3.7725,3.6604,3.6233,3.6181,3.5739,3.5622,3.5622,3.5622,3.5622,3.5622,3.5622,3.5622,3.5622,3.5622,3.5622,3.5622,3.5622,3.5622,3.565,3.5941,3.644,3.6808,3.6808,3.7433,3.805,3.8267,3.8496,3.8707,3.8707,3.8707,3.8579,3.8175,3.7422,3.6615,3.5789,3.4945,3.4266,3.3844,3.391,3.4203,3.4654,3.4803,3.5086,3.5539,3.6096,3.6577,3.6986,3.7894,3.8669,3.9273,3.9813,4.0158,4.0321,4.0441,4.0489,4.0489,4.0489,4.0489,1.7384,1.8283,1.9055,1.9057,1.8543,1.7801,1.6555,1.5003,0.0,0.0,1.1459,1.1145,1.0527,0.0,1.2578,0.0,0.0,0.0,0.0,0.0,0.0,0.0,0.0,0.0,0.0,0.0,0.0,0.0,0.0,2.7971,2.9702,2.9792,2.9792,2.9792,3.0482,3.1328,3.2321,3.3031,3.3973,3.5213,3.5213,3.5279,3.5504,3.5504,3.5504,3.5504,3.5504,3.5504,3.5489,3.534,3.573,3.6305,3.5484,3.5666,3.6291,3.5658,3.5449,3.5464,3.5564,3.5622,3.5622,3.5622,3.5622,3.5622,3.5622,3.5622,3.5622,3.5622,3.5622,3.5622,3.5622,3.5622,3.5739,3.6266,3.7002,3.7649,3.7859,3.8216,3.8546,3.8676,3.8707,3.8707,3.8707,3.8707,3.8707,3.8707,3.801,3.7257,3.6633,3.5807,3.5055,3.4394,3.4356,3.4717,3.5597,3.5853,3.6295,3.6957,3.7231,3.7672,3.8376,3.8631,3.9197,4.0177,4.0177,4.0304,4.0489,4.0489,4.0489,4.0489,4.0489,4.0489,1.5689,1.6492,1.7463,1.7192,1.685,1.6314,1.5133,0.0,0.0,1.1802,1.0979,1.0498,1.0791,1.0986,1.1611,1.3193,1.3896,1.501,0.0,0.0,0.0,0.0,0.0,0.0,0.0,0.0,0.0,0.0,0.0,2.9624,2.9792,2.9792,2.9792,2.9792,2.9856,3.0343,3.1315,3.1389,3.2393,3.4163,3.4163,3.461,3.5504,3.5504,3.5504,3.5504,3.5504,3.5504,0.0,3.4831,3.5017,3.5561,3.4244,3.418,3.4908,3.4775,3.4675,3.4771,3.5379,3.5622,3.5622,3.5622,3.5622,3.5622,3.5622,3.5622,3.5622,3.5622,3.5622,3.5622,3.5622,3.5622,3.5739,3.6266,3.6457,3.6786,3.7702,3.7946,3.8099,3.8627,3.8707,3.8707,3.8707,3.8707,3.8707,3.8707,3.801,3.7489,3.7386,3.667,3.6156,3.6083,3.5395,3.5266,3.6158,3.6241,3.6306,3.638,3.7299,3.8016,3.8373,3.9388,4.0119,4.0457,4.0473,4.0473,4.0489,4.0489,4.0489,4.0489,4.0489,4.0489,1.3967,1.5556,1.7033,1.6814,1.6525,1.6033,1.4903,0.0,1.1264,1.0767,1.0236,0.9969,1.0458,1.0742,1.1221,1.2178,1.2705,1.3652,1.5547,0.0,0.0,0.0,0.0,0.0,0.0,0.0,0.0,0.0,2.7947,2.9106,2.9792,2.9792,2.9792,2.9792,2.9792,3.0279,3.118,3.118,3.2177,3.4027,3.4027,3.4543,3.5489,3.507,3.4891,3.4861,3.4472,3.4292,0.0,3.4008,3.4044,3.4228,3.3287,3.3096,3.3403,3.3382,3.3391,3.3547,3.464,3.4988,3.5052,3.547,3.5622,3.5622,3.5622,3.5622,3.5622,3.5622,3.5622,3.5622,3.5622,3.6097,3.6603,3.6843,3.7323,3.7895,3.8318,3.8382,3.8446,3.8658,3.8707,3.8707,3.8707,3.8707,3.8707,3.8707,3.8432,3.8046,3.7551,3.7202,3.7,3.7,3.6427,3.6377,3.7173,3.7396,3.7729,3.8259,3.8702,3.8973,3.9109,3.9751,4.0139,4.0269,4.0425,4.0489,4.0489,4.0489,4.0489,4.0489,4.0489,4.0489,1.2592,1.4219,1.5654,1.5482,1.5289,1.4928,0.0,1.1858,1.0314,0.9917,0.9544,0.9439,0.9961,1.0278,1.0733,1.1465,1.1943,1.2832,1.4541,1.5527,0.0,0.0,0.0,0.0,0.0,0.0,0.0,0.0,2.7522,2.8597,2.9714,2.9628,2.9616,2.9779,2.9792,3.0139,3.0758,3.0758,3.1609,3.3171,3.3171,3.3822,3.5037,3.4371,3.4203,3.4442,3.3784,3.3499,0.0,3.329,3.32,3.314,3.2482,3.2213,3.2227,3.2496,3.2586,3.2734,3.3887,3.4284,3.4431,3.5098,3.5299,3.5362,3.5515,3.5622,3.5622,3.5622,3.5622,3.5622,3.5622,3.6291,3.6981,3.7135,3.7861,3.8515,3.8676,3.8707,3.8707,3.8707,3.8707,3.8707,3.8707,3.8707,3.8707,3.8707,3.8707,3.8505,3.7918,3.7845,3.7845,3.7845,3.7525,3.7516,3.8081,3.8313,3.8715,3.9419,3.9438,3.9552,3.9754,3.9963,4.0139,4.0213,4.0406,4.0489,4.0489,4.0489,4.0489,4.0489,4.0489,4.0489,1.1724,1.2385,1.2761,1.2459,1.2572,1.2379,0.0,1.0556,1.0173,0.9439,0.9006,0.8878,0.9399,0.9518,0.9993,1.1373,1.1943,1.2832,1.4541,1.5527,0.0,0.0,0.0,0.0,0.0,0.0,0.0,2.6389,2.7522,0.0,2.9714,2.9252,2.9202,2.9779,2.9792,2.9792,2.9792,2.9792,3.0279,3.1254,3.1254,3.2249,3.4013,3.3408,3.3609,3.4442,3.3784,3.3499,0.0,3.2796,3.2527,3.2452,3.1735,3.1482,3.1597,3.2327,3.2586,3.2695,3.3391,3.3582,3.3735,3.4382,3.4624,3.4736,3.5407,3.5622,3.5622,3.5622,3.5622,3.5622,3.5622,3.6028,3.6539,3.7058,3.7578,3.8047,3.8596,3.8707,3.8707,3.8707,3.8707,3.8707,3.8707,3.8707,3.8707,3.8707,3.8707,3.8707,3.8689,3.8689,3.8689,3.8689,3.8689,3.8689,3.8689,3.8689,3.8815,3.9099,3.9125,3.9389,4.0081,4.0101,4.0213,4.0489,4.0489,4.0489,4.0489,4.0489,4.0489,4.0489,4.0489,4.0489,1.0267,1.1361,1.227,1.1882,1.1727,1.148,1.0354,0.938,0.8626,0.8369,0.8229,0.8316,0.8837,0.8958,0.9578,1.1546,1.1976,1.2695,0.0,0.0,0.0,0.0,0.0,0.0,0.0,0.0,0.0,2.521,2.5409,2.5876,2.7021,2.7227,2.79,2.9189,2.8837,2.8637,2.8637,2.8637,2.9116,3.0064,3.0064,3.1034,3.2717,3.1565,3.1746,3.3095,3.1852,3.1633,3.2138,3.1928,3.1839,3.1824,3.1556,3.1482,3.1524,3.1739,3.1853,3.1951,3.268,3.3251,3.3735,3.4382,3.4894,3.5316,3.5532,3.5622,3.5622,3.5622,3.5622,3.5622,3.5622,3.6028,3.6539,3.7058,3.7542,3.8065,3.8578,3.8707,3.8707,3.8707,3.8707,3.8707,3.8707,3.8707,3.8707,3.8707,3.8707,3.8707,3.8707,3.8707,3.8707,3.8707,3.8707,3.8707,3.8707,3.8855,3.9027,3.908,3.9333,3.9552,3.9754,3.9982,4.0139,4.0213,4.0425,4.0489,4.0489,4.0489,4.0489,4.0489,4.0489,4.0489,0.9018,1.0115,1.099,1.0733,1.0497,1.0141,0.9294,0.8384,0.7706,0.7595,0.7572,0.7739,0.8275,0.8561,0.9232,1.0854,1.1542,1.2429,0.0,0.0,0.0,0.0,0.0,0.0,0.0,0.0,2.3148,2.419,2.4093,2.4411,2.5532,2.606,2.6769,2.773,2.7939,2.8109,2.8109,2.8109,2.8375,2.8983,2.8983,2.9717,3.1118,2.9964,3.0403,3.1942,3.08,3.0777,0.0,3.1482,3.1482,3.1482,3.1482,3.1482,3.1482,3.1482,3.1482,3.1582,3.2007,3.2477,3.2971,3.3921,3.4847,3.5622,3.5622,3.5622,3.5622,3.5622,3.5622,3.5667,3.5854,3.6291,3.6843,3.736,3.7843,3.83,3.8627,3.8707,3.8707,3.8707,3.8707,3.8707,3.8707,3.8707,3.8707,3.8707,3.8707,3.8707,3.8707,3.8707,3.8707,3.8707,3.8707,3.8707,3.8707,3.8933,3.9212,3.9462,3.9668,3.984,3.9944,4.0139,4.025,4.025,4.0406,4.0489,4.0489,4.0489,4.0489,4.0489,4.0489,4.0489,0.0,0.8611,0.8991,0.8971,0.8838,0.8504,0.7888,0.7595,0.0,0.7021,0.6974,0.7175,0.7768,0.8265,0.8888,0.9673,1.0768,0.0,0.0,0.0,0.0,0.0,0.0,0.0,0.0,0.0,2.2349,2.3343,2.3391,2.3769,2.4882,2.531,2.5536,2.5536,2.7017,2.7838,2.7984,2.7996,2.7996,2.7996,2.7996,2.8451,2.9376,2.8684,2.9331,0.0,3.0377,3.0584,3.1351,3.1409,3.1409,3.1409,3.1467,3.1482,3.1482,3.1482,3.1482,3.1482,3.1482,3.1524,3.1781,3.3219,3.456,3.5622,3.5622,3.5622,3.5622,3.5622,3.5622,3.5783,3.6266,3.6803,3.7323,3.779,3.8267,3.8658,3.8707,3.8707,3.8707,3.8707,3.8707,3.8707,3.8707,3.8707,3.8707,3.8707,3.8707,3.8707,3.8707,3.8707,3.8707,3.8707,3.8707,3.8707,3.8719,3.8961,3.9364,4.0022,4.0081,4.0213,4.0489,4.0489,4.0489,4.0489,4.0489,4.0489,4.0489,4.0489,4.0489,4.0489,4.0489,4.0489,0.6184,0.0,0.7161,0.6934,0.7001,0.7014,0.0,0.6727,0.6713,0.6458,0.0,0.6868,0.7499,0.7713,0.8463,1.0469,1.1024,1.1781,0.0,0.0,0.0,0.0,0.0,0.0,0.0,0.0,2.1958,2.2277,2.1959,2.184,2.2159,2.26,2.2853,2.2853,2.4016,2.5349,2.6841,2.6854,2.6854,2.6854,2.6854,2.7301,2.8065,2.7352,2.7921,2.9449,2.8675,2.8812,2.9628,3.0329,3.0584,3.0644,3.1278,3.1482,3.1482,3.1482,3.1482,3.1482,3.1482,3.1853,3.2586,3.3937,3.4958,3.5622,3.5622,3.5622,3.5622,3.5622,3.5898,3.6224,3.6392,3.6803,3.7323,3.779,3.798,3.8183,3.8627,3.8707,3.8707,3.8707,3.8707,3.8707,3.8707,3.8707,3.8707,3.8707,3.8707,3.8707,3.8707,3.8707,3.8707,3.8707,3.8707,3.8773,3.8999,3.9044,3.9264,3.969,3.9962,4.0213,4.0489,4.0489,4.0489,4.0489,4.0489,4.0489,4.0489,4.0489,4.0489,4.0489,4.0489,4.0489,0.514,0.5985,0.6754,0.6593,0.6673,0.678,0.6801,0.6713,0.0,0.0,0.0,0.6927,0.7426,0.7685,0.0,0.9814,1.0637,0.0,0.0,0.0,0.0,0.0,0.0,0.0,0.0,0.0,2.1279,2.1279,2.1055,2.0928,2.0928,2.1584,2.2027,2.2027,2.2999,2.4253,2.5804,2.5804,2.6025,2.6533,2.6533,2.6714,2.7095,2.6714,2.7229,2.8363,2.792,2.8182,2.9066,2.9504,2.995,3.0329,3.0329,3.0837,3.1467,3.1087,3.1161,3.1482,3.1482,3.2145,3.3198,3.3887,3.48,3.5622,3.5622,3.5783,3.5898,3.565,3.5985,3.6457,3.6684,3.7135,3.7667,3.815,3.8267,3.835,3.8627,3.8707,3.8707,3.8707,3.8707,3.8707,3.8707,3.8707,3.8707,3.8707,3.8707,3.8707,3.8707,3.8707,3.8707,3.8707,3.8707,3.8762,3.8894,3.8923,3.9109,3.9576,3.9775,3.9943,4.0082,4.0082,4.0157,4.0302,4.0441,4.0489,4.0489,4.0489,4.0489,4.0489,4.0489,4.0489,0.4531,0.5632,0.6735,0.6772,0.6894,0.7021,0.7318,0.0,0.0,0.0,0.0,0.0,0.0,0.0,0.0,0.0,0.0,0.0,0.0,0.0,0.0,0.0,0.0,0.0,1.8957,1.9844,2.0401,2.0566,2.0566,2.0566,2.0566,2.1375,2.1811,2.1811,2.2627,2.3526,2.4564,2.4707,2.53,2.6245,2.6245,2.6383,2.6533,2.6533,2.6837,2.755,0.0,0.0,2.862,2.8748,2.9254,2.9827,2.9254,2.9889,3.1029,3.0524,3.0718,3.1351,3.1467,3.2351,3.3479,3.3598,3.4447,3.547,3.5577,3.5898,3.6224,3.5827,3.6165,3.6706,3.7173,3.756,3.795,3.8394,3.8414,3.834,3.834,3.8432,3.8524,3.8524,3.8615,3.8652,3.8584,3.8596,3.8596,3.8596,3.8596,3.8621,3.8689,3.8707,3.8707,3.8707,3.875,3.8762,3.8762,3.8762,3.8998,3.9505,3.951,3.9552,3.9599,3.9645,3.9797,4.0101,4.0356,4.0489,4.0489,4.0489,4.0489,4.0489,4.0489,4.0489,0.4257,0.4999,0.5627,0.5836,0.6286,0.6667,0.6713,0.0,0.0,0.0,0.0,0.0,0.0,0.0,0.0,0.0,0.0,0.0,0.0,0.0,0.0,0.0,0.0,1.7908,1.8877,1.9125,1.9599,2.0557,2.0566,2.0566,2.0566,2.0712,2.0789,2.0789,2.0934,2.1527,2.2478,2.3294,2.4264,2.5229,2.5229,2.5664,2.6533,2.6533,2.6589,2.6658,0.0,2.6782,2.6905,2.7604,2.7986,2.8182,2.8748,2.9192,2.9442,3.0072,3.0389,3.0584,3.1278,3.2064,3.2841,3.3443,3.4137,3.4847,3.5424,3.5667,3.5827,3.6182,3.6925,3.7685,3.7755,3.7675,3.7583,3.7661,3.7147,3.667,3.667,3.7202,3.7661,3.7661,3.823,3.8559,3.8118,3.8015,3.8015,3.8015,3.8015,3.8211,3.8628,3.8707,3.8707,3.8707,3.8894,3.9036,3.9036,3.9036,3.909,3.916,3.9178,3.9289,3.9599,3.988,4.0061,4.0101,4.0356,4.0489,4.0489,4.0489,4.0489,4.0489,4.0489,4.0489,0.359,0.4417,0.5214,0.5247,0.5715,0.6214,0.6344,0.0,0.0,0.0,0.0,0.0,0.0,0.0,0.0,0.0,0.0,0.0,0.0,0.0,0.0,0.0,0.0,1.6683,1.7163,1.7738,1.831,1.8789,1.8789,1.9116,1.9678,1.9756,2.0001,2.0566,2.0566,2.0789,2.1221,2.1669,2.2713,2.4192,2.4192,2.4409,2.4909,2.4909,2.4909,2.4909,0.0,2.5664,2.5721,2.6688,2.7284,2.767,2.767,2.8182,2.9129,2.995,3.0584,3.1029,3.1351,3.2201,3.3182,3.3495,3.4301,3.5207,3.5515,3.5677,3.5798,3.6077,3.6481,3.6881,3.7194,3.7062,3.6835,3.6835,3.656,3.6342,3.65,3.6804,3.7063,3.7063,3.7378,3.7479,3.711,3.7054,3.7091,3.7214,3.724,3.7336,3.7581,3.8007,3.8198,3.8077,3.8556,3.8865,3.8865,3.9027,3.9036,3.8894,3.8865,3.9017,3.9333,3.9645,3.9922,4.0101,4.0356,4.0489,4.0489,4.0489,4.0489,4.0489,4.0489,4.0489,0.3059,0.3841,0.4647,0.4633,0.533,0.6034,0.6261,0.0,0.0,0.0,0.0,0.0,0.0,0.0,0.0,0.0,0.0,0.0,0.0,0.0,0.0,0.0,1.4817,1.5462,1.5696,1.6437,1.7009,1.7261,1.7342,1.7658,1.8559,1.8638,1.8957,1.9835,2.0079,2.0245,2.0245,2.0479,2.1451,2.3147,2.3147,2.3294,2.3514,2.3514,2.3514,2.3514,2.4337,2.4636,2.4707,2.5499,2.6333,2.6989,2.6427,2.7204,2.8812,2.9442,3.0329,3.1219,3.1219,3.2074,3.3166,3.3479,3.4186,3.491,3.5262,3.5314,3.537,3.5576,3.5526,3.5545,3.6381,3.6304,3.6009,3.6009,3.5844,3.5781,3.597,3.617,3.6326,3.6384,3.6577,3.6601,3.6356,3.6258,3.6266,3.6485,3.646,3.6503,3.6689,3.7221,3.7607,3.7616,3.8198,3.867,3.8785,3.8971,3.8971,3.8719,3.8762,3.8884,3.9099,3.9505,3.9859,4.0101,4.0356,4.0489,4.0489,4.0489,4.0489,4.0489,4.0489,4.0489,0.2997,0.318,0.3356,0.3788,0.5213,0.0,0.6564,0.6898,0.0,0.0,0.0,0.0,0.0,0.0,0.0,0.0,0.0,0.0,0.0,0.0,0.0,0.0,1.4173,1.4573,1.5621,1.5779,1.6191,1.7253,1.7342,1.7334,1.7415,1.7415,1.7496,1.7504,1.855,1.9116,1.9116,2.0079,2.1078,2.2103,2.2103,2.2627,2.3514,2.3514,2.3514,2.3514,2.3599,2.3599,2.3588,2.3661,2.4325,2.5217,2.5146,2.6239,2.7802,2.7855,2.8939,3.0389,3.0389,3.0955,3.1894,3.3182,3.3201,3.2934,3.4186,3.4092,3.3772,3.4619,3.4323,3.4157,3.5884,3.5705,3.5082,3.5082,3.4523,3.3972,3.3999,3.4605,3.5202,3.5522,3.6186,3.662,3.6349,3.6097,3.5929,3.5951,3.5745,3.5851,3.6614,3.6738,3.7054,3.779,3.8147,3.8539,3.9043,3.9099,3.8971,3.8719,3.8933,3.9072,3.9099,3.9731,4.0081,4.0101,4.0356,4.0489,4.0489,4.0489,4.0489,4.0489,4.0489,4.0489,0.2469,0.2804,0.3208,0.3568,0.4633,0.0,0.0,0.0,0.0,0.0,0.0,0.0,0.0,0.0,0.0,0.0,0.0,0.0,0.0,0.0,1.287,1.3459,1.354,1.3696,1.4086,1.4167,1.4321,1.4714,1.4714,1.5026,1.5724,1.5716,1.6031,1.6727,1.7192,1.7415,1.7415,1.7969,1.8464,1.8834,2.0371,2.1298,2.168,2.168,2.168,2.1745,2.2328,2.2553,2.2627,2.322,2.3745,2.4036,2.4036,2.5216,2.6857,2.6857,2.8066,2.9678,2.9678,3.0214,3.1036,3.1581,3.211,3.2569,3.3089,3.3393,3.3609,3.3935,3.3892,3.4007,3.519,3.489,3.4301,3.4456,3.4266,3.4147,3.4532,3.4858,3.5063,3.5018,3.5369,3.5565,3.5082,3.4918,3.4914,3.5105,3.4888,3.4814,3.5107,3.5759,3.6255,3.6379,3.7387,3.8197,3.8576,3.8775,3.8884,3.8933,3.9036,3.9186,3.9389,3.984,4.0177,4.0356,4.0457,4.0489,4.0489,4.0489,4.0489,4.0489,4.0489,4.0489,0.2308,0.2706,0.3195,0.0,0.0,0.0,0.0,0.0,0.0,0.0,0.0,0.0,0.0,0.0,0.0,0.0,0.0,0.0,0.0,0.0,1.1502,1.2148,1.2234,1.2234,1.2234,1.2234,1.2234,1.2234,1.2234,1.2698,1.3782,1.386,1.4321,1.5396,1.5695,1.5924,1.5924,1.6475,1.6746,1.6754,1.8425,1.9505,1.9879,1.9495,1.9439,1.9765,2.0078,2.0446,2.0777,2.1428,2.2101,2.2706,2.2983,2.3874,2.503,2.5314,2.644,2.794,2.8474,2.9195,2.9962,3.0459,3.1052,3.1635,3.2015,3.2334,3.2609,3.2932,3.3202,3.3546,3.4243,3.4128,3.3842,3.4018,3.4147,3.4315,3.4716,3.4907,3.4926,3.4753,3.4851,3.487,3.4534,3.4405,3.4467,3.4774,3.4467,3.4242,3.4357,3.4952,3.5402,3.5491,3.6708,3.7604,3.777,3.7968,3.8183,3.8439,3.8733,3.9052,3.9438,3.988,4.0177,4.0372,4.0457,4.0489,4.0489,4.0489,4.0489,4.0489,4.0489,4.0489,0.2668,0.2896,0.3195,0.0,0.0,0.0,0.0,0.0,0.0,0.0,0.0,0.0,0.0,0.0,0.0,0.0,0.0,0.0,0.0,0.9972,1.0196,1.0196,1.0196,1.0196,1.0196,1.0196,1.0196,1.0196,1.0196,1.06,1.1656,1.1656,1.2141,1.3121,1.418,1.4787,1.4787,1.5839,1.6363,1.6363,1.6363,1.703,1.8258,1.7004,1.6917,1.7859,1.6841,1.6992,1.7859,1.7859,1.902,2.0896,2.1782,2.2195,2.2264,2.3156,2.4034,2.5001,2.6613,2.7694,2.8647,3.0103,3.0061,2.9748,3.0977,3.0896,3.0526,3.1514,3.2127,3.2616,3.3075,3.3494,3.3807,3.3788,3.3993,3.42,3.42,3.4486,3.4694,3.4694,3.4694,3.4774,3.5053,3.4889,3.4793,3.507,3.4595,3.4334,3.4653,3.4401,3.4535,3.5392,3.6205,3.6708,3.6708,3.6708,3.6814,3.7077,3.7898,3.8597,3.9069,3.9735,4.0101,4.0101,4.0356,4.0489,4.0489,4.0489,4.0489,4.0489,4.0489,4.0489,0.2541,0.2929,0.0,0.0,0.0,0.0,0.0,0.0,0.0,0.0,0.0,0.0,0.0,0.0,0.0,0.0,0.0,0.0,0.8249,0.8449,0.8796,0.9493,0.9571,0.9571,0.9571,0.9571,0.9571,0.9571,0.9571,0.9725,0.9956,1.0033,1.0116,1.0423,1.1468,1.1614,1.093,1.2107,1.235,1.1719,1.1719,1.3551,1.6919,1.6573,1.6523,1.6841,1.6531,1.6606,1.6841,1.6841,1.7591,1.88,1.9073,2.0012,2.1307,2.2115,2.3126,2.4254,2.5361,2.6339,2.7165,2.7563,2.8218,2.895,2.9756,3.0333,3.0931,3.2004,3.2648,3.3075,3.3522,3.3707,3.3842,3.4043,3.4147,3.4246,3.4508,3.4774,3.4926,3.4753,3.4999,3.5174,3.487,3.4908,3.4944,3.4851,3.4674,3.4572,3.4674,3.4593,3.4645,3.4908,3.5493,3.5851,3.5851,3.6373,3.6733,3.6814,3.7234,3.7904,3.8847,3.9659,4.0177,4.0372,4.0267,4.0321,4.0489,4.0489,4.0489,4.0489,4.0489,4.0489,0.2795,0.0,0.0,0.0,0.0,0.0,0.0,0.0,0.0,0.0,0.0,0.0,0.0,0.0,0.0,0.0,0.0,0.0,0.7099,0.7176,0.7403,0.8012,0.8084,0.8084,0.8084,0.8084,0.8084,0.8084,0.8084,0.8313,0.8689,0.8694,0.8917,0.9296,0.9895,0.9895,0.9296,1.0046,1.011,0.9571,0.9571,1.0923,1.3582,1.3967,1.4343,1.4726,1.5122,1.5354,1.5354,1.5725,1.6249,1.6861,1.6861,1.7784,1.9194,2.0054,2.1273,2.2698,2.3844,2.4878,2.5728,2.6283,2.7195,2.8209,2.9118,2.9999,3.087,3.1933,3.2583,3.3014,3.3447,3.368,3.3842,3.3993,3.4123,3.4265,3.4464,3.4715,3.4908,3.4734,3.4963,3.5105,3.4908,3.4981,3.5053,3.487,3.4754,3.4653,3.4529,3.4632,3.4694,3.4694,3.4999,3.5188,3.5188,3.5496,3.5752,3.589,3.6264,3.682,3.7622,3.8899,3.9642,3.9821,4.0095,4.0339,4.0489,4.0489,4.0489,4.0489,4.0489,4.0489,0.3202,0.0,0.0,0.0,0.0,0.0,0.0,0.0,0.0,0.0,0.0,0.0,0.0,0.0,0.0,0.0,0.0,0.0,0.6338,0.6338,0.6338,0.6338,0.6264,0.6264,0.6264,0.6264,0.6264,0.6264,0.6264,0.6721,0.7633,0.7633,0.8089,0.8993,0.9145,0.9145,0.8993,0.9145,0.9145,0.8993,0.8993,0.8993,0.9069,1.019,1.1143,1.2011,1.2917,1.3375,1.352,1.4442,1.4871,1.5092,1.5092,1.572,1.6697,1.76,1.9017,2.0707,2.2274,2.3323,2.431,2.5823,2.6686,2.748,2.8949,2.9761,3.0444,3.1514,3.2127,3.2616,3.3075,3.3494,3.3807,3.3807,3.3986,3.4152,3.4152,3.4423,3.4653,3.4653,3.4674,3.4793,3.5016,3.5088,3.5105,3.5105,3.4889,3.4593,3.4265,3.4508,3.4694,3.4653,3.4674,3.4674,3.4653,3.4401,3.4357,3.4632,3.5136,3.5548,3.579,3.7641,3.8671,3.869,3.9706,4.0281,4.0392,4.0392,4.0431,4.0489,4.0489,4.0489,0.0,0.3107,0.0,0.0,0.0,0.0,0.0,0.0,0.0,0.0,0.0,0.0,0.0,0.0,0.0,0.0,0.0,0.6338,0.6338,0.6338,0.6338,0.6338,0.6271,0.6274,0.6274,0.6285,0.6288,0.6288,0.6288,0.6359,0.6581,0.6655,0.6729,0.6945,0.7706,0.7706,0.6949,0.7706,0.7706,0.6949,0.6949,0.6949,0.7022,0.8841,0.9744,0.9959,1.0185,1.0708,1.1452,1.1668,1.2618,1.4027,1.4027,1.5084,1.6697,1.76,1.8629,1.9748,2.076,2.1596,2.2517,2.4107,2.5122,2.616,2.8623,2.9496,2.9903,3.1384,3.2127,3.2616,3.3075,3.3494,3.3807,3.3807,3.3842,3.3876,3.3876,3.4117,3.4311,3.4311,3.4529,3.4714,3.4793,3.4963,3.5105,3.5105,3.5053,3.4813,3.4269,3.4508,3.4593,3.4334,3.4551,3.4593,3.4334,3.4467,3.4508,3.4334,3.4677,3.4896,3.4958,3.6568,3.7601,3.785,3.8057,3.8601,3.9546,3.9546,3.9873,4.0489,4.0489,4.0489,0.0,0.0,0.0,0.0,0.0,0.0,0.0,0.0,0.0,0.0,0.0,0.0,0.0,0.0,0.0,0.0,0.0,0.63,0.63,0.63,0.63,0.63,0.6303,0.5917,0.4841,0.4769,0.4771,0.4771,0.4771,0.4771,0.4766,0.5752,0.6263,0.6332,0.6777,0.681,0.6278,0.6813,0.6813,0.6278,0.6278,0.6278,0.6352,0.7863,0.8841,0.9296,0.982,1.034,1.0858,1.1316,1.2131,1.3025,1.3025,1.3947,1.5288,1.5747,1.6762,1.8073,1.8961,2.0094,2.1354,2.3043,2.4536,2.6069,2.7875,2.8903,2.9685,3.106,3.1573,3.1917,3.2663,3.3196,3.3522,3.3522,3.3652,3.3807,3.3807,3.3902,3.4043,3.4195,3.4334,3.4508,3.4674,3.4832,3.4944,3.5088,3.5105,3.4999,3.4676,3.4774,3.4832,3.4656,3.4675,3.4632,3.4445,3.4593,3.4632,3.4445,3.4593,3.4694,3.4694,3.5505,3.6211,3.6787,3.7166,3.7662,3.8286,3.8286,3.8779,3.9725,3.9725,4.0005,0.0,0.0,0.0,0.0,0.0,0.0,0.0,0.0,0.0,0.0,0.0,0.0,0.0,0.0,0.0,0.0,0.5778,0.5778,0.5778,0.5778,0.5778,0.5778,0.6082,0.5633,0.3858,0.298,0.2542,0.2542,0.2542,0.2542,0.2542,0.4237,0.5355,0.5738,0.5765,0.5755,0.578,0.578,0.5712,0.5733,0.5733,0.5733,0.5811,0.6633,0.7617,0.8846,0.9664,1.011,1.0335,1.1168,1.1626,1.1774,1.1774,1.2352,1.3208,1.3368,1.4458,1.6095,1.726,1.8568,2.007,2.2079,2.401,2.572,2.7011,2.8148,2.9313,3.0525,3.0892,3.113,3.2126,3.2745,3.3105,3.3184,3.3447,3.3734,3.3823,3.385,3.3935,3.4171,3.4265,3.4379,3.4653,3.4793,3.4889,3.4999,3.507,3.5088,3.5053,3.507,3.5088,3.5053,3.487,3.4734,3.4614,3.4593,3.4593,3.4593,3.4593,3.4653,3.4694,3.4694,3.4996,3.5677,3.6396,3.6852,3.6984,3.6984,3.7564,3.8669,3.8822,3.9406,0.0,0.0,0.0,0.0,0.0,0.0,0.0,0.0,0.0,0.0,0.0,0.0,0.0,0.0,0.0,0.0,0.3561,0.3561,0.3561,0.3561,0.3561,0.3561,0.5192,0.6172,0.5871,0.2551,0.0437,0.0437,0.0437,0.0437,0.0436,0.0656,0.1679,0.3435,0.352,0.3563,0.3489,0.3491,0.3526,0.3517,0.3517,0.3517,0.3517,0.3667,0.4841,0.6736,0.681,0.7411,0.8237,0.8309,0.8917,0.9674,0.9674,1.0243,1.1249,1.2078,1.3078,1.4269,1.6096,1.6886,1.7658,2.0814,2.2067,2.2968,2.637,2.751,2.8036,2.9886,3.0647,3.1053,3.1718,3.223,3.2681,3.3105,3.3243,3.3429,3.4006,3.4147,3.4171,3.4176,3.4423,3.4653,3.4694,3.5088,3.5258,3.4832,3.4944,3.5035,3.4774,3.4963,3.4999,3.4774,3.4926,3.4832,3.4292,3.4288,3.4288,3.4288,3.4288,3.4401,3.4674,3.4694,3.4751,3.4864,3.4958,3.5375,3.6075,3.6075,3.6671,3.7791,3.8536,3.9099,0.0,0.0,0.0,0.0,0.0,0.0,0.0,0.0,0.0,0.0,0.0,0.0,0.0,0.0,0.0,0.0,0.0,0.1393,0.1393,0.1393,0.1393,0.1393,0.2163,0.2795,0.2795,0.1117,0.0,0.0,0.0,-0.0906,-0.2927,-0.1131,0.0427,0.1349,0.137,0.139,0.1331,0.1331,0.1338,0.1353,0.2518,0.3074,0.3076,0.3119,0.3604,0.4535,0.5774,0.6542,0.7069,0.8152,0.8922,0.9296,0.9296,0.9583,1.0018,1.1063,1.1643,1.2291,1.4275,1.5615,1.6821,1.8868,2.0561,2.2177,2.4776,2.5856,2.6607,2.8685,2.9669,3.0194,3.0801,3.1534,3.2213,3.2517,3.289,3.3343,3.3865,3.4074,3.4265,3.4445,3.4593,3.4734,3.4908,3.4999,3.5016,3.4944,3.4908,3.4889,3.4926,3.4908,3.4889,3.4926,3.5016,3.4999,3.4716,3.4696,3.4696,3.4696,3.4553,3.4551,3.4694,3.4694,3.4694,3.4694,3.4529,3.4698,3.5243,3.5036,3.562,3.6877,3.7258,3.7838,0.0,0.0,0.0,0.0,0.0,0.0,0.0,0.0,0.0,0.0,0.0,0.0,0.0,0.0,0.0,0.0,0.0,-0.0337,-0.1212,-0.1347,-0.1212,-0.074,-0.0672,-0.0672,-0.0672,-0.0672,-0.0672,-0.0672,-0.0672,-0.1883,-0.4584,-0.2609,-0.1178,-0.0691,-0.0705,-0.0715,-0.072,-0.0218,0.0,0.0,0.1562,0.2328,0.233,0.2297,0.2311,0.2378,0.3995,0.5293,0.6338,0.7855,0.8463,0.8379,0.8379,0.8379,0.8533,0.9548,1.0165,1.0621,1.2597,1.4395,1.5904,1.7154,1.9,2.1054,2.2658,2.3971,2.5355,2.7315,2.8513,2.9361,3.0107,3.0874,3.1551,3.2092,3.2616,3.3196,3.3778,3.4141,3.4423,3.4734,3.4793,3.487,3.507,3.4981,3.4944,3.5088,3.4981,3.4944,3.5088,3.4926,3.4813,3.487,3.4963,3.4963,3.4889,3.487,3.4907,3.4999,3.4734,3.4593,3.4694,3.4694,3.4694,3.4694,3.4379,3.4357,3.4694,3.4445,3.4896,3.6001,3.6192,3.6805,0.0,0.0,0.0,0.0,0.0,0.0,0.0,0.0,0.0,0.0,0.0,0.0,0.0,0.0,0.0,0.0,0.0,-0.1212,-0.466,-0.5138,-0.4451,-0.2746,-0.2544,-0.2544,-0.2544,-0.2544,-0.2544,-0.2544,-0.2544,-0.2611,-0.2813,-0.4308,-0.4311,-0.2616,-0.2552,-0.2588,-0.2586,-0.086,0.0,0.0,0.0146,0.0146,0.0146,0.0146,0.0146,0.0146,0.0299,0.2456,0.5988,0.6136,0.6126,0.5967,0.5967,0.5967,0.6126,0.7224,0.8314,0.951,1.1554,1.2976,1.4155,1.5904,1.7222,1.8388,1.9982,2.2224,2.4466,2.5806,2.7355,2.8826,2.9978,3.0335,3.0737,3.2144,3.2517,3.2836,3.3938,3.4423,3.4754,3.5035,3.5088,3.5088,3.5105,3.5304,3.5369,3.5138,3.5304,3.5369,3.5122,3.5088,3.487,3.4292,3.4529,3.4593,3.4269,3.4246,3.4379,3.4694,3.4401,3.4379,3.4674,3.4694,3.4694,3.4694,3.4379,3.4357,3.4694,3.4674,3.4832,3.5181,3.5944,3.6463,0.0,0.0,0.0,0.0,0.0,0.0,0.0,0.0,0.0,0.0,0.0,0.0,0.0,0.0,0.0,0.0,0.0,0.0,-0.3181,-0.4339,-0.4855,-0.4204,-0.4277,-0.4457,-0.4457,-0.4461,-0.4436,-0.4436,-0.4436,-0.4434,-0.4428,-0.5049,-0.5116,-0.4428,-0.4434,-0.4459,-0.4433,-0.2609,-0.1724,-0.1726,-0.1756,-0.1134,0.0,0.0,0.0,-0.0142,-0.244,-0.1298,0.2322,0.4806,0.5837,0.5833,0.5833,0.5751,0.5813,0.6194,0.7001,0.8174,0.9526,1.1158,1.2742,1.3404,1.4759,1.6702,1.9447,2.0954,2.232,2.545,2.7056,2.7984,2.8888,2.9717,3.0673,3.2144,3.2648,3.3045,3.376,3.433,3.4774,3.5053,3.5105,3.5138,3.5339,3.5289,3.5207,3.5105,3.5053,3.5016,3.5088,3.4944,3.4832,3.4794,3.4734,3.4653,3.4529,3.4334,3.4357,3.4674,3.4379,3.4246,3.4379,3.4591,3.4593,3.4379,3.4467,3.4572,3.4694,3.4467,3.4532,3.4851,3.5321,3.5594,0.0,0.0,0.0,0.0,0.0,0.0,0.0,0.0,0.0,0.0,0.0,0.0,0.0,0.0,0.0,0.0,0.0,0.0,-0.3075,-0.4131,-0.4884,-0.488,-0.5095,-0.5227,-0.5227,-0.5246,-0.5257,-0.5304,-0.5308,0.0,-0.5369,-0.5379,-0.5379,-0.5372,-0.5379,-0.5386,-0.5389,-0.4228,-0.362,-0.3623,-0.3623,-0.2962,-0.1792,-0.1192,-0.0561,-0.0138,-0.318,-0.3138,-0.0636,0.2545,0.4109,0.4469,0.4686,0.4751,0.4742,0.5409,0.6054,0.676,0.7517,0.9168,1.0936,1.0936,1.2122,1.4017,1.6619,1.8195,1.9756,2.3076,2.4994,2.6371,2.757,2.9166,3.0767,3.1934,3.2645,3.3184,3.3707,3.4208,3.4593,3.4774,3.4889,3.5053,3.532,3.5223,3.5122,3.5223,3.5088,3.4999,3.5088,3.487,3.4734,3.4794,3.4634,3.4529,3.4529,3.4334,3.4311,3.4529,3.4242,3.4068,3.4068,3.4284,3.433,3.42,3.433,3.4505,3.4694,3.4486,3.4467,3.4694,3.4889,3.4999,0.0,0.0,0.0,0.0,0.0,0.0,0.0,0.0,0.0,0.0,0.0,0.0,0.0,0.0,0.0,0.0,0.0,0.0,0.0,-0.4796,-0.4796,-0.4908,-0.4911,-0.4911,-0.4911,-0.4914,-0.4975,-0.5114,-0.5125,-0.5189,-0.5404,-0.5418,-0.5422,-0.5428,-0.5428,-0.5432,-0.5379,-0.5379,-0.5382,-0.5393,-0.5393,-0.5396,-0.5326,-0.3553,-0.1806,-0.0268,-0.2008,-0.2811,-0.2611,-0.0868,0.0533,0.1733,0.2339,0.2609,0.2753,0.4574,0.5296,0.5339,0.5617,0.702,0.8674,0.8674,0.9425,1.038,1.1343,1.3891,1.685,1.8519,2.1188,2.3991,2.6069,2.8682,3.0946,3.144,3.2391,3.3273,3.3707,3.3993,3.4176,3.42,3.4445,3.4774,3.5034,3.5088,3.519,3.5446,3.5493,3.5403,3.5138,3.4889,3.4593,3.4246,3.4223,3.42,3.42,3.42,3.42,3.42,3.3961,3.3815,3.3815,3.3815,3.391,3.4176,3.3935,3.4087,3.4674,3.4674,3.4674,3.4674,3.4713,3.4851,0.0,0.0,0.0,0.0,0.0,0.0,0.0,0.0,0.0,0.0,0.0,0.0,0.0,0.0,0.0,0.0,0.0,0.0,0.0,-0.4592,-0.4592,-0.4589,-0.4687,-0.4755,-0.4755,-0.4853,-0.4935,0.0,-0.5463,-0.5785,-0.5833,-0.5951,-0.5819,-0.5425,-0.5428,-0.5428,-0.5432,-0.5432,-0.5369,-0.5372,-0.5372,-0.5376,-0.5382,-0.4903,-0.4364,-0.3964,-0.4431,-0.4631,-0.4631,-0.4095,-0.2945,-0.1335,0.0201,0.02,-0.04,0.1012,0.2026,0.3032,0.4851,0.5884,0.6368,0.636,0.7264,0.8831,1.0898,1.2585,1.4473,1.7381,1.9989,2.2561,2.5693,2.7478,2.8864,3.0503,3.1463,3.2391,3.3542,3.3868,3.3961,3.4152,3.4269,3.4445,3.4754,3.4793,3.4908,3.5174,3.5207,3.5239,3.5369,3.5174,3.4944,3.4851,3.4675,3.4445,3.4223,3.42,3.42,3.42,3.4123,3.4074,3.4074,3.4074,3.4018,3.3928,3.3842,3.3895,3.4055,3.4242,3.4334,3.4357,3.4572,3.4944,0.0,0.0,0.0,0.0,0.0,0.0,0.0,-0.2857,0.0,0.0,0.0,0.0,0.0,0.0,0.0,0.0,0.0,0.0,0.0,0.0,0.0,-0.4519,-0.4541,-0.4596,-0.4596,-0.4959,-0.5159,-0.5288,-0.5935,-0.6379,-0.6464,-0.6511,-0.6474,-0.6286,-0.6294,-0.6327,-0.6465,-0.6141,-0.6141,-0.647,-0.6141,-0.5947,-0.5954,-0.5954,-0.5771,-0.5386,-0.5376,-0.5372,-0.5379,-0.5379,-0.4767,-0.3751,-0.2679,-0.2207,-0.2203,-0.2209,-0.1202,0.0532,0.1935,0.3032,0.3886,0.3881,0.516,0.7031,0.8503,0.9311,1.0542,1.4638,1.8453,2.1928,2.4261,2.6122,2.7796,2.9168,3.0525,3.18,3.2863,3.3469,3.3842,3.3993,3.4018,3.4141,3.4442,3.4508,3.4593,3.4908,3.4944,3.4981,3.5157,3.5016,3.4944,3.4944,3.4793,3.4632,3.4423,3.4288,3.42,3.42,3.4117,3.4018,3.4018,3.4018,3.4018,3.3961,3.3868,3.3868,3.3961,3.3993,3.4074,3.42,3.4655,3.5034,0.0,0.0,0.0,0.0,0.0,0.0,-0.2847,-0.2832,-0.2774,0.0,0.0,0.0,0.0,0.0,0.0,0.0,0.0,0.0,0.0,0.0,0.0,0.0,-0.4519,-0.4515,-0.4625,-0.5164,-0.5614,-0.5844,-0.6591,-0.7027,-0.719,-0.7205,-0.724,-0.7459,-0.7469,-0.7636,-0.7921,-0.7205,-0.7219,-0.7962,-0.7242,-0.685,-0.685,-0.685,-0.6338,-0.5572,-0.5627,-0.5627,-0.5572,-0.5627,-0.5564,-0.5379,-0.5389,-0.4434,-0.3213,-0.4776,-0.4023,-0.22,-0.22,-0.0799,0.1065,0.1332,0.2941,0.484,0.4938,0.5215,0.6438,1.1374,1.6671,2.108,2.1876,2.4459,2.6987,2.7522,2.9417,3.1257,3.1887,3.2829,3.3579,3.377,3.3788,3.3876,3.4152,3.4195,3.4265,3.4612,3.4653,3.4653,3.4713,3.4694,3.4694,3.4694,3.4694,3.4694,3.4694,3.4423,3.4223,3.42,3.3986,3.3842,3.3807,3.3807,3.3928,3.4147,3.391,3.3928,3.4171,3.3935,3.3986,3.4269,3.4774,3.5016,0.0,0.0,0.0,0.0,0.0,0.0,-0.2428,-0.2455,-0.2589,0.0,0.0,0.0,0.0,0.0,0.0,0.0,0.0,0.0,0.0,0.0,0.0,0.0,0.0,-0.4736,-0.5269,-0.5433,-0.5778,-0.6375,-0.7144,-0.7626,-0.7751,-0.7762,-0.7591,-0.7175,-0.7185,-0.7289,-0.7568,-0.7438,-0.759,-0.8027,-0.7832,-0.7762,-0.7762,-0.7762,-0.7242,-0.6465,-0.7181,-0.7116,-0.6531,-0.7181,-0.6666,-0.5432,-0.5376,-0.5169,-0.4891,-0.5252,-0.5113,-0.4697,-0.4703,-0.4367,-0.3685,-0.1733,-0.0133,0.1268,0.2197,0.385,0.6375,1.1194,1.4363,1.671,1.8622,2.1594,2.4298,2.5284,2.7403,2.9644,3.119,3.1724,3.2236,3.3405,3.3733,3.3876,3.4152,3.4018,3.3961,3.4265,3.4311,3.4401,3.4674,3.4694,3.4694,3.4694,3.4694,3.4694,3.4694,3.4653,3.4486,3.42,3.4147,3.4018,3.3807,3.3807,3.3815,3.3876,3.3815,3.3815,3.3876,3.4043,3.4288,3.4593,3.4445,3.451,0.0,0.0,0.0,-0.3039,0.0,0.0,0.0,-0.2561,-0.2568,-0.2839,-0.2754,0.0,0.0,0.0,0.0,0.0,0.0,0.0,0.0,0.0,0.0,0.0,0.0,-0.462,-0.5358,-0.5815,-0.6524,-0.7616,-0.8049,-0.8271,-0.8342,-0.8348,-0.8466,-0.8663,-0.8344,-0.8469,-0.9069,-0.8363,-0.8249,-0.8813,-0.8438,-0.8186,-0.8191,-0.8368,-0.7917,-0.7158,-0.7718,-0.7767,-0.7372,-0.7827,-0.7507,-0.6662,-0.6214,-0.5756,-0.5428,-0.5376,-0.5376,-0.5369,-0.5376,-0.5382,-0.5179,-0.4015,-0.3211,-0.2341,-0.0533,0.2444,0.5898,0.8974,1.1629,1.4194,1.6645,1.9711,2.2503,2.3701,2.6156,2.8527,2.9715,3.0706,3.1775,3.2999,3.3186,3.3364,3.408,3.3986,3.3842,3.3986,3.4012,3.4043,3.4232,3.4375,3.4445,3.4445,3.4593,3.4694,3.4694,3.4551,3.4379,3.42,3.4074,3.3935,3.3807,3.3807,3.385,3.4012,3.4012,3.4012,3.4012,3.4012,3.4165,3.4445,3.4445,3.4614,0.0,0.0,0.0,0.0,0.0,-0.291,0.0,0.0,0.0,-0.2893,0.0,0.0,0.0,0.0,0.0,0.0,0.0,0.0,0.0,0.0,0.0,0.0,0.0,-0.4562,-0.5477,-0.6312,-0.7349,-0.8685,-0.8651,-0.8624,-0.8798,-0.891,-0.9376,-1.0156,-0.9738,-0.9936,-1.0808,-0.9431,-0.9131,-0.9911,-0.9072,-0.8657,-0.8663,-0.8873,-0.8482,-0.7696,-0.8133,-0.8212,-0.809,-0.8329,-0.8281,-0.8089,-0.7288,-0.6527,-0.5885,-0.5686,-0.562,-0.562,-0.562,-0.5627,-0.5701,-0.5833,-0.5641,-0.497,-0.2799,0.0789,0.4446,0.5997,0.886,1.2086,1.4553,1.7937,2.0969,2.2089,2.4918,2.7521,2.8115,2.9659,3.1285,3.2524,3.2528,3.2787,3.4144,3.3993,3.3734,3.385,3.3842,3.3807,3.3807,3.3986,3.4123,3.4123,3.4375,3.4548,3.4612,3.4357,3.42,3.42,3.4012,3.3868,3.3788,3.3807,3.3928,3.42,3.42,3.4223,3.4311,3.4087,3.4043,3.42,3.4486,3.4754,0.0,0.0,0.0,0.0,-0.3507,0.0,0.0,0.0,-0.2761,-0.2378,0.0,0.0,0.0,0.0,0.0,0.0,0.0,0.0,0.0,0.0,0.0,0.0,0.0,-0.4729,-0.6482,-0.7083,-0.78,-0.8744,-0.807,-0.7969,-0.8764,-0.9361,-0.9732,-0.9866,-1.0368,-1.0801,-1.121,-1.0461,-1.0231,-1.0572,-0.9897,-0.9563,-0.9563,-0.9596,-0.9122,-0.8345,-0.916,-0.9054,-0.8462,-0.9436,-0.9408,-0.8674,-0.8073,-0.7767,-0.7637,-0.685,-0.6527,-0.6527,-0.6527,-0.6527,-0.6658,-0.7442,-0.665,-0.5127,-0.3713,-0.1458,0.1063,0.3302,0.6484,0.9536,1.0906,1.5285,1.9355,1.9515,2.2954,2.6402,2.7101,2.8217,2.9726,3.1854,3.2001,3.2456,3.4623,3.4043,3.3486,3.4074,3.3961,3.3807,3.3807,3.3815,3.3842,3.3842,3.3895,3.3986,3.4242,3.4223,3.42,3.42,3.4171,3.4043,3.3815,3.3807,3.3928,3.42,3.42,3.4357,3.4653,3.4612,3.4464,3.42,3.4223,3.4423,0.0,0.0,0.0,0.0,0.0,0.0,-0.2947,0.0,-0.2771,0.0,0.0,0.0,0.0,0.0,0.0,0.0,-0.3474,0.0,0.0,0.0,0.0,0.0,0.0,0.0,-0.6429,-0.6969,-0.7508,-0.8243,-0.8147,-0.8378,-0.9105,-0.9913,-1.0568,-1.0965,-1.0864,-1.104,-1.1601,-1.0949,-1.0453,-1.0171,-0.9908,-0.9542,-0.9178,-0.9352,-0.9193,-0.8903,-0.9484,-0.9499,-0.9207,-0.9689,-0.9676,-0.9339,-0.9242,-0.8742,-0.7962,-0.7567,-0.7437,-0.7437,-0.7437,-0.7437,-0.7502,-0.7897,-0.7497,-0.6637,-0.5045,-0.3919,-0.2652,-0.0262,0.275,0.5701,0.7724,1.1659,1.5763,1.8483,2.1569,2.429,2.5689,2.6945,2.8282,2.9843,3.0677,3.182,3.396,3.3714,3.3439,3.4104,3.4099,3.3986,3.3815,3.3954,3.3986,3.3815,3.3807,3.3842,3.3961,3.3961,3.3961,3.3961,3.3961,3.3928,3.3788,3.3935,3.4093,3.42,3.42,3.4269,3.4401,3.4237,3.4302,3.4508,3.4508,3.4655,-0.3741,0.0,0.0,0.0,0.0,0.0,0.0,0.0,0.0,0.0,0.0,0.0,0.0,0.0,0.0,0.0,0.0,-0.3863,0.0,0.0,0.0,0.0,0.0,0.0,0.0,-0.6391,-0.6894,-0.7742,0.0,-0.8382,-0.9324,-1.0335,-1.1154,-1.1756,-1.1525,-1.1633,-1.208,-1.1416,-1.0813,-1.0364,-1.0167,-0.9814,-0.9368,-0.9542,-0.9641,-0.9656,-0.9723,-0.9714,-0.9721,-0.9583,-0.9559,-0.9593,-0.9886,-0.9383,-0.8428,-0.8372,-0.8355,-0.8355,-0.8355,-0.8667,-0.8977,-0.8796,-0.8731,-0.8458,-0.7205,-0.6555,-0.5883,-0.3846,-0.1107,0.1762,0.408,0.8249,1.2777,1.6716,2.0237,2.3024,2.4199,2.588,2.7487,2.8505,2.9667,3.1078,3.3033,3.3329,3.357,3.4319,3.4204,3.4056,3.4037,3.4049,3.4056,3.4037,3.3961,3.3902,3.3902,3.3842,3.3807,3.3807,3.385,3.3876,3.3788,3.3986,3.4123,3.42,3.42,3.4265,3.4334,3.4141,3.4279,3.4694,3.4694,3.487,0.0,0.0,0.0,-0.3509,0.0,0.0,0.0,0.0,-0.3069,0.0,0.0,0.0,0.0,0.0,-0.4834,-0.4274,-0.4493,0.0,0.0,0.0,0.0,0.0,0.0,0.0,0.0,-0.5487,-0.5967,0.0,-0.6933,-0.7395,-0.9279,-1.0533,-1.1379,-1.1805,-1.2452,-1.2822,-1.2871,-1.2138,-1.1765,-1.1715,-1.1065,-1.0762,-1.0762,-1.0728,-1.0728,-1.0728,-1.0095,-0.9792,-0.9769,-0.9398,-0.9196,-0.923,-0.9579,-0.9699,-0.9604,-0.9337,-0.9274,-0.9274,-0.9274,-1.0332,-1.1524,-1.08,-1.0458,-1.0418,-1.0355,-0.9515,-0.8345,-0.7241,-0.4653,-0.1868,-0.0195,0.5387,1.1204,1.3433,1.8863,2.3346,2.264,2.5089,2.7639,2.8525,2.9349,3.0425,3.1977,3.3003,3.392,3.4925,3.4244,3.3864,3.4572,3.4073,3.3907,3.4593,3.4379,3.4195,3.4195,3.3935,3.3807,3.3807,3.4043,3.4068,3.3815,3.3807,3.3935,3.42,3.42,3.4357,3.4674,3.4674,3.4674,3.4694,3.4694,3.4981,0.0,0.0,-0.4753,-0.4361,0.0,0.0,0.0,0.0,0.0,0.0,0.0,0.0,0.0,0.0,-0.508,-0.4941,-0.4716,-0.4375,0.0,0.0,0.0,0.0,0.0,0.0,0.0,0.0,0.0,0.0,-0.7388,0.0,-0.9758,-1.1104,-1.1893,-1.2082,-1.2619,-1.2881,-1.2881,-1.2666,-1.2286,-1.1814,-1.1566,-1.1216,-1.0813,-1.0813,-1.0813,-1.0762,-1.0568,-1.0466,-1.0423,-0.9829,-0.9873,-1.0211,-0.9591,-0.9659,-1.0037,-0.9702,-0.9669,-0.9916,-1.0711,-1.164,-1.2573,-1.2274,-1.2197,-1.2058,-1.1458,-1.1002,-1.0608,-1.0256,-0.8439,-0.6165,-0.3916,0.0887,0.5674,0.7696,1.3307,1.9089,2.2457,2.3921,2.5005,2.6472,2.7952,2.9366,3.0613,3.1528,3.2458,3.3548,3.3873,3.4086,3.4334,3.436,3.4427,3.4674,3.4593,3.4529,3.4529,3.4442,3.4416,3.4416,3.4486,3.4486,3.4416,3.4189,3.4195,3.4529,3.4141,3.4068,3.4379,3.4189,3.4189,3.4379,3.4379,3.4593,-0.501,-0.5234,0.0,-0.5171,-0.5168,0.0,-0.3649,0.0,0.0,0.0,0.0,0.0,0.0,0.0,-0.5359,-0.5432,-0.4943,-0.4382,0.0,-0.3814,0.0,0.0,0.0,0.0,0.0,0.0,-0.5321,-0.6447,-0.7196,0.0,0.0,-1.1154,-1.2061,-1.218,-1.2656,-1.2881,-1.2881,-1.2881,-1.2666,-1.2187,-1.2187,-1.1981,-1.1534,-1.1534,-1.1534,-1.1534,-1.1266,-1.1166,-1.1116,-1.0415,-1.0415,-1.0736,-1.0045,-1.0082,-1.0394,-0.9868,-1.0037,-1.0671,-1.1647,-1.2651,-1.3364,-1.307,-1.3183,-1.3295,-1.2761,-1.2562,-1.2562,-1.2562,-1.1873,-1.0544,-0.7739,-0.4146,-0.0253,0.3423,0.7893,1.3289,2.0206,2.2526,2.3736,2.5217,2.6877,2.8237,2.8918,2.986,3.1004,3.2481,3.2952,3.3329,3.3852,3.3911,3.4089,3.4636,3.4694,3.4694,3.4694,3.4694,3.4581,3.4259,3.432,3.4207,3.3787,3.3585,3.3545,3.3769,3.3407,3.3273,3.3459,3.3273,3.3393,3.3766,3.3766,3.3981]}]]